     2              OBSERVATION DATA    GPS                 RINEX VERSION / TYPE
teqc 1999Jul19 19991123 03:24:06UTC                         PGM / RUN BY / DATE
                                                            COMMENT
Original Marker Name: QUAR                                  COMMENT
Campaign Name: HPGN 1991                                    COMMENT
4-Character Station Name: QUAR                              COMMENT
6-Character Antenna Code: TRMSST                            COMMENT
Vertical Measurement Point: BPA                             COMMENT
Vertical Offset to Rinex Ref. Point: 0.0000                 COMMENT
Radial Measurement Point: RRP                               COMMENT
Radial Offset to Rinex Ref. Point: 0.0000                   COMMENT
Antenna Height from Field Measurement: 2.2200 m             COMMENT
                                                            COMMENT
Original XYZ: -2519769.2696 -4420076.4071 3834777.5369      COMMENT
New XYZ position is based on association with SCEC monument COMMENT
E1F7P7R1+0011. Position of that monument is believed to be  COMMENT
valid to within 1 m horizontally; vertical accuracy         COMMENT
should be no worse than 3-times this value.                 COMMENT
                                                            COMMENT
Revised Rinex header created by UCSD GPS archive for        COMMENT
GSAC on 10-Mar-2000 (2000:070) 17:49:13 GMT                 COMMENT
For assistance contact dagnew@ucsd.edu or hjohnson@ucsd.edu COMMENT
                                                            COMMENT
QUARTZ                                                      MARKER NAME
QUAR                                                        MARKER NUMBER
-Unknown- CALIF DEPT TRANSPORTATION                         OBSERVER / AGENCY
485 TRIMBLE 4000 SST NP 4.30 / SP 4.20                      REC # / TYPE / VERS
16 TR 4000SST L1/L2 GEO                                     ANT # / TYPE
 -2519771.9708 -4420078.7875  3834775.5201                  APPROX POSITION XYZ
        2.2200        0.0000        0.0000                  ANTENNA: DELTA H/E/N
     1     1     0                                          WAVELENGTH FACT L1/2
     5    C1    L1    L2    S1    S2                        # / TYPES OF OBSERV
     0                                                      INTERVAL
  1991     6     3    16    59   45.000000                  TIME OF FIRST OBS
  1991     6     3    22    59   60.000000                  TIME OF LAST OBS
                                                            END OF HEADER
 91  6  3 16 59 45.0000000  0  4G18G 2G11G19
  20704097.359          -0.99617                        27.000
  24242050.930          -0.67415                         8.250
  24223598.445          -0.88715                        11.000
  20841998.570          -0.49216                        19.750
 91  6  3 17  0  0.0000000  0  4G18G 2G11G19
  20706173.336       10911.881 7        -0.47832        27.250           2.375
  24231308.867      -56448.990 5                         8.250
  24215286.789      -43686.093 5                        11.750
  20839954.164      -10755.665 6        -0.16832        18.250           2.000
 91  6  3 17  0 15.0000000  0  4G18G 2G11G19
  20708252.750       21835.801 7      8511.64722        27.250           2.344
  24220559.273     -112960.739 5        -0.33131         9.000           0.375
  24206968.953      -87393.935 5        -0.44731        11.750           0.469
  20837895.727      -21557.815 6     -8417.42922        19.250           1.969
 91  6  3 17  0 30.0000000  0  4G18G 2G11G19
  20710336.578       32790.499 7     17047.75522        26.750           2.406
  24209795.305     -169515.628 5    -44068.98521         8.500           0.375
  24198650.273     -131103.953 5    -34060.13521        11.250           0.406
  20835836.758      -32387.105 6    -16855.83822        19.000           1.969
 91  6  3 17  0 45.0000000  0  4G18G 2G11G19
  20712429.773       43789.215 7     25618.15222        26.500           2.375
  24199027.898     -226100.123 5    -88160.70821         8.750           0.344
  24190336.773     -174802.463 6    -68110.86221        12.500           0.406
  20833772.117      -43230.225 6    -25305.02922        19.500           2.000
 91  6  3 17  1  0.0000000  0  4G18G 2G11G19
  20714534.078       54843.340 7     34231.74022        26.750           2.438
  24188260.359     -282702.937 5   -132266.69821         9.250           0.375
  24182025.516     -218477.945 6   -102143.62721        12.500           0.313
  20831709.867      -54076.124 6    -33756.38622        18.500           1.969
 91  6  3 17  1 15.0000000  0  4G18G 2G11G19
  20716648.750       65957.483 7     42892.08822        26.000           2.344
  24177484.273     -339318.888 5   -176382.95221         9.500           0.500
  24173721.563     -262124.863 6   -136154.14821        12.750           0.281
  20829643.250      -64919.585 6    -42205.83522        19.000           1.813
 91  6  3 17  1 30.0000000  0  4G18G 2G11G19
  20718774.906       77132.704 7     51600.03022        26.250           2.344
  24166707.367     -395946.963 5   -220508.64521         9.500           0.500
  24165420.734     -305742.183 6   -170141.60521        12.500           0.344
  20827583.156      -75759.986 6    -50652.90222        17.750           1.813
 91  6  3 17  1 45.0000000  0  4G18G 2G11G19
  20720915.141       88374.800 7     60360.07822        26.250           2.313
  24155927.992     -452581.230 5   -264639.14821         9.000           0.469
  24157126.563     -349323.568 6   -204101.06321        12.750           0.375
  20825520.414      -86591.663 6    -59093.17422        19.250           1.875
 91  6  3 17  2  0.0000000  0  4G18G 2G11G19
  20723065.727       99679.765 7     69169.11322        26.500           2.313
  24145150.305     -509225.390 5   -308777.37121         9.250           0.438
  24148837.086     -392872.611 6   -238035.34121        12.750           0.375
  20823463.336      -97418.426 6    -67529.62322        19.000           1.813
 91  6  3 17  2 15.0000000  0  4G18G 2G11G19
  20725228.781      111046.063 7     78025.94722        25.750           2.313
  24134370.234     -565880.765 5   -352924.31721         9.250           0.344
  24140556.789     -436390.447 6   -271945.28221        12.500           0.375
  20821401.648     -108241.796 6    -75963.42722        19.250           1.813
 91  6  3 17  2 30.0000000  0  4G18G 2G11G19
  20727402.977      122478.837 7     86934.57022        25.250           2.281
  24123588.758     -622541.978 5   -397075.82621         9.750           0.344
  24132285.031     -479871.432 6   -305826.50721        13.250           0.375
  20819344.766     -119056.727 6    -84390.65222        18.250           1.750
 91  6  3 17  2 45.0000000  0  4G18G 2G11G19
  20729592.711      133979.861 7     95896.38122        25.500           2.156
  24112809.531     -679207.226 5   -441230.46721        10.000           0.344
  24124014.820     -523313.640 6   -339677.52621        12.750           0.344
  20817285.984     -129861.650 6    -92810.07422        18.750           1.875
 91  6  3 17  3  0.0000000  0  4G18G 2G11G19
  20731795.750      145554.502 7    104915.55922        26.000           2.250
  24102025.500     -735870.491 5   -485383.57421        10.750           0.313
  24115761.461     -566710.872 6   -373493.52621        13.500           0.250
  20815233.844     -140650.790 6   -101217.20522        18.250           1.969
 91  6  3 17  3 15.0000000  0  4G18G 2G11G19
  20734010.672      157193.413 7    113984.82022        26.000           2.250
  24091238.852     -792541.237 5   -529542.53321        11.250           0.375
  24107506.867     -610072.268 6   -407281.56521        12.500           0.375
  20813180.172     -151433.703 6   -109619.48222        19.250           1.844
 91  6  3 17  3 30.0000000  0  4G18G 2G11G19
  20736237.461      168900.420 7    123107.13222        25.750           2.375
  24080452.680     -849215.503 5   -573704.21421        10.750           0.344
  24099263.508     -653393.440 6   -441038.29121        13.000           0.219
  20811136.695     -162206.524 6   -118013.89522        18.000           1.875
 91  6  3 17  3 45.0000000  0  4G18G 2G11G19
  20738480.359      180682.452 7    132287.90822        25.750           2.469
  24069670.586     -905885.827 5   -617862.81521        11.250           0.406
  24091025.555     -696666.930 5   -474757.83321        11.000           0.469
  20809084.773     -172962.151 6   -126394.90522        19.750           1.938
 91  6  3 17  4  0.0000000  0  4G18G 2G11G19
  20740735.883      192536.915 7    141525.13022        25.750           2.406
  24058887.344     -962554.727 5   -662020.32321        11.750           0.375
  24082801.281     -739895.175 5   -508442.14021        10.750           0.438
  20807043.938     -183703.365 6   -134764.69422        19.500           1.906
 91  6  3 17  4 15.0000000  0  4G18G 2G11G19
  20743006.523      204467.282 7    150821.49822        25.750           2.406
  24048105.055    -1019218.281 5   -706173.66421        11.500           0.438
  24074582.367     -783074.067 5   -542087.96421        10.250           0.375
  20805000.031     -194426.598 7   -143120.46622        20.250           1.813
 91  6  3 17  4 30.0000000  0  4G18G 2G11G19
  20745288.438      216464.560 7    160170.00222        25.500           2.438
  24037322.563    -1075885.531 5   -750329.87421        11.750           0.531
  24066370.188     -826212.454 5   -575702.26421        10.000           0.406
  20802963.297     -205140.980 6   -151469.34122        19.500           1.813
 91  6  3 17  4 45.0000000  0  4G18G 2G11G19
  20747586.563      228533.680 7    169574.47822        26.000           2.375
  24026534.008    -1132551.127 5   -794484.78621        11.250           0.594
  24058173.648     -869304.632 5   -609280.53321        10.500           0.469
  20800925.859     -215841.414 6   -159807.34422        19.750           1.719
 91  6  3 17  5  0.0000000  0  4G18G 2G11G19
  20749896.086      240669.119 7    179030.64523        26.500           2.531
  24015750.430    -1189220.852 5   -838642.91621        11.500           0.531
  24049981.508     -912356.116 5   -642827.09421        11.500           0.531
  20798892.055     -226533.698 6   -168139.00122        19.000           1.844
 91  6  3 17  5 15.0000000  0  4G18G 2G11G19
  20752220.250      252887.933 7    188551.78223        25.500           2.563
  24004969.992    -1245876.906 6   -882790.40621        12.000           0.500
  24041803.523     -955349.015 5   -676328.00321        11.000           0.594
  20796860.703     -237200.482 7   -176450.78222        20.000           1.781
 91  6  3 17  5 30.0000000  0  4G18G 2G11G19
  20754559.180      265179.696 7    198129.75223        25.500           2.531
  23994189.039    -1302529.686 5   -926935.35621        11.750           0.594
  24033625.188     -998293.683 5   -709791.32221        10.250           0.594
  20794835.039     -247852.556 6   -184751.10722        19.500           1.875
 91  6  3 17  5 45.0000000  0  4G18G 2G11G19
  20756913.414      277558.286 7    207775.37423        24.750           2.563
  23983410.258    -1359165.289 5   -971066.91121        11.250           0.625
  24025466.766    -1041175.751 5   -743205.88321        11.250           0.500
  20792812.609     -258475.861 7   -193029.01022        20.000           1.969
 91  6  3 17  6  0.0000000  0  4G18G 2G11G19
  20759288.555      290024.741 7    217489.47222        26.000           2.469
  23972640.547    -1415782.185 5  -1015183.87221        11.500           0.500
  24017320.844    -1083993.521 5   -776570.33421        11.000           0.500
  20790798.852     -269069.061 6   -201283.45622        19.250           2.125
 91  6  3 17  6 15.0000000  0  4G18G 2G11G19
  20761674.563      302568.519 7    227263.81723        26.000           2.500
  23961867.508    -1472390.542 5  -1059294.19421        11.250           0.531
  24009184.875    -1126756.930 5   -809892.40721        11.000           0.625
  20788783.617     -279642.497 6   -209522.50122        19.250           1.938
 91  6  3 17  6 30.0000000  0  4G18G 2G11G19
  20764076.336      315185.431 7    237095.15723        26.250           2.625
  23951094.445    -1528994.534 5  -1103401.12321        11.250           0.500
  24001052.773    -1169470.119 5   -843175.36221        10.500           0.500
  20786775.688     -290200.640 6   -217749.63422        18.500           1.906
 91  6  3 17  6 45.0000000  0  4G18G 2G11G19
  20766490.672      327877.198 7    246984.81723        26.000           2.688
  23940321.750    -1585592.241 5  -1147503.13421        10.750           0.625
  23992938.297    -1212130.897 6   -876417.47121        12.500           0.594
  20784768.445     -300741.778 6   -225963.51322        19.250           1.844
 91  6  3 17  7  0.0000000  0  4G18G 2G11G19
  20768921.336      340640.007 7    256929.84023        27.750           2.594
  23929556.273    -1642187.335 5  -1191603.11421        11.500           0.469
  23984829.203    -1254742.720 6   -909621.44221        12.500           0.531
  20782766.609     -311270.012 6   -234167.33922        18.000           1.750
 91  6  3 17  7 15.0000000  0  4G18G 2G11G19
  20771362.344      353475.213 7    266931.27523        26.750           2.625
  23918787.914    -1698778.162 5  -1235699.78321        11.750           0.438
  23976729.539    -1297303.649 6   -942785.77221        12.750           0.531
  20780766.070     -321783.730 6   -242359.85322        19.250           1.688
 91  6  3 17  7 30.0000000  0  4G18G 2G11G19
  20773817.406      366379.331 7    276986.40823        26.250           2.594
  23908018.891    -1755367.615 5  -1279795.36321        11.500           0.500
  23968641.094    -1339816.383 6   -975912.51021        13.750           0.500
  20778767.414     -332286.020 6   -250543.46622        18.250           1.750
 91  6  3 17  7 45.0000000  0  4G18G 2G11G19
  20776288.789      379357.382 7    287099.15423        26.750           2.656
  23897251.820    -1811950.734 5  -1323886.02621        11.750           0.563
  23960560.336    -1382275.862 6  -1008997.78121        13.500           0.531
  20776770.961     -342772.141 6   -258714.47022        18.750           1.906
 91  6  3 17  8  0.0000000  0  4G18G 2G11G19
  20778773.531      392420.250 7    297277.98523        27.000           2.688
  23886488.477    -1868516.344 6  -1367963.03721        12.750           0.500
  23952493.672    -1424670.778 6  -1042032.73821        13.250           0.500
  20774784.555     -353231.211 6   -266864.40622        17.750           1.781
 91  6  3 17  8 15.0000000  0  5G18G 2G11G19G16
  20781274.344      405557.323 7    307514.64323        27.000           2.719
  23875723.398    -1925074.890 5  -1412034.56321        11.500           0.500
  23944435.039    -1467011.108 6  -1075025.15621        13.750           0.500
  20772794.234     -363673.639 6   -275001.37022        18.500           1.875
  24343988.250      -40122.919 5                         7.500
 91  6  3 17  8 30.0000000  0  5G18G 2G11G19G16
  20783787.438      418764.556 7    317805.96723        27.250           2.563
  23864962.023    -1981630.438 5  -1456103.73921        11.500           0.469
  23936389.844    -1509300.748 6  -1107978.08921        14.000           0.438
  20770809.430     -374103.658 6   -283128.66222        18.500           1.875
  24336364.547      -80174.357 5                         7.500
 91  6  3 17  8 45.0000000  0  5G18G 2G11G19G16
  20786314.609      432047.638 7    328156.39523        27.000           2.563
  23854201.844    -2038176.775 5  -1500165.74221        11.500           0.594
  23928353.375    -1551533.495 6  -1140886.66221        13.750           0.438
  20768827.086     -384515.551 6   -291241.82722        19.000           1.781
  24328759.109     -120148.648 4                         7.250
 91  6  3 17  9  0.0000000  0  5G18G 2G11G19G16
  20788857.063      445405.442 7    338565.05523        27.000           2.594
  23843442.555    -2094714.960 5  -1544221.36821        11.750           0.594
  23920326.117    -1593710.053 6  -1173751.46521        13.000           0.375
  20766853.008     -394910.519 6   -299341.80422        18.500           1.844
  24321165.039     -160047.190 4                         7.000
 91  6  3 17  9 15.0000000  0  5G18G 2G11G19G16
  20791413.102      458846.038 7    349038.21923        26.500           2.656
  23832683.891    -2151236.490 5  -1588264.04221        11.000           0.500
  23912311.703    -1635821.855 6  -1206565.82221        12.750           0.438
  20764875.867     -405280.312 6   -307422.16322        19.750           1.844
  24313588.828     -199861.263 4        -0.22231         6.750           0.281
 91  6  3 17  9 30.0000000  0  5G18G 2G11G19G16
  20793988.039      472367.591 7    359574.47423        27.250           2.688
  23821933.633    -2207742.818 5  -1632294.85921        11.500           0.594
  23904310.781    -1677870.262 6  -1239330.76121        12.500           0.375
  20762909.695     -415626.563 6   -315484.18422        19.500           1.719
  24306026.781     -239592.172 4    -30959.34721         6.500           0.344
 91  6  3 17  9 45.0000000  0  5G18G 2G11G19G16
  20796574.016      485964.199 7    370169.21123        26.250           2.625
  23811184.805    -2264240.146 5  -1676318.66321        11.500           0.563
  23896321.781    -1719860.996 6  -1272050.77021        12.750           0.313
  20760942.289     -425955.540 7   -323532.74922        20.000           1.688
  24298482.234     -279245.967 4    -61858.40621         7.250           0.375
 91  6  3 17 10  0.0000000  0  5G18G 2G11G19G16
  20799175.891      499634.733 7    380821.54223        27.000           2.656
  23800433.547    -2320728.889 5  -1720335.77721        11.500           0.563
  23888337.695    -1761794.472 6  -1304726.16621        12.250           0.344
  20758981.586     -436268.118 6   -331568.52622        18.500           1.813
  24290951.813     -318823.141 5    -92697.78721         8.250           0.313
 91  6  3 17 10 15.0000000  0  5G18G 2G11G19G16
  20801790.758      513381.542 7    391533.31922        26.250           2.469
  23789683.406    -2377206.843 5  -1764344.47921        10.750           0.531
  23880371.969    -1803668.162 6  -1337354.96021        12.750           0.406
  20757021.688     -446562.151 6   -339589.85322        19.750           1.813
  24283432.492     -358321.230 5   -123475.52921         7.750           0.406
 91  6  3 17 10 30.0000000  0  5G18G 2G11G19G16
  20804421.836      527203.721 7    402303.82523        26.000           2.625
  23778939.578    -2433674.444 5  -1808345.13221        11.000           0.500
  23872413.234    -1845482.283 6  -1369937.33721        12.500           0.438
  20755068.102     -456838.214 6   -347597.18622        18.750           1.875
  24275932.984     -397740.795 5   -154192.10221         8.250           0.281
 91  6  3 17 10 45.0000000  0  5G18G 2G11G19G16
  20807066.180      541098.737 7    413131.08123        26.000           2.594
  23768194.414    -2490133.810 5  -1852339.35821        11.250           0.625
  23864469.109    -1887238.864 6  -1402474.90821        13.000           0.375
  20753112.180     -467098.699 6   -355592.36922        19.250           1.875
  24268444.836     -437083.896 5   -184849.10721         8.500           0.281
 91  6  3 17 11  0.0000000  0  5G18G 2G11G19G16
  20809726.625      555078.802 7    424024.60522        26.250           2.438
  23757458.047    -2546572.639 5  -1896317.57121        11.250           0.625
  23856534.648    -1928925.346 6  -1434957.81621        12.000           0.344
  20751167.828     -477331.499 6   -363565.97822        18.250           1.844
  24260977.727     -476338.150 5   -215436.87921         8.500           0.281
 91  6  3 17 11 15.0000000  0  5G18G 2G11G19G16
  20812400.344      569132.820 7    434975.77222        25.750           2.469
  23746718.000    -2603001.899 5  -1940288.34221        10.750           0.469
  23848615.281    -1970552.411 6  -1467394.44621        12.500           0.406
  20749219.961     -487547.685 6   -371526.65022        19.500           1.969
  24253520.648     -515514.582 5   -245963.96921         8.500           0.375
 91  6  3 17 11 30.0000000  0  5G18G 2G11G19G16
  20815091.875      583273.689 7    445994.60923        26.000           2.500
  23735982.102    -2659408.418 5  -1984241.39121        10.250           0.469
  23840703.844    -2012106.762 5  -1499774.41121        11.250           0.406
  20747282.891     -497734.388 6   -379464.33822        19.500           1.906
  24246084.703     -554599.777 5   -276419.98421         9.000           0.375
 91  6  3 17 11 45.0000000  0  5G18G 2G11G19G16
  20817796.102      597490.431 7    457072.55323        25.250           2.625
  23725251.781    -2715802.909 5  -2028185.06221        10.750           0.500
  23832810.508    -2053598.929 6  -1532105.92521        12.250           0.500
  20745349.594     -507902.292 6   -387387.38322        19.750           1.844
  24238662.000     -593604.303 5   -306813.14521         9.000           0.344
 91  6  3 17 12  0.0000000  0  5G18G 2G11G19G16
  20820515.844      611782.620 7    468209.29923        25.500           2.563
  23714523.352    -2772185.860 5  -2072119.73821        11.000           0.563
  23824926.695    -2095029.018 6  -1564389.05921        12.000           0.375
  20743421.531     -518052.034 6   -395296.27422        18.750           1.844
  24231252.789     -632528.417 5   -337143.63921         9.000           0.313
 91  6  3 17 12 15.0000000  0  5G18G 2G11G19G16
  20823253.195      626156.093 7    479409.38022        26.000           2.438
  23703795.070    -2828550.857 5  -2116040.42521        11.000           0.469
  23817057.766    -2136390.489 6  -1596618.72821        12.250           0.438
  20741488.844     -528177.652 6   -403186.37422        19.500           1.781
  24223866.273     -671365.790 5   -367406.56721         9.500           0.344
 91  6  3 17 12 30.0000000  0  5G18G 2G11G19G16
  20826001.758      640603.271 7    490666.88422        25.750           2.469
  23693073.281    -2884905.308 5  -2159952.90321        11.250           0.438
  23809197.680    -2177690.727 5  -1628800.66421        11.750           0.438
  20739568.258     -538286.737 6   -411063.58522        18.500           1.969
  24216490.961     -710123.902 5   -397607.71121         9.500           0.438
 91  6  3 17 12 45.0000000  0  5G18G 2G11G19G16
  20828766.305      655128.444 7    501985.17622        26.000           2.344
  23682353.891    -2941244.379 6  -2203853.38721        12.250           0.531
  23801349.641    -2218924.679 5  -1660930.96521        11.750           0.469
  20737646.844     -548374.650 6   -418924.29422        19.750           1.906
  24209131.891     -748798.103 5   -427743.45321         9.000           0.344
 91  6  3 17 13  0.0000000  0  5G18G 2G11G19G16
  20831545.516      669736.191 7    513367.80222        25.750           2.313
  23671634.727    -2997563.591 5  -2247738.40921        11.750           0.594
  23793517.383    -2260087.736 6  -1693006.04121        12.500           0.500
  20735734.273     -558437.303 6   -426765.32922        19.500           1.875
  24201783.922     -787383.699 5   -457810.16721         8.500           0.406
 91  6  3 17 13 15.0000000  0  5G18G 2G11G19G16
  20834341.758      684428.705 7    524816.49222        25.500           2.281
  23660921.953    -3053860.375 6  -2291605.93421        12.250           0.531
  23785699.328    -2301177.114 6  -1725023.67821        12.750           0.438
  20733822.820     -568472.211 6   -434584.73722        19.750           1.813
  24194457.461     -825878.133 5   -487805.85221         8.750           0.313
 91  6  3 17 13 30.0000000  0  5G18G 2G11G19G16
  20837151.695      699201.296 7    536327.56922        25.250           2.281
  23650211.484    -3110139.295 5  -2335459.55521        11.750           0.531
  23777891.977    -2342197.086 6  -1756987.23921        13.000           0.500
  20731919.273     -578484.088 6   -442386.20322        19.000           1.906
  24187150.953     -864286.077 5   -517734.15421         9.000           0.406
 91  6  3 17 13 45.0000000  0  5G18G 2G11G19G16
  20839978.648      714057.762 7    547904.01022        24.750           2.438
  23639504.391    -3166396.346 6  -2379296.14821        12.000           0.563
  23770102.617    -2383143.204 6  -1788893.25021        13.250           0.563
  20730017.891     -588469.045 7   -450166.69422        20.000           1.844
  24179861.813     -902602.983 5   -547591.50221         9.500           0.406
 91  6  3 17 14  0.0000000  0  5G18G 2G11G19G16
  20842821.836      729001.210 7    559548.22422        24.750           2.406
  23628805.969    -3222628.015 6  -2423112.93321        12.500           0.563
  23762322.469    -2424012.083 6  -1820739.07621        13.500           0.563
  20728127.484     -598423.780 6   -457923.63722        18.750           1.844
  24172589.742     -940825.788 5   -577375.50721         9.750           0.344
 91  6  3 17 14 15.0000000  0  5G18G 2G11G19G16
  20845687.000      744050.441 7    571274.87222        24.750           2.250
  23618113.695    -3278815.496 6  -2466895.29021        12.750           0.625
  23754567.320    -2464784.698 6  -1852509.88521        14.250           0.594
  20726238.047     -608329.539 6   -465642.41222        19.000           1.813
  24165332.758     -978935.276 5   -607071.23121         9.250           0.375
 91  6  3 17 14 30.0000000  0  5G18G 2G11G19G16
  20848639.797      759573.307 7    583370.57522        25.000           2.281
  23607500.977    -3334590.532 6  -2510356.27821        12.750           0.531
  23746895.945    -2505092.529 6  -1883918.54121        14.000           0.563
  20724434.141     -617818.240 6   -473036.21222        18.250           1.844
  24158174.383    -1016563.425 5   -636391.88721         9.750           0.406
 91  6  3 17 14 45.0000000  0  5G18G 2G11G19G16
  20851621.266      775235.504 7    595574.85722        25.000           2.313
  23596903.453    -3390287.307 6  -2553756.28121        13.250           0.594
  23739250.328    -2545269.471 6  -1915225.17821        14.250           0.563
  20722640.375     -627224.287 6   -480365.59722        18.500           1.719
  24151048.477    -1054044.116 5   -665597.63521        10.500           0.438
 91  6  3 17 15  0.0000000  0  5G18G 2G11G19G16
  20854618.023      790980.068 7    607843.30522        25.250           2.344
  23586306.703    -3445962.551 6  -2597139.50321        13.000           0.625
  23731618.984    -2585372.238 6  -1946474.03721        14.000           0.594
  20720858.766     -636604.747 6   -487675.05522        18.000           1.813
  24143928.977    -1091434.101 5   -694732.71921        10.500           0.406
 91  6  3 17 15 15.0000000  0  5G18G 2G11G19G16
  20857631.672      806813.414 7    620180.95022        25.000           2.344
  23575715.313    -3501609.270 6  -2640500.48821        12.500           0.625
  23724002.898    -2625393.629 6  -1977659.47921        14.250           0.500
  20719078.867     -645952.867 6   -494959.31122        19.250           1.781
  24136832.820    -1128726.535 5   -723791.78721        10.250           0.375
 91  6  3 17 15 30.0000000  0  5G18G 2G11G19G16
  20860660.805      822731.774 7    632584.82922        25.000           2.344
  23565133.320    -3557231.250 6  -2683842.20521        12.750           0.594
  23716403.273    -2665337.254 6  -2008784.32421        14.500           0.625
  20717306.234     -655272.598 6   -502221.44922        18.750           1.719
  24129753.922    -1165925.295 5   -752777.83421        10.000           0.438
 91  6  3 17 15 45.0000000  0  5G18G 2G11G19G16
  20863703.984      838733.024 7    645053.30922        24.500           2.406
  23554551.758    -3612830.310 6  -2727166.06121        13.250           0.625
  23708813.648    -2705204.621 6  -2039849.73621        13.500           0.500
  20715536.391     -664565.784 6   -509462.89922        19.500           1.719
  24122692.984    -1203031.783 5   -781691.97721        10.500           0.375
 91  6  3 17 16  0.0000000  0  5G18G 2G11G19G16
  20866765.922      854821.201 7    657589.52223        24.750           2.500
  23543979.164    -3668401.880 6  -2770468.50221        13.750           0.719
  23701242.367    -2744991.094 6  -2070852.12521        13.500           0.594
  20713777.797     -673828.262 6   -516680.42722        17.500           1.844
  24115650.633    -1240041.498 5   -810530.73921        11.250           0.313
 91  6  3 17 16 15.0000000  0  5G18G 2G11G19G16
  20869843.844      870990.481 7    670188.92022        25.250           2.469
  23533406.891    -3723951.806 6  -2813754.07921        13.250           0.656
  23693688.109    -2784702.345 6  -2101795.89921        13.750           0.469
  20712015.297     -683065.950 6   -523878.62822        19.000           1.938
  24108625.813    -1276960.175 5   -839298.55621        11.250           0.281
 91  6  3 17 16 30.0000000  0  5G18G 2G11G19G16
  20872935.641      887241.142 7    682851.73223        25.000           2.563
  23522843.195    -3779479.732 6  -2857022.50021        14.000           0.688
  23686144.695    -2824337.749 6  -2132680.56621        13.500           0.594
  20710264.055     -692278.631 6   -531057.35222        17.750           1.969
  24101615.891    -1313787.565 5   -867995.24821        11.000           0.281
 91  6  3 17 16 45.0000000  0  5G18G 2G11G19G16
  20876043.859      903570.991 7    695576.25822        25.250           2.438
  23512278.914    -3834987.491 6  -2900275.22221        13.500           0.719
  23678616.055    -2863899.068 6  -2163507.50421        12.500           0.688
  20708513.750     -701468.511 6   -538218.30122        19.250           1.813
  24094627.344    -1350525.874 5   -896622.54021        11.000           0.313
 91  6  3 17 17  0.0000000  0  5G18G 2G11G19G16
  20879166.891      919986.659 7    708367.65223        25.000           2.531
  23501717.344    -3890468.005 6  -2943506.70621        13.000           0.719
  23671101.680    -2903378.827 6  -2194270.88521        12.750           0.563
  20706773.055     -710628.553 6   -545356.00622        19.250           1.844
  24087652.625    -1387167.341 5   -925174.36221        10.250           0.281
 91  6  3 17 17 15.0000000  0  5G18G 2G11G19G16
  20882309.188      936492.412 7    721229.23822        25.000           2.469
  23491169.820    -3945916.956 6  -2986713.58921        13.750           0.688
  23663604.500    -2942772.496 6  -2224967.17821        12.500           0.563
  20705034.969     -719754.473 6   -552467.12522        19.500           1.813
  24080701.922    -1423707.375 5   -953647.14821         9.750           0.188
 91  6  3 17 17 30.0000000  0  5G18G 2G11G19G16
  20885464.469      953087.515 7    734160.44223        24.250           2.625
  23480624.414    -4001335.005 6  -3029896.39521        13.750           0.688
  23656126.984    -2982080.585 6  -2255596.79021        13.000           0.625
  20703305.047     -728847.257 6   -559552.41922        19.250           1.719
  24073767.578    -1460146.975 5   -982041.66121        10.000           0.281
 91  6  3 17 17 45.0000000  0  5G18G 2G11G19G16
  20888638.945      969760.782 7    747152.56323        25.000           2.719
  23470083.234    -4056732.852 6  -3073063.46221        13.500           0.719
  23648658.938    -3021313.752 6  -2286168.00521        12.250           0.531
  20701576.953     -737917.866 6   -566620.43322        19.250           1.656
  24066850.039    -1496496.836 5  -1010366.25721        10.250           0.313
 91  6  3 17 18  0.0000000  0  5G18G 2G11G19G16
  20891827.797      986513.080 7    760206.25923        25.750           2.781
  23459544.516    -4112109.177 6  -3116213.75821        13.250           0.625
  23641208.813    -3060470.503 6  -2316679.68521        12.250           0.531
  20699858.773     -746965.109 6   -573670.23822        18.750           1.719
  24059951.117    -1532755.516 5  -1038619.80921        10.000           0.250
 91  6  3 17 18 15.0000000  0  5G18G 2G11G19G16
  20895029.805     1003351.907 7    773327.38523        25.500           2.750
  23449010.953    -4167456.409 6  -3159341.39621        13.500           0.688
  23633774.656    -3099543.157 6  -2347125.82621        12.000           0.594
  20698138.852     -755981.709 6   -580696.16822        18.750           1.688
  24053066.906    -1568915.704 5  -1066796.60621         9.500           0.156
 91  6  3 17 18 30.0000000  0  5G18G 2G11G19G16
  20898252.422     1020278.450 7    786516.85923        26.000           2.719
  23438484.047    -4222773.271 6  -3202445.37021        13.500           0.719
  23626351.938    -3138530.002 5  -2377505.10621        11.500           0.594
  20696431.742     -764966.145 6   -587697.03122        18.250           1.844
  24046202.664    -1604975.872 5  -1094895.46521         9.250           0.313
 91  6  3 17 18 45.0000000  0  5G18G 2G11G19G16
  20901488.930     1037284.421 7    799768.22223        25.250           2.719
  23427960.336    -4278067.498 6  -3245531.70021        13.250           0.656
  23618950.586    -3177438.744 5  -2407823.52521        11.750           0.625
  20694725.461     -773926.654 6   -594679.25122        19.500           1.750
  24039360.117    -1640943.916 5  -1122922.53421         9.250           0.250
 91  6  3 17 19  0.0000000  0  5G18G 2G11G19G16
  20904742.039     1054382.833 7    813091.62723        25.500           2.875
  23417447.664    -4333325.964 6  -3288590.17221        13.500           0.906
  23611561.609    -3216256.073 5  -2438070.71721        11.750           0.563
  20693029.680     -782850.415 6   -601632.84322        19.250           1.688
  24032540.063    -1676806.739 5  -1150867.57621        10.250           0.219
 91  6  3 17 19 15.0000000  0  5G18G 2G11G19G16
  20908014.313     1071569.513 7    826483.80923        25.500           2.938
  23406940.125    -4388552.407 6  -3331623.67921        13.750           0.813
  23604193.102    -3254985.373 6  -2468249.30721        12.000           0.531
  20691335.641     -791741.178 6   -608560.71822        19.750           1.719
  24025731.898    -1712567.661 5  -1178733.26521         9.500           0.344
 91  6  3 17 19 30.0000000  0  5G18G 2G11G19G16
  20911298.445     1088840.247 7    839941.48323        24.750           2.969
  23396432.938    -4443750.992 6  -3374635.48721        14.000           0.906
  23596837.320    -3293630.753 5  -2498362.50621        11.750           0.500
  20689651.430     -800603.342 6   -615466.31222        19.500           1.656
  24018947.016    -1748230.857 5  -1206522.79021         9.000           0.281
 91  6  3 17 19 45.0000000  0  5G18G 2G11G19G16
  20914603.609     1106205.593 7    853472.88323        25.500           2.875
  23385935.055    -4498911.145 6  -3417617.35421        13.750           0.813
  23589502.625    -3332181.382 6  -2528401.86121        12.500           0.500
  20687971.023     -809426.378 7   -622341.41022        20.000           1.750
  24012181.078    -1783785.754 5  -1234227.92121         8.000           0.344
 91  6  3 17 20  0.0000000  0  5G18G 2G11G19G16
  20917922.836     1123650.504 7    867066.28523        25.250           2.906
  23375444.875    -4554047.233 6  -3460580.46421        13.750           0.844
  23582181.445    -3370651.452 6  -2558378.46421        12.750           0.563
  20686298.406     -818224.802 6   -629197.33322        19.750           1.750
  24005428.398    -1819246.613 5  -1261859.77521         7.500           0.188
 91  6  3 17 20 15.0000000  0  5G18G 2G11G19G16
  20921257.992     1141178.979 7    880724.79823        25.000           2.781
  23364960.766    -4609155.085 6  -3503521.55921        13.750           0.875
  23574877.320    -3409036.772 6  -2588289.01821        13.500           0.563
  20684628.938     -826994.725 7   -636031.04722        20.500           1.781
  23998702.633    -1854609.480 5  -1289415.27721         8.250           0.281
 91  6  3 17 20 30.0000000  0  5G18G 2G11G19G16
  20924610.617     1158791.852 7    894449.07423        25.250           2.875
  23354476.922    -4664233.644 6  -3546439.83921        13.000           0.781
  23567591.164    -3447335.963 6  -2618132.46921        13.750           0.688
  20682967.516     -835735.216 6   -642841.83322        19.500           1.656
  23991991.336    -1889873.280 5  -1316893.59021         9.000           0.281
 91  6  3 17 20 45.0000000  0  5G18G 2G11G19G16
  20927979.969     1176492.806 7    908241.99023        25.250           2.813
  23344001.258    -4719278.914 6  -3589332.19521        12.750           0.813
  23560319.023    -3485544.909 6  -2647905.58821        14.000           0.750
  20681308.203     -844442.689 7   -649626.87722        20.000           1.750
  23985300.320    -1925034.130 5  -1344291.68521         8.750           0.375
 91  6  3 17 21  0.0000000  0  5G18G 2G11G19G16
  20931364.258     1194279.876 7    922102.00423        25.250           2.875
  23333536.070    -4774292.712 6  -3632200.03121        13.500           0.750
  23553065.852    -3523665.232 6  -2677609.64721        14.250           0.719
  20679657.852     -853118.906 6   -656387.57622        19.500           1.563
  23978628.258    -1960093.505 5  -1371610.68721         8.500           0.344
 91  6  3 17 21 15.0000000  0  5G18G 2G11G19G16
  20934764.844     1212151.238 7    936027.70523        25.000           2.844
  23323070.695    -4829276.651 6  -3675044.58821        14.000           0.750
  23545827.906    -3561698.346 6  -2707245.75221        14.250           0.719
  20678009.992     -861765.570 6   -663125.24422        19.000           1.625
  23971976.625    -1995052.984 5  -1398851.85921         9.000           0.281
 91  6  3 17 21 30.0000000  0  5G18G 2G11G19G16
  20938182.938     1230111.464 7    950022.64223        25.250           2.844
  23312613.555    -4884225.837 6  -3717862.07021        13.500           0.844
  23538607.906    -3599639.080 6  -2736809.88421        14.500           0.625
  20676373.578     -870378.064 6   -669836.28922        18.000           1.688
  23965346.633    -2029907.598 5  -1426011.32621         9.750           0.219
 91  6  3 17 21 45.0000000  0  5G18G 2G11G19G16
  20941615.930     1248154.313 7    964081.96923        25.250           2.906
  23302162.023    -4939146.391 6  -3760657.24021        13.500           0.938
  23531403.547    -3637493.589 6  -2766306.78821        14.250           0.656
  20674737.945     -878962.886 6   -676525.76422        18.750           1.563
  23958732.867    -2064663.471 5  -1453093.85421        10.000           0.313
 91  6  3 17 22  0.0000000  0  5G18G 2G11G19G16
  20945066.133     1266284.727 7    978209.52923        24.750           2.813
  23291719.906    -4994032.985 6  -3803425.94821        14.000           0.813
  23524219.742    -3675256.201 6  -2795732.13821        14.250           0.563
  20673111.195     -887514.773 6   -683189.58622        18.750           1.688
  23952136.336    -2099315.303 5  -1480095.30821        10.000           0.313
 91  6  3 17 22 15.0000000  0  5G18G 2G11G19G16
  20948532.211     1284503.491 7    992405.92923        24.500           2.875
  23281280.859    -5048884.687 6  -3846167.46721        14.500           0.906
  23517048.141    -3712925.876 6  -2825085.03221        13.750           0.594
  20671490.695     -896032.906 6   -689827.10522        19.250           1.563
  23945564.555    -2133862.336 5  -1507015.09621         9.750           0.219
 91  6  3 17 22 30.0000000  0  5G18G 2G11G19G16
  20952017.266     1302812.995 7   1006673.03623        25.250           2.656
  23270849.625    -5103698.398 6  -3888879.38121        14.500           0.813
  23509899.820    -3750499.527 6  -2854363.11921        13.250           0.688
  20669879.297     -904514.451 6   -696436.10922        18.250           1.625
  23939010.578    -2168301.393 5  -1533850.73821         9.750           0.438
 91  6  3 17 22 45.0000000  0  5G18G 2G11G19G16
  20955517.063     1321209.425 7   1021007.87623        25.000           2.563
  23260426.086    -5158477.996 6  -3931564.72121        14.750           0.875
  23502766.727    -3787980.646 6  -2883569.09621        13.250           0.594
  20668269.305     -912963.168 6   -703019.53722        18.750           1.719
  23932473.398    -2202636.312 5  -1560605.22321         9.500           0.406
 91  6  3 17 23  0.0000000  0  5G18G 2G11G19G16
  20959037.117     1339700.803 7   1035416.69823        25.750           2.500
  23250011.219    -5213215.227 6  -3974217.03821        15.000           0.813
  23495652.672    -3825360.673 6  -2912696.30621        13.250           0.594
  20666669.250     -921371.144 6   -709571.21822        17.750           1.688
  23925962.820    -2236858.596 5  -1587271.94921        11.000           0.438
 91  6  3 17 23 15.0000000  0  5G18G 2G11G19G16
  20962573.688     1358282.682 7   1049896.04422        25.000           2.344
  23239602.109    -5267914.612 6  -4016839.88421        14.750           0.781
  23488560.461    -3862644.029 6  -2941748.18221        14.000           0.531
  20665075.305     -929742.962 6   -716094.71422        19.000           1.656
  23919473.875    -2270973.092 5  -1613854.69221        11.000           0.469
 91  6  3 17 23 30.0000000  0  5G18G 2G11G19G16
  20966125.820     1376953.434 7   1064444.64422        24.750           2.281
  23229197.180    -5322576.983 6  -4059433.87321        14.750           0.750
  23481480.883    -3899831.382 6  -2970725.25621        13.000           0.656
  20663493.234     -938079.897 6   -722591.03622        18.250           1.688
  23913000.992    -2304980.764 5  -1640354.20421        11.250           0.469
 91  6  3 17 23 45.0000000  0  5G18G 2G11G19G16
  20969694.000     1395708.239 7   1079058.74422        24.000           2.406
  23218802.953    -5377206.913 6  -4102002.59421        14.750           0.719
  23474421.016    -3936927.271 6  -2999631.06421        13.250           0.563
  20661908.070     -946386.539 6   -729063.75122        19.000           1.750
  23906548.492    -2338885.749 5  -1666773.68221        10.750           0.438
 91  6  3 17 24  0.0000000  0  5G18G 2G11G19G16
  20973280.719     1414556.703 7   1093745.81622        24.000           2.406
  23208415.641    -5431794.725 6  -4144538.48521        15.000           0.844
  23467382.594    -3973921.756 6  -3028457.83721        13.000           0.563
  20660336.055     -954653.301 6   -735505.38622        18.750           1.688
  23900116.375    -2372678.324 5  -1693105.59321        11.500           0.500
 91  6  3 17 24 15.0000000  0  5G18G 2G11G19G16
  20976885.586     1433498.944 7   1108505.95822        24.000           2.469
  23198034.617    -5486340.018 6  -4187041.24621        14.750           0.781
  23460364.289    -4010814.137 6  -3057205.05721        13.500           0.563
  20658769.281     -962879.957 6   -741915.78122        19.000           1.719
  23893708.422    -2406357.811 5  -1719349.37221        11.500           0.375
 91  6  3 17 24 30.0000000  0  5G18G 2G11G19G16
  20980507.547     1452531.709 7   1123336.64223        24.000           2.500
  23187659.742    -5540845.875 6  -4229513.28721        13.750           0.688
  23453361.523    -4047607.512 6  -3085875.15221        13.500           0.531
  20657214.656     -971069.758 6   -748297.45622        17.250           1.750
  23887322.625    -2439927.405 6  -1745507.53821        12.500           0.406
 91  6  3 17 24 45.0000000  0  5G18G 2G11G19G16
  20984146.688     1471660.700 7   1138242.31522        24.000           2.469
  23177297.617    -5595305.980 6  -4271949.67621        13.750           0.781
  23446377.094    -4084295.399 6  -3114463.00921        13.000           0.500
  20655660.336     -979216.646 6   -754645.69122        18.500           1.719
  23880954.797    -2473381.270 5  -1771575.49721        11.250           0.438
 91  6  3 17 25  0.0000000  0  5G18G 2G11G19G16
  20987808.195     1490883.521 7   1153221.09522        24.500           2.406
  23166945.250    -5649722.684 6  -4314352.23921        14.000           0.688
  23439417.813    -4120879.881 6  -3142970.32621        13.750           0.469
  20654120.672     -987322.997 6   -760962.33922        17.750           1.688
  23874610.484    -2506721.437 5  -1797554.87621        11.250           0.469
 91  6  3 17 25 15.0000000  0  5G18G 2G11G19G16
  20991482.406     1510205.741 7   1168277.32522        25.000           2.406
  23156596.914    -5704089.818 6  -4356716.18321        12.750           0.688
  23432477.930    -4157354.868 6  -3171392.31921        14.000           0.500
  20652585.320     -995382.977 6   -767242.85322        18.500           1.625
  23868289.914    -2539942.075 5  -1823441.10121        11.750           0.375
 91  6  3 17 25 30.0000000  0  5G18G 2G11G19G16
  20995179.711     1529622.487 7   1183407.22622        25.250           2.375
  23146261.516    -5758412.176 6  -4399045.21321        13.250           0.750
  23425553.898    -4193724.814 6  -3199732.44521        13.000           0.531
  20651061.234    -1003401.560 6   -773491.10922        18.250           1.750
  23861989.367    -2573047.683 6  -1849237.68621        12.250           0.406
 91  6  3 17 25 45.0000000  0  5G18G 2G11G19G16
  20998889.352     1549132.697 7   1198609.94822        24.250           2.406
  23135930.852    -5812690.768 6  -4441340.16421        14.250           0.719
  23418654.930    -4229990.518 6  -3227991.35521        13.000           0.406
  20649539.359    -1011379.740 6   -779707.87522        18.500           1.781
  23855708.539    -2606039.306 5  -1874945.45821        11.750           0.375
 91  6  3 17 26  0.0000000  0  5G18G 2G11G19G16
  21002619.969     1568726.105 7   1213877.50422        24.750           2.219
  23125608.992    -5866935.607 6  -4483608.81621        14.250           0.781
  23411772.445    -4266161.613 6  -3256176.52421        13.250           0.375
  20648030.063    -1019327.630 6   -785901.04722        18.000           1.656
  23849449.664    -2638926.751 5  -1900572.04921        11.500           0.406
 91  6  3 17 26 15.0000000  0  5G18G 2G11G19G16
  21006366.281     1588415.541 7   1229219.88522        24.750           2.188
  23115293.883    -5921133.756 6  -4525841.07321        14.000           0.781
  23404908.477    -4302225.201 6  -3284277.95021        13.000           0.406
  20646523.336    -1027232.655 6   -792060.81522        18.250           1.813
  23843214.844    -2671697.344 5  -1926107.59921        11.000           0.438
 91  6  3 17 26 30.0000000  0  5G18G 2G11G19G16
  21010130.055     1608192.708 7   1244630.62922        24.250           2.313
  23104990.148    -5975293.005 6  -4568043.02021        13.750           0.625
  23398066.078    -4338189.035 6  -3312301.64521        13.500           0.500
  20645027.922    -1035102.742 6   -798193.35622        17.250           1.906
  23837001.234    -2704359.012 5  -1951558.26421        11.250           0.469
 91  6  3 17 26 45.0000000  0  5G18G 2G11G19G16
  21013910.773     1628064.866 7   1260115.39422        24.000           2.406
  23094692.023    -6029405.519 6  -4610208.55621        13.250           0.688
  23391242.813    -4374045.006 6  -3340241.29021        13.250           0.500
  20643538.508    -1042930.285 6   -804292.74222        19.000           1.719
  23830808.305    -2736903.721 5  -1976917.79621        10.750           0.438
 91  6  3 17 27  0.0000000  0  6G18G 2G11G19G16G 6
  21017710.133     1648032.210 7   1275674.32823        24.250           2.625
  23084403.359    -6083471.240 6  -4652337.62421        13.500           0.906
  23384436.961    -4409792.641 6  -3368096.51521        13.250           0.563
  20642056.961    -1050714.936 6   -810358.71622        18.250           1.688
  23824637.648    -2769330.970 5  -2002185.79921        10.500           0.500
  24395412.953          -0.51815                         8.500
 91  6  3 17 27 15.0000000  0  6G18G 2G11G19G16G 6
  21021535.500     1668124.850 7   1291330.88923        24.500           2.594
  23074129.078    -6137459.756 6  -4694406.53721        13.500           0.906
  23377660.438    -4445401.594 6  -3395843.68721        13.500           0.406
  20640587.813    -1058426.732 6   -816367.91722        19.000           1.719
  23818493.609    -2801610.719 5  -2027338.88321        11.000           0.406
  24386733.117      -45606.638 5                         8.500
 91  6  3 17 27 30.0000000  0  6G18G 2G11G19G16G 6
  21025378.367     1688319.079 7   1307066.61022        24.000           2.469
  23063867.242    -6191394.302 6  -4736433.38521        15.000           0.938
  23370911.297    -4480895.099 6  -3423500.88621        13.750           0.531
  20639133.047    -1066089.292 6   -822338.76422        18.250           1.750
  23812378.609    -2833766.251 5  -2052395.15921        10.750           0.375
  24378057.242      -91195.938 5                         7.750
 91  6  3 17 27 45.0000000  0  6G18G 2G11G19G16G 6
  21029238.805     1708609.179 7   1322877.04322        23.500           2.438
  23053613.625    -6245280.423 6  -4778422.49421        15.500           0.875
  23364176.609    -4516278.265 6  -3451072.10821        13.250           0.406
  20637681.008    -1073708.076 6   -828275.48122        19.250           1.750
  23806280.180    -2865802.888 5  -2077358.80221        10.500           0.344
  24369384.398     -136773.910 5                         7.750
 91  6  3 17 28  0.0000000  0  6G18G 2G11G19G16G 6
  21033117.336     1728990.269 7   1338758.37322        24.000           2.375
  23043368.133    -6299122.675 6  -4820377.44221        16.250           0.875
  23357463.461    -4551555.677 6  -3478560.93621        13.750           0.500
  20636238.039    -1081287.846 6   -834181.81122        17.750           1.719
  23800203.078    -2897725.379 5  -2102233.47821         9.500           0.344
  24360712.766     -182345.547 5                         7.500
 91  6  3 17 28 15.0000000  0  6G18G 2G11G19G16G 6
  21037013.000     1749464.976 7   1354712.66122        24.750           2.375
  23033131.539    -6352918.611 6  -4862296.29721        16.000           0.938
  23350771.344    -4586724.622 6  -3505965.24321        13.750           0.406
  20634802.727    -1088826.225 6   -840055.88322        18.000           1.750
  23794150.563    -2929531.259 5  -2127017.30221         9.000           0.469
  24352040.609     -227908.334 5        -0.47331         7.500           0.250
 91  6  3 17 28 30.0000000  0  6G18G 2G11G19G16G 6
  21040927.188     1770027.619 7   1370735.46423        25.250           2.500
  23022901.563    -6406673.179 6  -4904182.91021        15.500           0.844
  23344097.984    -4621789.940 6  -3533288.81321        14.750           0.438
  20633379.734    -1096328.558 6   -845901.86522        16.750           1.750
  23788118.031    -2961225.620 5  -2151714.19021         8.250           0.281
  24343372.891     -273467.623 5    -35501.15321         7.750           0.250
 91  6  3 17 28 45.0000000  0  6G18G 2G11G19G16G 6
  21044856.563     1790687.364 7   1386833.92522        24.000           2.438
  23012681.289    -6460377.033 6  -4946029.99921        16.000           0.906
  23337448.367    -4656742.043 6  -3560524.16121        15.000           0.469
  20631956.531    -1103785.392 6   -851712.39922        18.250           1.719
  23782111.977    -2992798.683 5  -2176316.58821         8.250           0.344
  24334706.063     -319014.110 4    -70991.87921         7.000           0.313
 91  6  3 17 29  0.0000000  0  6G18G 2G11G19G16G 6
  21048806.398     1811441.913 7   1403006.26323        24.000           2.656
  23002471.375    -6514032.139 6  -4987839.10821        16.000           0.938
  23330819.070    -4691582.787 6  -3587672.73621        15.000           0.531
  20630547.352    -1111198.831 6   -857489.11922        17.000           1.781
  23776129.438    -3024252.621 5  -2200826.15621         9.000           0.344
  24326040.086     -364550.049 4   -106474.37521         6.750           0.219
 91  6  3 17 29 15.0000000  0  6G18G 2G11G19G16G 6
  21052774.750     1832294.650 7   1419255.11423        24.000           2.594
  22992272.672    -6567634.657 6  -5029607.23621        16.000           1.000
  23324207.555    -4726308.337 6  -3614731.54921        14.500           0.688
  20629145.000    -1118565.548 6   -863229.42622        18.250           1.750
  23770163.383    -3055583.869 5  -2225240.14421         9.750           0.375
  24317375.461     -410071.935 3   -141945.93621         6.000           0.313
 91  6  3 17 29 30.0000000  0  6G18G 2G11G19G16G 6
  21056762.828     1853246.774 7   1435581.41223        24.000           2.531
  22982080.852    -6621183.140 6  -5071333.25521        16.000           1.000
  23317623.648    -4760916.906 6  -3641699.22821        14.750           0.625
  20627752.938    -1125884.050 6   -868932.16022        17.750           1.656
  23764227.633    -3086790.736 5  -2249557.22021        10.000           0.375
  24308716.734     -455578.369 3   -177405.44421         5.750           0.313
 91  6  3 17 29 45.0000000  0  6G18G 2G11G19G16G 6
  21060770.008     1874297.920 7   1451984.86423        24.000           2.594
  22971900.563    -6674677.872 6  -5113017.41021        16.250           0.969
  23311058.914    -4795408.575 6  -3668575.79921        14.750           0.688
  20626368.063    -1133154.491 6   -874597.45622        18.500           1.656
  23758307.531    -3117873.498 5  -2273777.56821         9.000           0.469
  24300058.586     -501069.727 3   -212853.19621         6.000           0.375
 91  6  3 17 30  0.0000000  0  6G18G 2G11G19G16G 6
  21064791.711     1895446.807 7   1468464.47223        23.250           2.688
  22961731.820    -6728120.086 6  -5154660.63421        16.750           0.813
  23304519.563    -4829784.429 6  -3695362.15021        15.000           0.656
  20624994.797    -1140378.422 6   -880226.50422        17.750           1.750
  23752422.094    -3148833.411 5  -2297902.17121         9.500           0.438
  24291411.891     -546547.384 4   -248290.25321         7.000           0.250
 91  6  3 17 30 15.0000000  0  6G18G 2G11G19G16G 6
  21068835.484     1916685.307 7   1485013.91923        24.250           2.594
  22951568.406    -6781517.378 6  -5196268.86221        16.000           0.906
  23297995.477    -4864051.941 6  -3722064.05221        15.000           0.625
  20623625.883    -1147563.575 6   -885825.33922        18.250           1.750
  23746552.844    -3179678.001 5  -2321936.94421        10.250           0.500
  24282752.633     -592019.209 4   -283722.82421         6.250           0.281
 91  6  3 17 30 30.0000000  0  6G18G 2G11G19G16G 6
  21072894.156     1938019.535 7   1501637.95723        24.500           2.500
  22941419.930    -6834863.329 6  -5237837.06621        15.750           0.844
  23291501.414    -4898204.445 6  -3748676.35821        15.750           0.750
  20622268.781    -1154703.718 6   -891389.09422        17.000           1.750
  23740704.742    -3210400.877 5  -2345876.86821        10.250           0.469
  24274100.109     -637478.983 4   -319145.96721         6.250           0.344
 91  6  3 17 30 45.0000000  0  6G18G 2G11G19G16G 6
  21076971.188     1959438.468 7   1518328.00023        24.000           2.531
  22931276.898    -6888168.627 6  -5279373.60521        16.250           0.875
  23285018.195    -4932252.670 6  -3775207.41321        15.000           0.781
  20620913.938    -1161809.811 6   -896926.31022        17.500           1.781
  23734881.414    -3241012.888 5  -2369730.39521         9.750           0.531
  24265446.688     -682937.649 4   -354568.23621         6.250           0.281
 91  6  3 17 31  0.0000000  0  6G18G 2G11G19G16G 6
  21081064.633     1980954.081 7   1535093.37623        23.500           2.531
  22921138.852    -6941421.053 6  -5320868.95021        15.750           0.906
  23278562.844    -4966184.210 6  -3801647.54521        15.250           0.688
  20619574.016    -1168869.814 6   -902427.62222        17.250           1.781
  23729081.070    -3271501.590 5  -2393487.83221         9.750           0.313
  24256803.555     -728383.230 4   -389980.32321         6.750           0.344
 91  6  3 17 31 15.0000000  0  6G18G 2G11G19G16G 6
  21085177.305     2002562.347 7   1551930.94423        23.500           2.563
  22911015.500    -6994624.452 6  -5362326.10021        16.500           0.906
  23272127.633    -5000002.581 6  -3827999.47921        15.250           0.719
  20618236.461    -1175887.507 6   -907895.97122        18.250           1.844
  23723297.297    -3301870.721 5  -2417152.10121        10.000           0.531
  24248155.688     -773819.508 4   -425385.17921         6.250           0.250
 91  6  3 17 31 30.0000000  0  6G18G 2G11G19G16G 6
  21089305.805     2024260.927 7   1568838.89023        23.000           2.719
  22900901.477    -7047780.935 6  -5403746.66921        17.250           0.938
  23265712.289    -5033709.890 6  -3854264.88821        15.000           0.750
  20616910.141    -1182865.128 6   -913333.07822        18.000           1.781
  23717540.492    -3332122.633 5  -2440725.03821        10.000           0.563
  24239509.125     -819248.864 3   -460784.60921         5.500           0.250
 91  6  3 17 31 45.0000000  0  6G18G 2G11G19G16G 6
  21093452.617     2046052.207 7   1585819.06123        23.250           2.531
  22890794.063    -7100887.870 6  -5445128.63521        16.500           0.906
  23259319.875    -5067303.336 6  -3880441.58221        15.250           0.688
  20615589.305    -1189800.188 6   -918737.03822        18.250           1.656
  23711808.398    -3362254.776 5  -2464204.64721        10.500           0.500
  24230868.453     -864668.844 4   -496176.76421         7.000           0.188
 91  6  3 17 32  0.0000000  0  6G18G 2G11G19G16G 6
  21097618.031     2067938.333 7   1602873.15223        23.500           2.625
  22880700.242    -7153942.750 6  -5486470.03321        16.750           0.938
  23252947.891    -5100780.255 6  -3906527.47621        15.000           0.781
  20614278.852    -1196690.545 6   -924106.15822        17.250           1.719
  23706099.609    -3392264.720 5  -2487589.02021        11.000           0.375
  24222225.281     -910077.240 4   -531559.84221         7.000           0.281
 91  6  3 17 32 15.0000000  0  6G18G 2G11G19G16G 6
  21101797.844     2089914.903 7   1619997.71023        23.000           2.688
  22870612.258    -7206949.634 6  -5527774.04521        16.000           0.813
  23246599.500    -5134144.510 6  -3932525.57921        15.500           0.750
  20612973.836    -1203540.350 6   -929443.67222        18.000           1.719
  23700407.727    -3422156.219 5  -2510881.13421        10.250           0.500
  24213586.258     -955478.132 4   -566937.10921         6.500           0.219
 91  6  3 17 32 30.0000000  0  6G18G 2G11G19G16G 6
  21106001.992     2111990.217 7   1637199.20623        24.000           2.594
  22860535.313    -7259900.134 6  -5569034.12821        15.750           0.969
  23240275.188    -5167387.527 6  -3958429.21221        15.750           0.781
  20611681.734    -1210341.196 6   -934743.04222        17.500           1.844
  23694745.422    -3451921.089 5  -2534074.54721        10.000           0.563
  24204950.656    -1000863.308 4   -602302.13021         7.000           0.344
 91  6  3 17 32 44.9990000  0  6G18G 2G11G19G16G 6
  21110217.659     2134158.198 7   1654472.91922        23.750           2.438
  22850471.058    -7312794.853 6  -5610250.73121        16.000           1.063
  23233970.417    -5200511.139 6  -3984239.80521        15.250           0.750
  20610395.065    -1217096.842 6   -940007.18822        18.250           1.688
  23689106.472    -3481561.451 5  -2557170.94021         9.750           0.500
  24196316.269    -1046233.940 4   -637655.82521         6.750           0.188
 91  6  3 17 32 59.9990000  0  6G18G 2G11G19G16G 6
  21114454.550     2156422.647 7   1671821.80423        23.250           2.531
  22840414.745    -7365639.783 6  -5651428.54421        15.750           1.000
  23227689.011    -5233518.649 6  -4009959.93721        15.250           0.750
  20609120.706    -1223807.362 6   -945236.17622        17.750           1.688
  23683487.456    -3511080.151 5  -2580172.54421         9.250           0.313
  24187690.628    -1091595.390 5   -673002.33221         8.000           0.250
 91  6  3 17 33 14.9990000  0  6G18G 2G11G19G16G 6
  21118710.526     2178784.597 7   1689246.66722        22.500           2.375
  22830369.433    -7418428.704 6  -5692562.69921        15.750           1.094
  23221432.519    -5266405.012 6  -4035585.65721        16.250           0.813
  20607849.659    -1230469.871 6   -950427.75322        18.500           1.719
  23677895.542    -3540472.697 5  -2603075.87021         9.500           0.375
  24179057.870    -1136942.083 5   -708337.38021         7.500           0.125
 91  6  3 17 33 29.9990000  0  6G18G 2G11G19G16G 6
  21122986.198     2201248.607 7   1706751.04623        23.000           2.594
  22820334.284    -7471156.582 6  -5733649.30421        15.750           1.063
  23215200.386    -5299164.874 6  -4061112.80521        16.250           0.719
  20606591.823    -1237079.382 6   -955578.03422        18.000           1.688
  23672325.409    -3569733.985 5  -2625876.88221         9.250           0.406
  24170431.605    -1182269.214 5   -743657.15321         8.000           0.125
 91  6  3 17 33 44.9990000  0  6G18G 2G11G19G16G 6
  21127278.050     2223807.622 7   1724329.45122        22.500           2.375
  22810312.776    -7523830.096 6  -5774693.53521        16.500           1.125
  23208985.144    -5331804.846 6  -4086546.51421        15.500           0.781
  20605342.206    -1243642.678 6   -960692.30622        17.500           1.625
  23666782.058    -3598870.701 5  -2648580.83021         8.500           0.344
  24161808.737    -1227583.626 5   -778967.01421         8.000           0.125
 91  6  3 17 33 59.9990000  0  6G18G 2G11G19G16G 6
  21131590.425     2246468.409 7   1741987.15722        22.750           2.438
  22800297.784    -7576442.465 6  -5815690.12621        16.000           1.156
  23202800.597    -5364318.033 6  -4111881.43421        16.250           0.813
  20604106.081    -1250153.177 6   -965765.43122        16.500           1.594
  23661263.651    -3627875.925 5  -2671182.32121         9.750           0.344
  24153189.855    -1272878.646 5   -814261.79221         8.500           0.156
 91  6  3 17 34 14.9990000  0  6G18G 2G11G19G16G 6
  21135922.659     2269229.400 7   1759722.95322        22.750           2.313
  22790300.355    -7628994.970 6  -5856640.07421        16.250           1.063
  23196635.487    -5396705.445 6  -4137118.36221        15.500           0.719
  20602873.198    -1256612.233 6   -970798.47222        17.250           1.688
  23655765.823    -3656750.971 5  -2693682.38921        10.500           0.281
  24144573.386    -1318155.685 5   -849542.55521         8.250           0.281
 91  6  3 17 34 29.9990000  0  6G18G 2G11G19G16G 6
  21140273.136     2292098.117 7   1777542.69022        22.500           2.281
  22780309.214    -7681479.545 6  -5897537.09321        15.500           1.156
  23190497.300    -5428958.997 6  -4162250.98721        15.500           0.781
  20601658.417    -1263011.927 6   -975785.25722        17.500           1.594
  23650298.394    -3685488.058 5  -2716074.97121        10.500           0.313
  24135961.378    -1363406.957 5   -884803.22821         8.750           0.250
 91  6  3 17 34 44.9990000  0  6G18G 2G11G19G16G 6
  21144644.198     2315065.771 7   1795439.52022        22.500           2.344
  22770336.034    -7733904.803 6  -5938387.88921        15.500           1.281
  23184384.480    -5461087.060 6  -4187285.81921        15.500           0.688
  20600448.519    -1269360.992 6   -980732.59622        18.000           1.500
  23644856.401    -3714095.866 5  -2738366.77721        10.000           0.313
  24127353.581    -1408641.299 5   -920050.71021         8.250           0.313
 91  6  3 17 34 59.9990000  0  6G18G 2G11G19G16G 6
  21149035.253     2338141.341 7   1813420.43522        23.000           2.281
  22760371.636    -7786261.668 6  -5979185.38421        15.500           1.250
  23178295.683    -5493080.409 6  -4212215.67921        15.750           0.719
  20599254.425    -1275650.583 6   -985633.59322        17.500           1.563
  23639438.401    -3742565.365 5  -2760550.81621        10.000           0.438
  24118754.737    -1453849.705 5   -955278.00121         8.250           0.250
 91  6  3 17 35 14.9990000  0  6G18G 2G11G19G16G 6
  21153446.659     2361320.174 7   1831481.82022        22.500           2.250
  22750422.612    -7838554.384 6  -6019932.90021        16.250           1.156
  23172235.800    -5524943.112 6  -4237043.73821        16.250           0.750
  20598064.933    -1281884.983 6   -990491.58122        18.000           1.688
  23634046.190    -3770900.527 5  -2782630.19121         9.750           0.313
  24110150.480    -1499036.587 5   -990488.51721         7.750           0.375
 91  6  3 17 35 29.9990000  0  6G18G 2G11G19G16G 6
  21157877.972     2384608.038 7   1849628.15522        23.000           2.156
  22740482.167    -7890777.218 6  -6060625.96521        16.000           1.156
  23166194.972    -5556669.328 6  -4261765.43721        15.500           0.656
  20596892.081    -1288058.415 6   -995302.05722        17.250           1.750
  23628685.503    -3799095.644 5  -2804600.42721        10.000           0.469
  24101558.065    -1544196.371 5  -1025677.90821         7.500           0.375
 91  6  3 17 35 44.9990000  0  6G18G 2G11G19G16G 6
  21162331.792     2408006.308 7   1867860.53322        23.000           2.438
  22730557.034    -7942928.180 6  -6101263.02421        16.000           1.031
  23160184.667    -5588256.937 6  -4286379.14021        14.500           0.594
  20595725.980    -1294169.209 6  -1000063.72422        17.750           1.813
  23623338.331    -3827148.820 5  -2826460.06521         8.750           0.313
  24092971.480    -1589327.264 5  -1060844.78521         8.000           0.313
 91  6  3 17 35 59.9990000  0  6G18G 2G11G19G16G 6
  21166803.394     2431509.069 7   1886174.32122        23.500           2.313
  22720648.362    -7995012.779 6  -6141848.36921        16.250           1.219
  23154198.378    -5619711.436 6  -4310889.12021        14.750           0.656
  20594579.526    -1300223.264 6  -1004781.18322        17.000           1.719
  23618029.058    -3855065.396 5  -2848213.24321         8.250           0.406
  24084388.370    -1634435.076 5  -1095993.63521         8.250           0.313
 91  6  3 17 36 14.9990000  0  6G18G 2G11G19G16G 6
  21171295.214     2455119.872 7   1904572.29822        22.750           2.344
  22710749.862    -8047027.312 6  -6182379.11521        15.750           1.156
  23148238.105    -5651028.921 6  -4335292.34321        14.750           0.781
  20593437.589    -1306216.777 6  -1009451.46622        18.500           1.750
  23612742.894    -3882841.693 5  -2869857.12821         9.000           0.469
  24075808.565    -1679516.140 5  -1131121.71221         7.750           0.313
 91  6  3 17 36 29.9990000  0  6G18G 2G11G19G16G 6
  21175813.175     2478849.398 7   1923062.79622        22.750           2.313
  22700867.737    -8098960.948 6  -6222846.81621        16.000           1.094
  23142306.214    -5682198.427 6  -4359580.24121        14.500           0.656
  20592309.620    -1312138.947 6  -1014066.16422        18.250           1.719
  23607488.519    -3910467.216 5  -2891383.53221        10.000           0.438
  24067237.480    -1724559.827 4  -1166220.67421         7.250           0.219
 91  6  3 17 36 44.9990000  0  6G18G 2G11G19G16G 6
  21180349.464     2502697.278 7   1941645.51122        22.500           2.250
  22690999.503    -8150813.526 6  -6263251.36021        16.000           1.219
  23136406.534    -5713219.744 6  -4383752.66921        15.250           0.750
  20591194.644    -1317989.863 6  -1018625.33422        17.750           1.906
  23602255.894    -3937942.091 5  -2912792.56321        10.250           0.469
  24058671.839    -1769566.111 5  -1201290.43521         7.500           0.344
 91  6  3 17 36 59.9990000  0  6G18G 2G11G19G16G 6
  21184913.433     2526684.340 7   1960336.68122        23.250           2.250
  22681148.901    -8202563.834 6  -6303576.21721        15.500           1.156
  23130532.956    -5744071.546 6  -4407792.99521        14.500           0.719
  20590104.253    -1323748.428 6  -1023112.54222        16.500           1.938
  23597061.683    -3965244.711 5  -2934067.32421        10.000           0.469
  24050123.284    -1814514.171 5  -1236314.86621         7.750           0.219
 91  6  3 17 37 14.9990000  0  6G18G 2G11G19G16G 6
  21189502.964     2550799.736 7   1979127.85222        22.750           2.313
  22671321.698    -8254222.589 6  -6343829.73421        16.000           1.125
  23124691.980    -5774764.205 6  -4431709.32821        14.000           0.688
  20589017.722    -1329425.355 6  -1027536.13822        17.750           1.813
  23591897.659    -3992385.799 5  -2955216.25021        10.250           0.469
  24041576.417    -1859414.633 5  -1271302.18021         8.500           0.188
 91  6  3 17 37 29.9990000  0  6G18G 2G11G19G16G 6
  21194114.269     2575033.072 7   1998010.91422        23.000           2.156
  22661504.565    -8305800.315 6  -6384020.10721        16.250           1.125
  23118883.433    -5805308.102 6  -4455509.73921        14.750           0.781
  20587953.972    -1335031.328 6  -1031904.44422        16.500           1.781
  23586761.519    -4019376.086 5  -2976247.65221        10.000           0.406
  24033038.644    -1904278.219 5  -1306260.77821         8.250           0.344
 91  6  3 17 37 44.9990000  0  6G18G 2G11G19G16G 6
  21198745.511     2599377.315 7   2016980.40122        23.500           2.250
  22651705.042    -8357303.020 6  -6424152.02021        16.000           1.125
  23113094.753    -5835709.291 6  -4479198.95321        13.750           0.781
  20586897.081    -1340572.589 6  -1036222.31422        17.500           1.875
  23581653.698    -4046221.481 5  -2997166.15621        10.250           0.406
  24024509.105    -1949111.222 5  -1341195.55221         8.000           0.281
 91  6  3 17 37 59.9990000  0  6G18G 2G11G19G16G 6
  21203400.198     2623829.427 7   2036033.94622        23.500           2.125
  22641919.159    -8408733.733 6  -6464227.84421        16.000           1.188
  23107336.300    -5865970.660 6  -4502779.19421        14.250           0.750
  20585856.448    -1346052.269 6  -1040492.20622        17.750           1.844
  23576575.800    -4072924.983 5  -3017974.08521        10.250           0.469
  24015979.753    -1993916.793 5  -1376108.93821         8.000           0.219
 91  6  3 17 38 14.9990000  0  6G18G 2G11G19G16G 6
  21208076.714     2648394.587 7   2055175.58522        24.500           2.219
  22632145.612    -8460087.219 6  -6504243.49321        16.000           1.313
  23101606.878    -5896086.835 6  -4526246.30821        14.500           0.625
  20584823.925    -1351465.518 6  -1044710.33922        18.250           1.844
  23571519.081    -4099481.325 5  -3038667.37121        10.000           0.500
  24007455.815    -2038689.947 4  -1410997.05621         7.000           0.281
 91  6  3 17 38 29.9990000  0  6G18G 2G11G19G16G 6
  21212770.183     2673067.385 7   2074401.09222        24.250           2.344
  22622386.558    -8511368.587 6  -6544202.93721        16.250           1.406
  23095904.730    -5926062.547 6  -4549603.96921        15.000           0.719
  20583808.456    -1356817.219 6  -1048880.51322        17.500           1.750
  23566492.667    -4125895.868 5  -3059250.13921        10.000           0.406
  23998947.581    -2083435.734 5  -1445863.86221         7.500           0.156
 91  6  3 17 38 44.9990000  0  6G18G 2G11G19G16G 6
  21217488.183     2697854.607 7   2093715.76222        24.250           2.344
  22612644.675    -8562570.577 6  -6584100.53221        16.750           1.313
  23090225.503    -5955890.554 6  -4572846.53421        14.500           0.656
  20582801.667    -1362100.281 6  -1052997.19222        18.250           1.719
  23561493.417    -4152161.363 5  -3079716.78421        10.750           0.531
  23990437.855    -2128147.173 5  -1480703.90021         8.000           0.188
 91  6  3 17 38 59.9990000  0  6G18G 2G11G19G16G 6
  21222223.425     2722745.103 7   2113110.90222        24.250           2.313
  22602914.362    -8613704.055 6  -6623944.74521        16.750           1.250
  23084575.534    -5985581.659 6  -4595982.40721        14.750           0.719
  20581809.730    -1367325.739 6  -1057068.99222        17.000           1.906
  23556523.761    -4178288.663 5  -3100075.74721        11.250           0.500
  23981930.886    -2172835.278 5  -1515525.76421         7.500           0.219
 91  6  3 17 39 14.9990000  0  6G18G 2G11G19G16G 6
  21226980.190     2747736.108 7   2132584.36223        23.750           2.500
  22593197.690    -8664771.756 6  -6663737.69121        17.750           1.281
  23078951.644    -6015138.336 6  -4619013.55021        14.500           0.656
  20580823.261    -1372496.401 6  -1061098.09322        17.500           1.938
  23551575.464    -4204280.548 5  -3120329.19721        11.500           0.438
  23973429.573    -2217502.959 5  -1550331.69021         7.750           0.250
 91  6  3 17 39 29.9990000  0  6G18G 2G11G19G16G 6
  21231756.073     2772829.064 7   2152137.26522        23.500           2.375
  22583493.792    -8715771.905 6  -6703478.00121        18.000           1.219
  23073352.230    -6044558.629 6  -4641938.41521        15.000           0.688
  20579850.253    -1377610.618 6  -1065083.21222        17.250           1.906
  23546657.026    -4230135.206 5  -3140475.70221        11.500           0.469
  23964934.933    -2262148.586 5  -1585120.44721         8.000           0.250
 91  6  3 17 39 44.9990000  0  6G18G 2G11G19G16G 6
  21236546.878     2798018.357 7   2171765.22923        22.750           2.500
  22573795.651    -8766709.563 6  -6743169.63621        17.000           1.219
  23067779.136    -6073847.684 6  -4664761.01621        15.000           0.813
  20578887.144    -1382673.775 6  -1069028.54022        18.250           1.813
  23541763.706    -4255857.887 6  -3160519.34921        12.250           0.438
  23956444.730    -2306777.466 5  -1619896.17021         8.250           0.313
 91  6  3 17 39 59.9990000  0  6G18G 2G11G19G16G 6
  21241360.480     2823310.311 7   2191473.19422        23.500           2.469
  22564119.128    -8817578.137 6  -6782807.42821        17.250           1.219
  23062232.050    -6102998.699 6  -4687476.04021        15.250           0.844
  20577936.792    -1387679.105 6  -1072928.80922        17.500           1.938
  23536891.144    -4281441.817 6  -3180454.90221        12.250           0.469
  23947955.230    -2351383.134 5  -1654653.78721         8.250           0.281
 91  6  3 17 40 14.9990000  0  6G18G 2G11G19G16G 6
  21246193.065     2848701.494 7   2211258.47922        23.250           2.438
  22554449.831    -8868380.787 6  -6822393.84921        16.750           1.406
  23056711.511    -6132014.817 6  -4710085.95321        14.750           0.719
  20576992.167    -1392629.950 6  -1076786.62022        18.500           1.875
  23532052.886    -4306890.243 6  -3200284.87521        12.000           0.250
  23939469.362    -2395968.854 4  -1689395.85121         7.000           0.250
 91  6  3 17 40 29.9990000  0  6G18G 2G11G19G16G 6
  21251042.487     2874191.508 7   2231120.77422        22.250           2.344
  22544795.808    -8919117.511 6  -6861928.90721        17.250           1.375
  23051214.097    -6160895.923 6  -4732590.65021        15.000           0.750
  20576062.323    -1397526.577 6  -1080602.17722        18.000           1.875
  23527233.370    -4332203.552 5  -3220009.53521        11.500           0.375
  23930991.261    -2440535.000 5  -1724122.68821         8.000           0.281
 91  6  3 17 40 44.9990000  0  6G18G 2G11G19G16G 6
  21255910.323     2899773.347 7   2251054.61622        22.500           2.344
  22535153.128    -8969795.094 6  -6901417.87421        18.000           1.156
  23045742.237    -6189648.684 6  -4754995.36321        14.500           0.750
  20575139.792    -1402375.835 6  -1084380.82622        18.250           1.844
  23522438.526    -4357388.340 5  -3239634.04721        11.500           0.344
  23922513.644    -2485088.499 5  -1758839.65621         8.500           0.281
 91  6  3 17 40 59.9990000  0  6G18G 2G11G19G16G 6
  21260800.058     2925460.097 7   2271070.22022        22.750           2.406
  22525522.112    -9020400.503 6  -6940850.59821        17.750           1.094
  23040300.440    -6218259.768 6  -4777289.65521        15.250           0.750
  20574231.065    -1407164.758 6  -1088112.47022        16.000           1.781
  23517675.933    -4382431.479 6  -3259148.20321        12.000           0.438
  23914041.620    -2529616.209 5  -1793536.53521         9.250           0.375
 91  6  3 17 41 14.9990000  0  6G18G 2G11G19G16G 6
  21265704.925     2951240.995 7   2291159.17522        22.000           2.375
  22515905.620    -9070944.071 6  -6980235.14821        17.750           1.156
  23034879.331    -6246739.317 6  -4799481.46821        15.000           0.781
  20573325.237    -1411903.675 6  -1091805.13822        17.750           1.844
  23512935.230    -4407343.118 5  -3278559.89321        11.500           0.344
  23905567.808    -2574128.731 5  -1828221.56821         9.250           0.375
 91  6  3 17 41 29.9990000  0  6G18G 2G11G19G16G 6
  21270629.128     2977119.056 7   2311323.85422        21.500           2.469
  22506299.917    -9121422.339 6  -7019568.81121        18.250           1.156
  23029484.339    -6275083.902 6  -4821568.09521        14.500           0.750
  20572435.323    -1416589.356 6  -1095456.32722        16.500           1.750
  23508220.862    -4432120.023 6  -3297866.59621        12.500           0.375
  23897104.167    -2618622.738 5  -1862892.18521         9.250           0.344
 91  6  3 17 41 44.9990000  0  6G18G 2G11G19G16G 6
  21275574.862     3003095.261 7   2331564.99422        22.250           2.406
  22496706.956    -9171834.138 6  -7058850.67721        18.000           1.094
  23024116.925    -6303292.378 6  -4843548.68221        14.750           0.813
  20571549.675    -1421220.871 6  -1099065.31222        17.250           1.844
  23503531.808    -4456761.475 5  -3317067.72021        11.750           0.313
  23888637.144    -2663097.404 5  -1897547.72921         9.250           0.313
 91  6  3 17 41 59.9990000  0  6G18G 2G11G19G16G 6
  21280533.089     3029163.076 7   2351877.51322        22.500           2.406
  22487126.620    -9222185.642 6  -7098085.55721        16.750           1.125
  23018773.339    -6331370.645 6  -4865427.80421        15.000           0.844
  20570680.355    -1425804.494 6  -1102636.98222        17.000           1.781
  23498866.753    -4481273.534 5  -3336168.03921        11.500           0.406
  23880177.644    -2707558.939 5  -1932193.03821         9.750           0.281
 91  6  3 17 42 14.9990000  0  6G18G 2G11G19G16G 6
  21285513.901     3055325.154 7   2372263.49922        23.250           2.313
  22477556.605    -9272473.922 6  -7137271.17921        16.500           1.125
  23013456.831    -6359315.609 6  -4887203.03721        14.750           0.844
  20569815.823    -1430337.285 6  -1106169.03622        17.500           1.781
  23494226.440    -4505653.072 5  -3355165.08721        11.500           0.344
  23871724.644    -2752004.581 5  -1966825.97221         9.500           0.344
 91  6  3 17 42 29.9990000  0  6G18G 2G11G19G16G 6
  21290510.925     3081580.490 7   2392722.14322        23.750           2.313
  22467995.659    -9322699.637 6  -7176408.05521        16.000           1.219
  23008167.003    -6387127.954 6  -4908874.94121        15.250           0.844
  20568965.487    -1434820.073 6  -1109662.12722        17.500           1.781
  23489610.847    -4529900.900 5  -3374059.51221        11.250           0.344
  23863264.730    -2796435.147 5  -2001447.15421         8.750           0.281
 91  6  3 17 42 44.9990000  0  6G18G 2G11G19G16G 6
  21295521.542     3107924.246 7   2413249.69122        23.500           2.375
  22458450.440    -9372867.197 6  -7215499.61321        16.500           1.250
  23002895.847    -6414812.102 6  -4930446.95621        14.500           0.875
  20568117.925    -1439257.494 6  -1113119.86922        17.500           1.906
  23485024.050    -4554021.544 5  -3392854.84021        11.500           0.375
  23854809.355    -2840855.311 5  -2036060.25221         8.250           0.375
 91  6  3 17 42 59.9990000  0  6G18G 2G11G19G16G 6
  21300552.925     3134354.809 7   2433844.88822        23.000           2.219
  22448914.487    -9422978.136 6  -7254547.05221        16.750           1.156
  22997652.456    -6442369.230 6  -4951919.99621        14.500           0.938
  20567285.175    -1443651.011 6  -1116543.39222        17.500           1.938
  23480459.605    -4578016.433 6  -3411552.19021        12.250           0.313
  23846361.401    -2885266.590 5  -2070666.40921         8.500           0.281
 91  6  3 17 43 14.9990000  0  6G18G 2G11G19G16G 6
  21305601.425     3160883.053 7   2454516.19722        22.500           2.063
  22439393.065    -9473021.269 6  -7293541.65021        17.250           1.313
  22992434.909    -6469787.949 6  -4973285.17421        14.250           0.781
  20566456.581    -1447989.653 6  -1119924.16522        17.250           1.781
  23475918.331    -4601874.655 6  -3430143.02521        12.000           0.375
  23837912.519    -2929657.983 5  -2105257.08721         9.000           0.219
 91  6  3 17 43 29.9990000  0  6G18G 2G11G19G16G 6
  21310665.698     3187504.456 7   2475260.09422        23.500           2.125
  22429881.511    -9523000.957 6  -7332486.81021        16.500           1.313
  22987240.253    -6497072.669 6  -4994545.94121        13.500           1.000
  20565642.589    -1452277.789 6  -1123265.58122        17.250           1.906
  23471404.690    -4625600.447 5  -3448630.67321        11.750           0.375
  23829469.026    -2974033.991 5  -2139835.77321         8.250           0.313
 91  6  3 17 43 44.9990000  0  6G18G 2G11G19G16G 6
  21315749.136     3214215.660 7   2496073.96922        23.500           2.000
  22420382.917    -9572920.320 6  -7371384.96921        16.750           1.250
  22982075.948    -6524226.364 6  -5015704.61021        14.250           0.813
  20564834.886    -1456518.559 6  -1126570.08522        17.500           1.906
  23466914.253    -4649196.877 5  -3467017.52621        11.500           0.313
  23821029.081    -3018397.893 5  -2174405.00421         9.000           0.375
 91  6  3 17 43 59.9990000  0  6G18G 2G11G19G16G 6
  21320848.300     3241015.610 7   2516956.99422        23.000           1.906
  22410893.386    -9622779.990 6  -7410236.62221        16.750           1.219
  22976932.308    -6551249.489 6  -5036761.55021        14.000           0.781
  20564037.831    -1460712.549 6  -1129838.14222        17.250           1.844
  23462442.792    -4672664.795 5  -3485304.22521        10.500           0.500
  23812590.714    -3062750.431 5  -2208965.39421         8.500           0.250
 91  6  3 17 44 14.9990000  0  6G18G 2G11G19G16G 6
  21325964.901     3267910.239 7   2537913.79922        23.250           1.906
  22401414.901    -9672573.577 6  -7449036.77221        15.750           1.219
  22971816.894    -6578135.612 6  -5057711.74021        14.250           0.938
  20563247.714    -1464853.776 6  -1133065.08122        17.500           1.938
  23458008.917    -4695998.152 5  -3503486.06921        11.000           0.375
  23804150.894    -3107085.529 5  -2243512.20721         8.500           0.344
 91  6  3 17 44 29.9990000  0  6G18G 2G11G19G16G 6
  21331100.355     3294891.937 7   2558938.44222        23.000           1.938
  22391955.558    -9722308.426 6  -7487791.14721        17.750           1.281
  22966725.222    -6604891.922 6  -5078560.76221        13.750           0.813
  20562469.550    -1468949.608 6  -1136256.64322        16.750           1.813
  23453592.628    -4719203.951 5  -3521568.52121        11.250           0.406
  23795716.550    -3151410.577 5  -2278051.19421         9.000           0.344
 91  6  3 17 44 44.9990000  0  6G18G 2G11G19G16G 6
  21336252.269     3321963.072 7   2580032.76722        23.250           1.844
  22382502.909    -9771981.905 6  -7526497.71121        17.750           1.313
  22961659.323    -6631515.754 6  -5099306.55721        13.750           0.813
  20561698.573    -1472997.622 6  -1139410.94222        18.000           1.969
  23449197.745    -4742279.556 5  -3539549.54021        10.500           0.344
  23787281.784    -3195723.149 5  -2312580.42321         8.000           0.313
 91  6  3 17 44 59.9990000  0  6G18G 2G11G19G16G 6
  21341421.956     3349120.484 7   2601194.33322        23.750           1.938
  22373059.901    -9821597.066 6  -7565158.83121        17.500           1.219
  22956616.308    -6658009.953 6  -5119951.34821        13.750           0.781
  20560939.276    -1477000.920 6  -1142530.40322        17.750           1.844
  23444829.339    -4765228.170 5  -3557431.60721        10.000           0.406
  23778851.245    -3240026.351 5  -2347102.37121         7.500           0.250
 91  6  3 17 45 14.9990000  0  6G18G 2G11G19G16G 6
  21346605.433     3376369.749 7   2622427.46322        24.250           1.938
  22363632.526    -9871147.782 6  -7603769.72021        17.250           1.219
  22951598.800    -6684368.425 6  -5140490.35921        13.250           0.750
  20560184.261    -1480953.515 6  -1145610.35522        17.750           1.750
  23440490.503    -4788043.926 5  -3575210.10421         9.750           0.438
  23770425.651    -3284314.374 5  -2381612.50621         8.250           0.375
 91  6  3 17 45 29.9990000  0  6G18G 2G11G19G16G 6
  21351809.862     3403705.306 7   2643727.84122        24.500           1.938
  22354213.901    -9920639.510 6  -7642334.65721        17.250           1.250
  22946610.745    -6710596.317 6  -5160927.62421        13.500           0.813
  20559444.230    -1484860.881 6  -1148655.06522        17.000           1.844
  23436173.159    -4810732.181 5  -3592889.27021        10.000           0.313
  23761996.065    -3328592.555 5  -2416114.94221         8.000           0.375
 91  6  3 17 45 44.9990000  0  6G18G 2G11G19G16G 6
  21357028.761     3431137.434 7   2665103.46222        23.500           1.969
  22344808.808    -9970061.391 6  -7680845.16221        17.750           1.250
  22941646.761    -6736682.700 6  -5181254.63421        13.750           0.844
  20558708.558    -1488712.271 6  -1151656.15922        18.000           1.875
  23431879.401    -4833281.988 5  -3610460.56321         9.750           0.406
  23753575.909    -3372850.376 5  -2450601.52821         8.250           0.344
 91  6  3 17 45 59.9990000  0  6G18G 2G11G19G16G 6
  21362264.698     3458660.417 7   2686549.88222        23.250           2.031
  22335415.073   -10019419.165 6  -7719305.72221        17.500           1.281
  22936708.276    -6762633.350 6  -5201475.88221        14.250           0.906
  20557985.784    -1492513.623 6  -1154618.26222        17.750           1.813
  23427617.190    -4855699.233 5  -3627928.59021        10.000           0.406
  23745161.198    -3417093.702 5  -2485076.81421         8.750           0.344
 91  6  3 17 46 14.9990000  0  6G18G 2G11G19G16G 6
  21367519.940     3486280.031 7   2708071.59622        23.250           1.969
  22326038.425   -10068706.598 6  -7757711.47621        17.750           1.375
  22931795.815    -6788442.033 6  -5221586.49021        14.250           0.875
  20557272.636    -1496258.846 6  -1157536.62122        17.750           1.875
  23423379.597    -4877977.862 5  -3645288.57121        10.750           0.469
  23736744.730    -3461316.540 5  -2519536.12821         8.500           0.406
 91  6  3 17 46 29.9990000  0  6G18G 2G11G19G16G 6
  21372795.698     3513989.773 7   2729663.54922        24.250           1.906
  22316668.401   -10117930.024 6  -7796067.34021        17.000           1.344
  22926912.792    -6814114.889 6  -5241591.27721        15.000           0.938
  20556570.714    -1499954.278 6  -1160416.18822        16.750           1.906
  23419161.534    -4900124.100 5  -3662545.38321        10.250           0.313
  23728331.565    -3505525.330 5  -2553984.51221         8.750           0.375
 91  6  3 17 46 44.9990000  0  6G18G 2G11G19G16G 6
  21378085.464     3541785.639 7   2751322.60422        24.750           1.719
  22307312.456   -10167093.249 6  -7834376.29721        17.250           1.406
  22922050.237    -6839655.511 6  -5261493.01721        14.750           0.750
  20555875.276    -1503603.805 6  -1163259.98422        17.750           1.813
  23414969.761    -4922141.912 5  -3679702.15921        10.000           0.438
  23719920.597    -3549723.928 5  -2588424.94921         8.250           0.438
 91  6  3 17 46 59.9990000  0  6G18G 2G11G19G16G 6
  21383393.198     3569673.810 7   2773053.57922        25.000           1.906
  22297971.620   -10216189.556 6  -7872633.11021        17.250           1.438
  22917214.550    -6865057.196 6  -5281286.49921        14.500           0.875
  20555191.370    -1507200.769 6  -1166062.82222        17.250           1.906
  23410806.526    -4944024.699 5  -3696753.70121        10.000           0.375
  23711507.776    -3593905.813 5  -2622852.34621         8.000           0.438
 91  6  3 17 47 14.9990000  0  6G18G 2G11G19G16G 6
  21388713.753     3597642.774 7   2794847.51922        23.250           1.938
  22288638.995   -10265230.260 6  -7910846.59421        16.750           1.313
  22912408.831    -6890331.254 6  -5300980.52921        16.250           1.063
  20554514.347    -1510756.699 6  -1168833.67622        17.500           1.813
  23406669.605    -4965783.928 5  -3713708.94221        10.500           0.469
  23703105.878    -3638082.531 5  -2657275.74721         8.000           0.406
 91  6  3 17 47 29.9990000  0  6G18G 2G11G19G16G 6
  21394051.698     3625701.037 7   2816711.03222        22.750           1.813
  22279320.464   -10314206.422 6  -7949009.79621        18.250           1.313
  22907624.948    -6915468.413 6  -5320567.88421        16.000           0.906
  20553849.011    -1514262.611 6  -1171565.56622        16.500           1.844
  23402551.581    -4987410.556 5  -3730560.86421        10.500           0.438
  23694698.886    -3682245.086 4  -2691688.09021         7.250           0.281
 91  6  3 17 47 44.9990000  0  6G18G 2G11G19G16G 6
  21399410.644     3653845.457 7   2838641.69422        23.500           1.781
  22270008.831   -10363121.104 6  -7987125.07921        17.750           1.313
  22902865.722    -6940471.654 6  -5340050.89921        15.500           0.813
  20553188.886    -1517721.680 6  -1174260.95422        17.250           1.750
  23398463.175    -5008907.823 5  -3747312.00921        10.250           0.531
  23686297.698    -3726396.737 5  -2726091.96921         8.000           0.344
 91  6  3 17 47 59.9990000  0  6G18G 2G11G19G16G 6
  21404781.175     3682087.126 7   2860648.12722        22.750           1.906
  22260716.956   -10411963.062 6  -8025183.71121        18.250           1.250
  22898136.183    -6965329.652 6  -5359420.72121        16.250           0.875
  20552544.284    -1521122.809 6  -1176911.19422        16.750           1.781
  23394399.605    -5030264.373 5  -3763953.47621        10.500           0.469
  23677898.972    -3770526.552 5  -2760478.79421         7.500           0.344
 91  6  3 17 48 14.9990000  0  6G18G 2G11G19G16G 6
  21410172.956     3710412.972 7   2882720.16022        23.000           1.719
  22251433.823   -10460744.654 6  -8063195.29521        18.500           1.313
  22893430.315    -6990054.764 6  -5378687.01521        16.000           0.906
  20551903.487    -1524478.525 6  -1179526.04222        17.500           1.781
  23390359.347    -5051492.854 5  -3780495.17321        10.000           0.406
  23669504.925    -3814646.894 4  -2794858.26421         7.250           0.344
 91  6  3 17 48 29.9990000  0  6G18G 2G11G19G16G 6
  21415580.964     3738825.171 7   2904859.47122        22.750           1.844
  22242164.300   -10509463.374 6  -8101157.89621        18.500           1.375
  22888750.284    -7014644.479 6  -5397847.79621        15.500           0.938
  20551277.128    -1527786.370 6  -1182103.59522        16.750           1.781
  23386344.472    -5072590.656 5  -3796935.04121         9.750           0.531
  23661113.503    -3858755.646 5  -2829228.70821         7.750           0.281
 91  6  3 17 48 44.9990000  0  6G18G 2G11G19G16G 6
  21421003.245     3767325.289 7   2927067.29722        22.000           2.031
  22232905.894   -10558117.234 6  -8139069.95021        18.500           1.344
  22884095.315    -7039096.645 6  -5416901.37721        15.000           1.031
  20550652.480    -1531044.553 6  -1184642.45222        17.500           1.719
  23382355.722    -5093556.004 5  -3813271.69121         9.500           0.438
  23652724.526    -3902850.793 5  -2863588.49021         8.000           0.375
 91  6  3 17 48 59.9990000  0  6G18G 2G11G19G16G 6
  21426444.050     3795916.264 7   2949345.91222        22.000           1.813
  22223656.214   -10606703.366 6  -8176929.23021        18.000           1.406
  22879473.175    -7063408.172 6  -5435845.38921        16.250           1.094
  20550044.878    -1534250.127 6  -1187140.30322        17.250           1.719
  23378388.722    -5114386.075 5  -3829502.93521         9.750           0.625
  23644330.980    -3946929.491 5  -2897935.53821         8.500           0.438
 91  6  3 17 49 14.9990000  0  6G18G 2G11G19G16G 6
  21431899.925     3824595.587 7   2971693.37622        21.250           2.000
  22214425.605   -10655224.296 6  -8214737.71021        18.500           1.313
  22874872.370    -7087581.475 6  -5454681.69621        16.000           0.969
  20549442.573    -1537405.583 6  -1189599.11922        17.250           1.813
  23374453.472    -5135083.095 5  -3845630.48921        10.000           0.563
  23635948.128    -3990994.434 5  -2932271.82221         8.500           0.344
 91  6  3 17 49 29.9990000  0  6G18G 2G11G19G16G 6
  21437375.995     3853364.507 7   2994110.65022        22.000           1.844
  22205204.144   -10703678.186 6  -8252493.94521        18.250           1.313
  22870296.534    -7111614.631 6  -5473408.79221        15.250           0.906
  20548857.503    -1540509.338 6  -1192017.63422        16.250           1.750
  23370540.886    -5155645.686 5  -3861653.29621        10.250           0.500
  23627566.183    -4035043.845 5  -2966596.01921         8.250           0.313
 91  6  3 17 49 44.9990000  0  6G18G 2G11G19G16G 6
  21442865.933     3882217.840 7   3016593.70922        21.750           1.875
  22195998.386   -10752069.671 6  -8290201.55721        18.500           1.313
  22865751.300    -7135512.256 6  -5492030.27721        16.000           1.000
  20548270.651    -1543566.080 6  -1194399.52722        17.250           1.813
  23366651.300    -5176078.379 5  -3877574.88521        10.500           0.563
  23619182.605    -4079082.629 5  -3000911.92521         8.250           0.188
 91  6  3 17 49 59.9990000  0  6G18G 2G11G19G16G 6
  21448375.909     3911159.155 7   3039145.30922        22.000           1.906
  22186801.112   -10800395.370 6  -8327857.89321        17.750           1.313
  22861230.542    -7159270.756 6  -5510543.37821        16.000           0.938
  20547701.956    -1546572.389 6  -1196742.10822        17.000           1.781
  23362787.315    -5196377.944 5  -3893392.75321         9.750           0.438
  23610809.456    -4123107.526 5  -3035216.94921         8.750           0.156
 91  6  3 17 50 14.9990000  0  6G18G 2G11G19G16G 6
  21453897.058     3940181.032 7   3061759.69522        21.750           1.781
  22177614.136   -10848662.083 6  -8365468.28422        17.500           1.500
  22856732.769    -7182897.103 6  -5528953.49221        15.750           1.000
  20547134.487    -1549535.279 6  -1199050.87022        18.000           1.750
  23358948.003    -5216551.409 5  -3909112.34321         9.750           0.500
  23602430.605    -4167125.527 5  -3069516.69021         8.000           0.313
 91  6  3 17 50 29.9990000  0  6G18G 2G11G19G16G 6
  21459434.394     3969285.193 7   3084438.18722        21.000           1.844
  22168441.480   -10896867.768 6  -8403031.12021        17.250           1.469
  22852262.581    -7206389.203 6  -5547259.00021        16.250           0.906
  20546581.323    -1552452.992 6  -1201324.42422        17.500           1.781
  23355132.847    -5236596.839 5  -3924732.18121         9.500           0.406
  23594057.026    -4211134.806 5  -3103809.58721         8.500           0.313
 91  6  3 17 50 44.9990000  0  6G18G 2G11G19G16G 6
  21464992.792     3998485.384 7   3107191.51622        21.500           1.781
  22159284.448   -10944998.173 6  -8440535.29322        17.250           1.656
  22847821.417    -7229732.524 6  -5565448.56921        16.750           0.906
  20546033.425    -1555311.140 6  -1203551.56422        17.000           1.719
  23351350.862    -5256499.959 5  -3940241.13321         9.500           0.594
  23585682.909    -4255121.058 5  -3138084.57021         8.250           0.281
 91  6  3 17 50 59.9990000  0  6G18G 2G11G19G16G 6
  21470565.034     4027778.354 7   3130017.14822        20.750           1.781
  22150138.034   -10993056.431 6  -8477983.24522        17.000           1.531
  22843406.308    -7252930.158 6  -5583524.62721        16.500           0.813
  20545503.667    -1558113.117 6  -1205734.93422        17.000           1.656
  23347584.214    -5276263.820 5  -3955641.56121         9.250           0.531
  23577319.948    -4299087.731 5  -3172344.27721         8.500           0.156
 91  6  3 17 51 14.9990000  0  6G18G 2G11G19G16G 6
  21476155.761     4057154.624 7   3152907.68822        20.750           1.906
  22141004.386   -11041051.741 6  -8515382.15122        17.000           1.563
  22839016.972    -7275991.305 6  -5601494.33321        16.500           0.875
  20544978.190    -1560868.119 6  -1207881.70422        18.250           1.594
  23343846.120    -5295897.674 5  -3970940.69321         9.000           0.531
  23568955.347    -4343044.102 5  -3206595.96721         8.500           0.156
 91  6  3 17 51 29.9990000  0  6G18G 2G11G19G16G 6
  21481761.870     4086612.766 7   3175862.01522        21.000           1.781
  22131883.394   -11088985.275 6  -8552732.92022        17.000           1.531
  22834656.050    -7298916.948 6  -5619358.43721        17.250           0.813
  20544466.284    -1563577.424 6  -1209992.86722        17.000           1.625
  23340139.105    -5315402.918 5  -3986139.59921         9.500           0.594
  23560594.089    -4386991.372 5  -3240840.56921         8.750           0.156
 91  6  3 17 51 44.9990000  0  6G18G 2G11G19G16G 6
  21487383.651     4116158.283 7   3198884.43222        20.750           1.688
  22122774.948   -11136850.997 6  -8590030.83922        17.000           1.531
  22830321.362    -7321701.098 6  -5637112.29921        17.250           0.813
  20543957.276    -1566235.110 6  -1212063.81422        18.000           1.656
  23336451.940    -5334773.758 5  -4001233.76321         9.500           0.469
  23552230.909    -4430923.772 5  -3275073.57721         8.500           0.250
 91  6  3 17 51 59.9990000  0  6G18G 2G11G19G16G 6
  21493021.292     4145784.380 7   3221969.63622        21.250           1.750
  22113675.605   -11184655.923 6  -8627281.39221        17.250           1.469
  22826009.433    -7344350.508 6  -5654761.18021        17.000           0.906
  20543460.901    -1568848.160 6  -1214099.96822        17.000           1.719
  23332790.948    -5354017.129 5  -4016228.62921        10.000           0.500
  23543868.792    -4474848.243 5  -3309300.40821         8.250           0.313
 91  6  3 17 52 14.9990000  0  6G18G 2G11G19G16G 6
  21498675.519     4175495.404 7   3245121.01522        21.250           1.594
  22104594.448   -11232395.173 6  -8664480.77222        18.250           1.563
  22821726.159    -7366860.322 6  -5672301.29021        16.750           0.813
  20542971.753    -1571411.874 6  -1216097.68122        17.250           1.719
  23329151.784    -5373128.284 5  -4031120.45221         9.750           0.469
  23535516.956    -4518760.183 5  -3343517.51121         9.000           0.219
 91  6  3 17 52 29.9990000  0  6G18G 2G11G19G16G 6
  21504345.722     4205294.318 7   3268340.87822        21.500           1.625
  22095521.034   -11280065.636 6  -8701626.53821        18.250           1.469
  22817470.495    -7389227.382 6  -5689730.15521        16.500           0.719
  20542495.378    -1573923.241 6  -1218054.60322        16.500           1.625
  23325539.503    -5392104.205 5  -4045906.91921         9.250           0.500
  23527164.917    -4562656.630 5  -3377722.49821         8.750           0.344
 91  6  3 17 52 44.9990000  0  6G18G 2G11G19G16G 6
  21510034.300     4235187.159 7   3291633.93322        21.250           1.781
  22086464.620   -11327660.824 6  -8738713.66521        18.500           1.469
  22813242.526    -7411444.991 6  -5707042.55521        16.250           0.875
  20542025.761    -1576375.575 6  -1219965.52822        17.250           1.656
  23321957.722    -5410938.400 5  -4060582.90821        10.000           0.531
  23518814.034    -4606531.124 5  -3411910.40021         9.750           0.188
 91  6  3 17 52 59.9990000  0  6G18G 2G11G19G16G 6
  21515737.651     4265161.180 7   3314990.25322        20.750           1.719
  22077420.589   -11375192.888 6  -8775751.59821        19.250           1.438
  22809040.089    -7433525.390 6  -5724248.05421        16.250           0.781
  20541571.534    -1578781.262 6  -1221840.10722        16.500           1.625
  23318397.487    -5429643.064 5  -4075157.99521        10.500           0.500
  23510469.261    -4650396.091 5  -3446090.86021         9.250           0.188
 91  6  3 17 53 14.9990000  0  6G18G 2G11G19G16G 6
  21521456.737     4295215.584 7   3338409.20922        21.250           1.656
  22068386.128   -11422662.636 6  -8812740.96122        19.250           1.563
  22804865.855    -7455469.218 6  -5741347.12821        16.250           0.875
  20541120.081    -1581141.262 6  -1223679.08522        17.500           1.500
  23314860.534    -5448219.064 5  -4089632.82921         9.000           0.438
  23502122.300    -4694252.339 5  -3480264.50821         9.000           0.375
 91  6  3 17 53 29.9990000  0  6G18G 2G11G19G16G 6
  21527193.128     4325354.288 7   3361893.83522        22.250           1.594
  22059366.308   -11470065.882 6  -8849678.50622        18.750           1.625
  22800715.698    -7477272.254 6  -5758336.49421        16.000           0.844
  20540687.355    -1583451.378 6  -1225479.19322        16.000           1.656
  23311353.714    -5466662.116 5  -4104004.05721        10.250           0.500
  23493778.417    -4738095.843 5  -3514428.24721         9.000           0.250
 91  6  3 17 53 44.9990000  0  6G18G 2G11G19G16G 6
  21532944.534     4355574.664 7   3385442.11722        23.000           1.594
  22050358.433   -11517404.868 6  -8886565.99622        19.250           1.500
  22796592.940    -7498936.728 6  -5775217.90121        15.250           0.844
  20540251.862    -1585714.060 6  -1227242.33522        17.500           1.656
  23307866.581    -5484974.982 5  -4118273.84021        10.000           0.438
  23485440.722    -4781929.027 5  -3548583.94321         9.500           0.406
 91  6  3 17 53 59.9990000  0  6G18G 2G11G19G16G 6
  21538713.206     4385877.714 7   3409054.82022        23.750           1.688
  22041360.003   -11564678.222 6  -8923402.32922        19.250           1.594
  22792497.597    -7520461.097 6  -5791990.12021        16.000           0.781
  20539833.417    -1587927.875 6  -1228967.40922        16.250           1.625
  23304408.534    -5503156.054 5  -4132440.94121        10.000           0.406
  23477099.534    -4825750.595 5  -3582730.61321         9.000           0.438
 91  6  3 17 54 14.9990000  0  6G18G 2G11G19G16G 6
  21544493.956     4416263.662 7   3432732.10922        23.000           1.625
  22032379.503   -11611885.391 6  -8960187.09322        19.250           1.500
  22788428.339    -7541844.821 6  -5808652.76021        16.250           0.781
  20539417.722    -1590092.376 6  -1230654.04022        16.750           1.719
  23300973.519    -5521205.061 5  -4146505.11821        10.000           0.406
  23468761.862    -4869560.174 5  -3616867.91021         8.500           0.469
 91  6  3 17 54 29.9990000  0  6G18G 2G11G19G16G 6
  21550294.151     4446737.294 7   3456477.72722        23.500           1.563
  22023407.808   -11659021.264 6  -8996916.29122        18.750           1.625
  22784387.761    -7563082.672 6  -5825201.73221        16.500           0.813
  20539018.034    -1592202.525 6  -1232298.32422        16.500           1.625
  23297564.870    -5539116.955 5  -4160462.46621        10.750           0.375
  23460425.581    -4913352.814 5  -3650992.02821         8.500           0.344
 91  6  3 17 54 44.9990000  0  6G18G 2G11G19G16G 6
  21556108.026     4477295.123 7   3480288.95022        23.250           1.719
  22014453.019   -11706089.010 6  -9033592.41122        19.500           1.563
  22780371.534    -7584177.790 6  -5841639.48821        15.250           0.844
  20538623.448    -1594261.674 6  -1233902.87622        17.000           1.625
  23294185.003    -5556895.163 5  -4174315.64621        10.750           0.469
  23452097.136    -4957131.760 5  -3685105.44721         8.500           0.375
 91  6  3 17 54 59.9990000  0  6G18G 2G11G19G16G 6
  21561936.519     4507928.074 7   3504158.70922        22.750           1.688
  22005507.909   -11753097.936 6  -9070222.69721        19.750           1.438
  22776381.894    -7605139.413 6  -5857973.22321        15.250           0.875
  20538241.745    -1596279.154 6  -1235474.95022        17.000           1.625
  23290823.370    -5574548.919 5  -4188071.82121        11.500           0.438
  23443766.964    -5000906.395 5  -3719215.53921         8.250           0.344
 91  6  3 17 55 14.9990000  0  6G18G 2G11G19G16G 6
  21567781.972     4538641.253 7   3528090.99522        22.250           1.688
  21996575.401   -11800042.105 7  -9106802.52722        20.250           1.531
  22772420.323    -7625961.518 6  -5874198.24521        15.500           0.969
  20537864.784    -1598249.069 6  -1237009.97022        17.000           1.531
  23287488.206    -5592072.175 5  -4201726.33821        11.500           0.406
  23435438.120    -5044670.972 5  -3753317.80221         8.500           0.406
 91  6  3 17 55 29.9990000  0  6G18G 2G11G19G16G 6
  21573641.870     4569435.738 7   3552086.62122        22.250           1.688
  21987653.534   -11846920.205 7  -9143330.87722        20.000           1.688
  22768485.175    -7646642.692 6  -5890313.44821        16.250           0.844
  20537501.050    -1600170.284 6  -1238507.03922        17.000           1.625
  23284177.456    -5609463.929 5  -4215278.37421        11.250           0.469
  23427110.417    -5088424.221 5  -3787411.23421         8.250           0.469
 91  6  3 17 55 44.9990000  0  6G18G 2G11G19G16G 6
  21579515.323     4600310.431 7   3576144.74722        22.000           1.594
  21978743.136   -11893733.135 7  -9179808.44222        20.000           1.656
  22764577.190    -7667183.748 6  -5906319.46821        16.250           0.938
  20537142.198    -1602043.655 6  -1239966.82922        17.000           1.656
  23280896.901    -5626725.071 6  -4228728.63921        12.000           0.563
  23418787.214    -5132167.151 5  -3821496.59021         8.000           0.500
 91  6  3 17 55 59.9990000  0  6G18G 2G11G19G16G 6
  21585408.370     4631267.043 7   3600266.66622        22.000           1.563
  21969849.026   -11940480.775 7  -9216235.13022        20.250           1.719
  22760693.448    -7687584.514 6  -5922216.16721        16.000           0.844
  20536796.651    -1603869.246 6  -1241389.38222        16.250           1.594
  23277635.901    -5643855.558 5  -4242077.09521        11.500           0.563
  23410463.573    -5175899.772 5  -3855573.92021         8.250           0.406
 91  6  3 17 56 14.9990000  0  6G18G 2G11G19G16G 6
  21591310.636     4662295.907 7   3624444.98722        21.000           1.594
  21960965.776   -11987166.629 7  -9252613.68222        21.000           1.844
  22756839.292    -7707848.463 6  -5938006.26521        16.250           0.875
  20536455.487    -1605650.596 6  -1242777.46422        16.750           1.625
  23274400.019    -5660859.191 5  -4255326.69621        11.500           0.531
  23402144.925    -5219625.815 5  -3889646.15221         8.500           0.563
 91  6  3 17 56 29.9990000  0  6G18G 2G11G19G16G 6
  21597231.003     4693403.121 7   3648684.30122        20.750           1.594
  21952092.995   -12033790.132 7  -9288943.64622        20.750           1.781
  22753009.065    -7727974.996 6  -5953689.28621        16.000           0.844
  20536127.339    -1607387.166 6  -1244130.65922        16.250           1.594
  23271189.253    -5677735.606 5  -4268477.17921        11.500           0.563
  23393826.511    -5263344.930 5  -3923712.96521         7.750           0.531
 91  6  3 17 56 44.9990000  0  6G18G 2G11G19G16G 6
  21603167.315     4724590.026 7   3672985.70922        21.250           1.563
  21943231.886   -12080347.536 7  -9325222.09822        20.500           1.781
  22749203.823    -7747960.281 6  -5969262.24321        15.750           0.844
  20535804.448    -1609075.183 6  -1245446.00822        16.750           1.656
  23268003.042    -5694481.322 6  -4281525.79421        12.250           0.563
  23385505.464    -5307053.336 5  -3957771.44721         7.750           0.469
 91  6  3 17 56 59.9990000  0  6G18G 2G11G19G16G 6
  21609116.206     4755857.005 7   3697349.51522        21.750           1.594
  21934385.433   -12126838.227 7  -9361448.57922        21.000           1.688
  22745428.565    -7767803.643 6  -5984724.61221        15.500           0.875
  20535494.308    -1610714.229 6  -1246723.20722        16.250           1.719
  23264841.495    -5711095.375 6  -4294471.81321        12.250           0.563
  23377196.425    -5350750.631 5  -3991821.26321         8.500           0.469
 91  6  3 17 57 14.9990000  0  6G18G 2G11G19G16G 6
  21615080.948     4787201.089 7   3721773.40422        21.250           1.531
  21925552.331   -12173265.023 7  -9397625.26522        20.750           1.750
  22741680.800    -7787507.804 6  -6000078.49721        16.250           0.813
  20535189.480    -1612307.176 6  -1247964.47222        17.000           1.625
  23261702.214    -5727580.639 6  -4307317.49221        12.000           0.563
  23368878.651    -5394439.616 5  -4025864.57721         8.500           0.563
 91  6  3 17 57 29.9990000  0  6G18G 2G11G19G16G 6
  21621061.917     4818626.897 7   3746260.97222        21.500           1.625
  21916729.128   -12219623.012 6  -9433748.33722        19.750           1.813
  22737959.542    -7807067.976 6  -6015320.19421        16.250           0.844
  20534897.980    -1613849.155 6  -1249166.03622        16.750           1.563
  23258590.190    -5743932.478 6  -4320059.20821        12.250           0.375
  23360570.175    -5438115.577 5  -4059897.77621         8.750           0.531
 91  6  3 17 57 44.9990000  0  6G18G 2G11G19G16G 6
  21627059.565     4850139.961 7   3770816.53122        21.250           1.625
  21907922.565   -12265906.176 7  -9469813.10322        20.250           1.875
  22734265.089    -7826477.952 6  -6030444.87921        16.000           0.875
  20534614.925    -1615334.104 6  -1250323.15822        17.500           1.688
  23255507.612    -5760145.001 6  -4332692.36221        12.000           0.594
  23352260.628    -5481772.591 5  -4093916.21921         8.250           0.469
 91  6  3 17 57 59.9990000  0  6G18G 2G11G19G16G 6
  21633068.831     4881731.413 7   3795433.18421        20.000           1.438
  21899127.097   -12312123.271 6  -9505826.38922        19.750           1.813
  22730598.800    -7845746.492 6  -6045459.33121        16.500           0.906
  20534345.284    -1616771.085 6  -1251442.90522        17.000           1.688
  23252444.714    -5776227.103 5  -4345223.88021        11.750           0.500
  23343958.870    -5525419.522 5  -4127926.79921         9.250           0.500
 91  6  3 17 58 14.9990000  0  6G18G 2G11G19G16G 6
  21639095.980     4913402.273 7   3820111.70721        20.500           1.469
  21890344.026   -12358272.760 6  -9541787.00222        19.500           1.969
  22726960.761    -7864872.079 6  -6060362.38721        17.000           1.063
  20534078.433    -1618158.733 6  -1252524.19922        17.500           1.781
  23249411.175    -5792177.309 5  -4357652.64321        11.500           0.594
  23335652.487    -5569055.090 5  -4161928.51721         8.750           0.406
 91  6  3 17 58 29.9990000  0  6G18G 2G11G19G16G 6
  21645139.667     4945148.816 7   3844849.19622        21.250           1.531
  21881574.144   -12404358.375 6  -9577697.82922        19.500           1.719
  22723345.597    -7883858.024 6  -6075156.63821        16.750           1.000
  20533823.659    -1619500.573 6  -1253569.80422        17.500           1.656
  23246400.503    -5807999.457 5  -4369981.61121        11.000           0.531
  23327348.901    -5612682.888 5  -4195924.19221         8.500           0.438
 91  6  3 17 58 44.9990000  0  6G18G 2G11G19G16G 6
  21651192.558     4976977.657 7   3869650.81721        20.000           1.469
  21872820.042   -12450373.260 7  -9613553.54422        20.750           1.719
  22719757.612    -7902697.485 6  -6089836.75121        15.750           0.906
  20533577.042    -1620789.689 6  -1254574.33022        18.000           1.719
  23243414.433    -5823686.474 5  -4382205.27121        10.750           0.438
  23319049.120    -5656296.120 5  -4229908.49821         8.750           0.500
 91  6  3 17 58 59.9990000  0  6G18G 2G11G19G16G 6
  21657269.605     5008892.207 7   3894519.23022        21.000           1.500
  21864077.089   -12496313.564 7  -9649351.14622        20.750           1.875
  22716204.276    -7921386.649 6  -6104399.74021        16.000           1.000
  20533343.987    -1622022.213 6  -1255534.75522        16.500           1.688
  23240455.440    -5839234.698 5  -4394320.76721        10.500           0.469
  23310752.081    -5699891.181 5  -4263878.64321         8.500           0.469
 91  6  3 17 59 14.9990000  0  6G18G 2G11G19G16G 6
  21663356.128     5040881.650 7   3919445.99721        20.500           1.469
  21855347.175   -12542189.706 7  -9685098.74822        20.000           1.688
  22712674.730    -7939936.199 6  -6118853.93921        17.250           0.844
  20533113.792    -1623208.909 6  -1256459.46922        17.250           1.625
  23237516.597    -5854655.030 5  -4406336.65321         9.000           0.531
  23302461.980    -5743478.747 5  -4297842.95021         9.000           0.438
 91  6  3 17 59 29.9990000  0  6G18G 2G11G19G16G 6
  21669457.253     5072948.743 6   3944433.26122        19.750           1.531
  21846630.909   -12587998.380 7  -9720793.78422        20.250           1.656
  22709171.597    -7958342.766 6  -6133196.72021        17.500           0.969
  20532901.558    -1624346.568 6  -1257345.97022        17.500           1.781
  23234610.190    -5869944.150 5  -4418250.26021         9.750           0.594
  23294166.284    -5787055.543 5  -4331798.87821         8.250           0.406
 91  6  3 17 59 44.9990000  0  6G18G 2G11G19G16G 6
  21675572.472     5105090.544 6   3969478.75422        18.750           1.688
  21837925.769   -12633742.324 7  -9756438.37622        20.500           1.813
  22705696.667    -7976608.966 6  -6147430.13521        17.000           0.938
  20532692.808    -1625437.825 6  -1258196.32222        17.750           1.656
  23231726.042    -5885104.928 5  -4430063.85421        10.000           0.500
  23285875.136    -5830624.493 5  -4365748.66621         8.750           0.438
 91  6  3 17 59 59.9990000  0  6G18G 2G11G19G16G 6
  21681705.745     5137302.928 6   3994579.23122        19.750           1.594
  21829231.339   -12679425.472 7  -9792035.60522        20.750           1.844
  22702246.425    -7994738.588 6  -6161557.11721        17.000           1.000
  20532493.323    -1626486.772 6  -1259013.69422        16.250           1.688
  23228865.636    -5900141.486 5  -4441780.65621        10.500           0.531
  23277586.651    -5874189.591 5  -4399695.48721         8.500           0.500
 91  6  3 18  0 14.9990000  0  6G18G 2G11G19G16G 6
  21687848.401     5169599.208 6   4019745.08422        18.750           1.531
  21820553.183   -12725034.427 7  -9827575.00722        21.500           1.719
  22698823.980    -8012718.128 6  -6175567.15421        16.750           0.813
  20532304.276    -1627479.952 6  -1259787.61922        16.500           1.594
  23226032.565    -5915040.444 5  -4453390.26221        10.500           0.406
  23269301.026    -5917737.435 5  -4433628.82721         8.500           0.375
 91  6  3 18  0 29.9990000  0  6G18G 2G11G19G16G 6
  21694007.800     5201971.112 6   4044969.87122        18.750           1.625
  21811886.401   -12770577.067 7  -9863062.73322        21.500           1.781
  22695431.128    -8030555.399 6  -6189466.34021        17.000           0.906
  20532125.362    -1628425.540 6  -1260524.46722        17.000           1.781
  23223219.230    -5929809.807 5  -4464898.87021        10.000           0.438
  23261012.472    -5961276.048 5  -4467554.99521         8.250           0.406
 91  6  3 18  0 44.9990000  0  6G18G 2G11G19G16G 6
  21700184.261     5234416.373 6   4070251.81122        18.750           1.625
  21803231.019   -12816055.321 7  -9898500.30722        20.750           1.750
  22692062.230    -8048252.309 6  -6203256.14221        17.250           1.000
  20531954.690    -1629325.336 6  -1261225.61722        17.000           1.750
  23220435.065    -5944451.465 5  -4476307.97821        10.500           0.438
  23252732.175    -6004807.361 5  -4501475.46121         8.750           0.406
 91  6  3 18  0 59.9990000  0  6G18G 2G11G19G16G 6
  21706373.550     5266938.436 6   4095593.60222        19.500           1.719
  21794589.745   -12861465.243 7  -9933884.62422        20.750           1.719
  22688720.933    -8065804.934 6  -6216933.51721        16.750           0.906
  20531792.776    -1630175.584 6  -1261888.16322        16.500           1.875
  23217673.378    -5958961.787 5  -4487614.73321        10.750           0.469
  23244448.698    -6048327.662 5  -4535387.35521         8.750           0.313
 91  6  3 18  1 14.9990000  0  6G18G 2G11G19G16G 6
  21712577.058     5299541.213 6   4120998.29522        19.500           1.563
  21785962.925   -12906803.022 7  -9969212.72222        21.250           1.750
  22685412.167    -8083209.335 6  -6230495.38521        17.000           0.969
  20531641.347    -1630972.279 6  -1262508.98522        16.500           1.813
  23214937.667    -5973336.977 5  -4498816.18121        10.750           0.438
  23236169.464    -6091833.144 5  -4569287.71921         9.500           0.375
 91  6  3 18  1 29.9990000  0  6G18G 2G11G19G16G 6
  21718796.480     5332220.304 6   4146462.45322        19.250           1.750
  21777350.440   -12952072.580 7 -10004487.66322        21.250           1.906
  22682125.472    -8100469.490 6  -6243944.86121        16.500           0.969
  20531497.800    -1631719.499 6  -1263091.24822        17.750           1.781
  23212227.261    -5987580.678 5  -4509915.18421        10.750           0.438
  23227895.073    -6135327.948 5  -4603179.74121         9.750           0.281
 91  6  3 18  1 44.9990000  0  6G18G 2G11G19G16G 6
  21725029.917     5364980.526 6   4171989.82022        19.250           1.688
  21768748.636   -12997268.741 7 -10039705.41722        21.500           1.688
  22678867.995    -8117580.296 6  -6257277.95821        15.500           1.063
  20531367.386    -1632412.253 6  -1263631.08222        16.750           1.844
  23209541.753    -6001688.519 5  -4520908.33021        11.000           0.469
  23219619.558    -6178807.091 5  -4637059.54121        10.500           0.406
 91  6  3 18  1 59.9990000  0  6G18G 2G11G19G16G 6
  21731278.730     5397820.604 6   4197579.40222        19.250           1.594
  21760162.394   -13042392.517 7 -10074866.75822        21.000           1.844
  22675641.987    -8134542.661 6  -6270495.38721        16.250           1.031
  20531245.722    -1633051.489 6  -1264129.19622        16.500           1.906
  23206881.519    -6015661.195 5  -4531796.14121        11.750           0.438
  23211351.800    -6222271.588 5  -4670927.96521        11.000           0.313
 91  6  3 18  2 14.9990000  0  6G18G 2G11G19G16G 6
  21737544.323     5430737.435 7   4223228.80122        20.750           1.656
  21751587.034   -13087446.428 7 -10109973.66922        20.000           1.844
  22672441.948    -8151359.185 6  -6283599.15421        16.750           0.938
  20531133.331    -1633639.940 6  -1264587.75022        16.500           1.813
  23204248.909    -6029501.849 5  -4542581.07321        11.500           0.594
  23203078.823    -6265724.246 5  -4704787.14621        10.000           0.344
 91  6  3 18  2 29.9990000  0  6G18G 2G11G19G16G 6
  21743822.769     5463727.547 7   4248935.30622        20.500           1.563
  21743026.519   -13132433.857 7 -10145028.76322        20.000           1.938
  22669268.964    -8168032.921 6  -6296591.68521        16.750           0.906
  20531030.714    -1634180.933 6  -1265009.30922        16.750           1.875
  23201639.597    -6043213.451 5  -4553265.45921        11.250           0.438
  23194813.003    -6309168.240 5  -4738639.58521        10.500           0.313
 91  6  3 18  2 44.9990000  0  6G18G 2G11G19G16G 6
  21750112.417     5496793.605 6   4274700.98922        19.750           1.656
  21734479.620   -13177352.037 6 -10180029.90122        19.750           1.875
  22666123.589    -8184561.302 6  -6309470.92621        16.500           0.875
  20530937.487    -1634671.739 6  -1265391.77222        17.000           1.875
  23199056.526    -6056793.475 5  -4563847.31621        11.500           0.469
  23186546.487    -6352600.964 5  -4772483.22921        10.750           0.250
 91  6  3 18  2 59.9990000  0  6G18G 2G11G19G16G 6
  21756419.894     5529936.175 6   4300526.29922        18.750           1.594
  21725944.909   -13222199.757 7 -10214976.13922        20.000           1.844
  22663006.386    -8200942.977 6  -6322235.85321        17.000           0.844
  20530852.894    -1635111.134 6  -1265734.17922        17.750           1.844
  23196495.855    -6070240.812 5  -4574325.79021        11.250           0.406
  23178286.503    -6396021.292 5  -4806317.21521        10.750           0.344
 91  6  3 18  3 14.9990000  0  6G18G 2G11G19G16G 6
  21762741.667     5563148.311 6   4326405.79622        18.750           1.625
  21717422.394   -13266983.740 7 -10249872.70822        20.000           1.938
  22659917.355    -8217184.607 6  -6334891.66321        17.500           0.844
  20530779.011    -1635505.899 6  -1266041.80222        17.250           1.906
  23193966.065    -6083562.391 5  -4584706.24821        11.500           0.531
  23170023.331    -6439436.194 5  -4840146.97121        10.500           0.313
 91  6  3 18  3 29.9990000  0  6G18G 2G11G19G16G 6
  21769073.620     5596433.340 6   4352342.09522        18.750           1.656
  21708913.448   -13311700.623 7 -10284716.99022        20.250           1.844
  22656850.019    -8233282.850 6  -6347435.75421        16.250           0.906
  20530711.190    -1635852.712 6  -1266312.06422        17.750           1.813
  23191452.894    -6096754.924 5  -4594986.16521        11.750           0.625
  23161760.730    -6482842.302 5  -4873969.89721        10.500           0.313
 91  6  3 18  3 44.9990000  0  6G18G 2G11G19G16G 6
  21775419.855     5629786.857 6   4378331.77221        18.750           1.469
  21700415.808   -13356354.238 7 -10319511.97822        20.000           1.969
  22653813.355    -8249241.671 6  -6359871.19921        16.500           0.813
  20530655.659    -1636155.652 6  -1266548.13922        17.250           1.875
  23188966.878    -6109822.559 5  -4605168.74921        11.500           0.500
  23153504.417    -6526243.681 5  -4907789.12621        11.250           0.281
 91  6  3 18  3 59.9990000  0  6G18G 2G11G19G16G 6
  21781782.784     5663220.503 6   4404383.87521        18.750           1.469
  21691931.167   -13400932.756 6 -10354248.45222        19.750           1.969
  22650806.784    -8265049.065 6  -6372188.63821        16.250           0.813
  20530607.042    -1636402.880 6  -1266740.81122        16.500           2.000
  23186503.839    -6122753.543 6  -4615244.85921        12.000           0.344
  23145250.651    -6569628.539 5  -4941595.48721        11.500           0.344
 91  6  3 18  4 14.9990000  0  6G18G 2G11G19G16G 6
  21788158.831     5696727.386 6   4430493.05022        18.000           1.500
  21683462.878   -13445442.642 7 -10388931.43922        20.000           2.094
  22647827.401    -8280711.480 6  -6384393.10621        17.250           0.875
  20530568.933    -1636600.798 6  -1266895.04722        16.500           1.875
  23184067.417    -6135554.619 6  -4625219.74321        12.000           0.500
  23136997.128    -6613003.381 5  -4975394.03721        11.000           0.469
 91  6  3 18  4 29.9990000  0  6G18G 2G11G19G16G 6
  21794549.542     5730310.934 6   4456661.96121        18.500           1.438
  21675008.612   -13489880.092 7 -10423557.98822        20.500           2.125
  22644877.519    -8296225.122 6  -6396481.64721        17.500           0.813
  20530541.058    -1636745.784 6                        17.000
  23181657.519    -6148221.918 5  -4635090.39921        10.750           0.438
  23128742.253    -6656364.542 5  -5009181.93721        11.250           0.500
 91  6  3 18  4 44.9990000  0  6G18G 2G11G19G16G 6
  21800955.612     5763967.045 6   4482887.42022        17.750           1.563
  21666564.862   -13534249.055 7 -10458131.16622        20.750           2.063
  22641949.847    -8311593.978 6  -6408457.36121        16.500           0.844
  20530525.917    -1636841.812 6                        17.750
  23179269.737    -6160759.462 5  -4644859.93621        10.500           0.438
  23120494.722    -6699716.032 5  -5042962.29221        11.250           0.500
 91  6  3 18  4 59.9990000  0  6G18G 2G11G19G16G 6
  21807369.839     5797695.599 6   4509169.31421        17.000           1.406
  21658132.464   -13578549.350 7 -10492650.84222        20.750           2.063
  22639054.050    -8326817.625 6  -6420319.93721        16.750           0.813
  20530516.214    -1636888.466 6                        18.000
  23176913.378    -6173167.203 5  -4654528.32421        11.000           0.375
  23112246.964    -6743057.718 5  -5076735.01521        11.000           0.594
 91  6  3 18  5 14.9990000  0  6G18G 2G11G19G16G 6
  21813807.589     5831502.582 6   4535512.33821        18.000           1.281
  21649718.769   -13622774.881 7 -10527112.25622        20.750           2.063
  22636184.276    -8341890.033 6  -6432064.65121        16.250           0.938
  20530518.050    -1636879.785 6                        17.500
  23174576.878    -6185439.007 5  -4664090.78921        10.500           0.406
  23104002.222    -6786383.522 5  -5110495.36221        11.500           0.531
 91  6  3 18  5 29.9990000  0  6G18G 2G11G19G16G 6
  21820252.933     5865378.646 6   4561909.18521        18.500           1.375
  21641313.237   -13666934.452 7 -10561522.27522        20.250           2.094
  22633341.097    -8356820.098 6  -6443698.44921        15.500           1.031
  20530526.964    -1636824.669 6                        18.000
  23172263.362    -6197583.970 5  -4673554.42121         9.750           0.469
  23095759.636    -6829702.597 5  -5144250.47321        11.750           0.500
 91  6  3 18  5 44.9990000  0  6G18G 2G11G19G16G 6
  21826712.370     5899329.930 6   4588364.64921        18.000           1.344
  21632926.636   -13711021.660 7 -10595875.91322        20.250           2.063
  22630531.972    -8371601.485 6  -6455216.39721        16.250           0.938
  20530548.308    -1636716.991 6                        18.000
  23169979.355    -6209596.125 5  -4682914.57721        10.250           0.438
  23087517.128    -6873008.642 6  -5177995.41821        12.000           0.469
 91  6  3 18  5 59.9990000  0  6G18G 2G11G19G16G 6
  21833187.144     5933348.665 6   4614872.66621        17.750           1.250
  21624548.198   -13755043.842 7 -10630178.86722        20.750           2.031
  22627744.339    -8386241.491 6  -6466624.18321        16.750           0.844
  20530581.136    -1636564.108 6                        16.750
  23167716.847    -6221482.890 5  -4692177.01021        10.500           0.406
  23079277.581    -6916308.973 5  -5211735.93021        10.750           0.469
 91  6  3 18  6 14.9990000  0  6G18G 2G11G19G16G 6
  21839671.230     5967434.184 6   4641432.72121        17.250           1.219
  21616181.909   -13799001.603 7 -10664431.63022        20.500           2.188
  22624983.378    -8400740.503 6  -6477922.11121        16.000           0.813
  20530615.089    -1636366.400 6                        17.500
  23165478.378    -6233244.797 5  -4701342.14721         9.750           0.406
  23071037.456    -6959604.162 5  -5245472.42021        11.000           0.469
 91  6  3 18  6 29.9990000  0  6G18G 2G11G19G16G 6
  21846172.542     6001589.961 6   4668047.52921        17.750           1.188
  21607832.128   -13842891.034 7 -10698631.16222        21.250           2.125
  22622254.855    -8415094.674 6  -6489107.16121        16.250           0.906
  20530663.144    -1636120.160 6  -1266520.66122        17.750           1.938
  23163264.448    -6244878.345 5  -4710407.26021         9.500           0.375
  23062800.901    -7002890.433 5  -5279201.96821        11.000           0.469
 91  6  3 18  6 44.9990000  0  6G18G 2G11G19G16G 6
  21852688.198     6035819.048 6   4694719.45621        18.750           1.188
  21599491.339   -13886708.836 7 -10732774.85422        20.500           2.156
  22619550.558    -8429300.583 6  -6500176.69621        15.250           0.938
  20530718.315    -1635822.089 6  -1266288.42522        17.500           1.875
  23161075.511    -6256379.946 5  -4719369.58421        10.000           0.313
  23054567.808    -7046164.545 5  -5312922.05021        10.750           0.500
 91  6  3 18  6 59.9990000  0  6G18G 2G11G19G16G 6
  21859214.722     6070117.738 6   4721445.62821        19.000           1.219
  21591168.894   -13930458.367 7 -10766865.37122        21.250           2.031
  22616873.901    -8443361.734 6  -6511133.42021        14.750           0.906
  20530783.737    -1635475.424 6  -1266018.30522        17.750           1.969
  23158914.347    -6267753.331 5  -4728231.97921         9.750           0.469
  23046336.612    -7089430.096 5  -5346635.43721        10.750           0.469
 91  6  3 18  7 14.9990000  0  6G18G 2G11G19G16G 6
  21865753.565     6104484.025 6   4748224.46521        18.750           1.281
  21582856.292   -13974141.371 7 -10800904.03122        21.000           2.031
  22614226.417    -8457279.858 6  -6521978.69021        15.500           0.969
  20530860.159    -1635082.078 6  -1265711.81722        17.500           1.844
  23156770.378    -6279000.154 5  -4736995.75221         9.500           0.406
  23038101.151    -7132688.783 5  -5380343.48321        10.750           0.531
 91  6  3 18  7 29.9990000  0  6G18G 2G11G19G16G 6
  21872306.175     6138917.738 6   4775055.84521        18.250           1.250
  21574554.261   -14017757.755 7 -10834890.78022        20.750           2.000
  22611605.034    -8471054.927 6  -6532712.49721        15.750           1.000
  20530941.503    -1634642.014 6  -1265368.92422        17.750           1.875
  23154654.659    -6290120.439 5  -4745660.93721        10.250           0.469
  23029872.089    -7175940.728 5  -5414046.29021        10.500           0.469
 91  6  3 18  7 44.9990000  0  6G18G 2G11G19G16G 6
  21878873.081     6173419.668 6   4801940.36621        17.500           1.313
  21566268.292   -14061306.276 7 -10868824.65622        21.000           2.000
  22609013.347    -8484685.532 6  -6543333.74021        16.500           1.094
  20531036.456    -1634154.049 6  -1264988.70322        17.500           1.906
  23152563.753    -6301113.298 5  -4754226.83521        10.750           0.438
  23021644.401    -7219184.646 5  -5447742.82321        10.000           0.531
 91  6  3 18  7 59.9990000  0  6G18G 2G11G19G16G 6
  21885446.878     6207991.464 6   4828879.34421        16.250           1.281
  21557991.980   -14104785.254 7 -10902704.35122        20.500           2.000
  22606446.620    -8498169.882 6  -6553841.02121        16.250           0.906
  20531138.284    -1633616.433 6  -1264569.79222        18.500           1.844
  23150502.761    -6311977.361 5  -4762692.37921        11.250           0.438
  23013415.534    -7262418.966 5  -5481431.89021        10.250           0.563
 91  6  3 18  8 14.9990000  0  6G18G 2G11G19G16G 6
  21892043.433     6242634.609 6   4855873.92221        17.500           1.313
  21549733.347   -14148192.966 7 -10936528.51022        20.750           2.156
  22603908.128    -8511506.290 6  -6564233.01021        16.000           0.969
  20531251.026    -1633027.576 6  -1264110.96122        17.500           1.906
  23148455.769    -6322710.839 5  -4771056.12221        10.750           0.438
  23005192.878    -7305642.052 5  -5515112.19721        10.750           0.594
 91  6  3 18  8 29.9990000  0  6G18G 2G11G19G16G 6
  21898649.659     6277347.335 6   4882922.70521        17.500           1.250
  21541488.558   -14191530.649 7                        20.750
  22601398.761    -8524696.128 6  -6574510.80321        15.750           1.000
  20531371.753    -1632388.836 6  -1263613.25722        18.250           1.875
  23146434.503    -6333315.278 5  -4779319.34521        10.250           0.438
  22996965.714    -7348855.189 5                        10.000
 91  6  3 18  8 44.9990000  0  6G18G 2G11G19G16G 6
  21905265.730     6312135.834 6   4910030.53821        16.750           1.344
  21533255.409   -14234791.708 7                        20.750
  22598916.550    -8537732.838 6  -6584669.27321        15.000           1.031
  20531507.792    -1631693.642 6  -1263071.55822        18.500           1.844
  23144443.042    -6343784.194 5  -4787476.96821        10.500           0.406
  22988746.987    -7392051.975 5                        10.250
 91  6  3 18  8 59.9990000  0  6G18G 2G11G19G16G 6
  21911902.769     6346992.313 6   4937191.34321        17.750           1.281
  21525034.440   -14277983.721 7                        20.000
  22596462.940    -8550623.930 6  -6594714.27021        14.500           1.000
  20531645.347    -1630949.496 6  -1262491.72222        18.250           1.656
  23142478.823    -6354124.937 5  -4795534.68921        11.250           0.406
  22980527.550    -7435240.106 5                        10.500
 91  6  3 18  9 14.9990000  0  6G18G 2G11G19G16G 6
  21918550.487     6381922.511 6   4964409.58721        18.250           1.406
  21516829.464   -14321100.659 7                        20.500
  22594038.230    -8563363.428 6  -6604641.13621        15.000           1.156
  20531798.565    -1630150.447 6  -1261869.09922        18.000           1.719
  23140535.019    -6364331.811 5  -4803488.13421        10.750           0.594
  22972309.886    -7478413.434 5                        10.250
 91  6  3 18  9 29.9990000  0  6G18G 2G11G19G16G 6
  21925212.315     6416919.747 6   4991680.06421        17.250           1.281
  21508639.136   -14364148.813 7 -11104805.60322        21.250           2.063
  22591643.730    -8575957.611 6  -6614454.77921        15.250           1.156
  20531956.980    -1629302.819 6  -1261208.62322        17.750           1.750
  23138614.019    -6374411.454 5  -4811342.41921        10.750           0.500
  22964100.589    -7521578.562 5  -5683374.32821        11.000           0.656
 91  6  3 18  9 44.9980000  0  6G18G 2G11G19G16G 6
  21931881.061     6451982.904 6   5019001.90321        16.750           1.219
  21500460.834   -14407123.976 7 -11138292.72122        21.000           2.250
  22589272.045    -8588404.269 6  -6624153.45921        15.000           1.219
  20532131.615    -1628405.301 6  -1260509.26222        18.000           1.781
  23136724.670    -6384362.072 5  -4819096.17321        11.250           0.531
  22955887.779    -7564731.113 5  -5716999.67521        11.250           0.594
 91  6  3 18  9 59.9980000  0  6G18G 2G11G19G16G 6
  21938567.084     6487118.087 6   5046379.88621        16.250           1.188
  21492297.772   -14450029.930 7 -11171725.89222        21.000           2.219
  22586934.506    -8600703.264 6  -6633737.06921        15.000           1.188
  20532309.068    -1627456.107 6  -1259769.65622        17.750           1.781
  23134854.357    -6394183.258 5  -4826749.05721        11.500           0.438
  22947678.686    -7607875.198 5  -5750618.42521        11.250           0.594
 91  6  3 18 10 14.9980000  0  6G18G 2G11G19G16G 6
  21945265.459     6522320.222 6   5073810.02721        16.750           1.125
  21484142.936   -14492866.309 7 -11205104.84922        20.250           2.188
  22584622.514    -8612856.055 6  -6643206.77221        15.750           1.031
  20532500.076    -1626457.642 6  -1258991.63122        17.000           1.688
  23133010.740    -6403876.726 6  -4834302.44721        12.000           0.531
  22939470.256    -7651010.401 5  -5784230.23821        11.500           0.531
 91  6  3 18 10 29.9980000  0  6G18G 2G11G19G16G 6
  21951977.936     6557583.201 6   5101287.57821        17.000           1.094
  21476005.857   -14535638.947 7 -11238434.14622        21.250           2.219
  22582334.397    -8624868.574 6  -6652567.15421        14.750           1.063
  20532698.139    -1625415.722 6  -1258179.75922        17.000           1.719
  23131189.295    -6413448.307 6  -4841760.84121        12.000           0.500
  22931260.943    -7694142.597 5  -5817839.73521        10.500           0.500
 91  6  3 18 10 44.9980000  0  6G18G 2G11G19G16G 6
  21958700.732     6592918.926 6   5128821.83021        16.750           1.063
  21467881.287   -14578335.884 7 -11271704.45422        21.000           2.188
  22580078.623    -8636728.691 6  -6661808.80121        15.500           1.094
  20532908.607    -1624318.401 6  -1257324.71822        17.500           1.688
  23129393.006    -6422886.524 5  -4849115.32321        11.500           0.500
  22923054.420    -7737259.796 5  -5851437.52121        10.750           0.469
 91  6  3 18 10 59.9980000  0  6G18G 2G11G19G16G 6
  21965436.748     6628320.680 6   5156407.52321        16.500           1.031
  21459767.334   -14620963.153 7 -11304920.48322        20.500           2.250
  22577851.389    -8648442.522 6  -6670936.44821        16.250           1.094
  20533124.959    -1623171.681 6  -1256431.17722        18.750           1.719
  23127624.053    -6432197.427 5  -4856370.57921        11.500           0.438
  22914853.264    -7780368.268 5  -5885028.52521        10.500           0.500
 91  6  3 18 11 14.9980000  0  6G18G 2G11G19G16G 6
  21972187.201     6663791.460 6   5184046.99521        16.500           1.094
  21451668.912   -14663517.515 7 -11338079.68622        20.250           2.344
  22575648.279    -8660006.930 6  -6679947.65821        16.000           1.031
  20533356.107    -1621972.374 6  -1255496.66522        18.250           1.656
  23125872.256    -6441377.696 5  -4863524.04721        10.750           0.406
  22906649.998    -7823464.815 5  -5918610.22921        10.750           0.438
 91  6  3 18 11 29.9980000  0  6G18G 2G11G19G16G 6
  21978952.412     6699334.783 6   5211742.99321        16.250           1.031
  21443586.842   -14705995.199 7 -11371179.14422        21.000           2.219
  22573477.334    -8671418.214 6  -6688839.54621        15.750           1.000
  20533593.647    -1620716.836 6  -1254518.34022        18.000           1.750
  23124153.881    -6450423.871 5  -4870573.04421        11.250           0.406
  22898452.904    -7866545.821 5  -5952179.81821        11.000           0.469
 91  6  3 18 11 44.9980000  0  6G18G 2G11G19G16G 6
  21985731.232     6734943.498 6   5239489.95621        16.750           1.000
  21435516.779   -14748403.406 7 -11404224.47422        21.250           2.313
  22571332.357    -8682683.510 6  -6697617.69121        15.250           0.906
  20533841.490    -1619412.317 6  -1253501.84422        17.750           1.656
  23122453.865    -6459343.206 5  -4877523.19221        11.250           0.438
  22890254.623    -7909618.503 5  -5985742.91021        10.500           0.531
 91  6  3 18 11 59.9980000  0  6G18G 2G11G19G16G 6
  21992516.037     6770619.194 6   5267289.11721        16.500           0.938
  21427460.764   -14790739.807 7 -11437213.83622        21.500           2.250
  22569219.897    -8693800.617 6  -6706280.35821        16.000           1.031
  20534098.623    -1618056.498 6  -1252445.36722        18.000           1.656
  23120784.303    -6468133.795 5  -4884373.03521        10.750           0.469
  22882060.397    -7952680.587 5  -6019297.76321        10.000           0.469
 91  6  3 18 12 14.9980000  0  6G18G 2G11G19G16G 6
  21999316.217     6806359.912 6   5295138.93021        16.250           1.063
  21419417.100   -14833006.251 7 -11470148.69722        21.750           2.281
  22567129.186    -8704771.214 6  -6714828.86321        15.750           0.938
  20534367.701    -1616651.004 6  -1251350.18822        17.250           1.719
  23119131.123    -6476797.549 5  -4891124.03221         9.750           0.344
  22873871.818    -7995733.853 5  -6052845.73621        10.500           0.500
 91  6  3 18 12 29.9980000  0  6G18G 2G11G19G16G 6
  22006131.076     6842168.640 6   5323041.74821        16.500           0.875
  21411389.764   -14875199.547 7 -11503026.55222        22.500           2.281
  22565072.154    -8715592.199 6  -6723260.78021        16.250           0.938
  20534643.264    -1615192.830 6  -1250213.95722        17.000           1.750
  23117509.022    -6485331.563 5  -4897773.90721         9.500           0.344
  22865676.701    -8038775.309 5  -6086384.52021        10.250           0.406
 91  6  3 18 12 44.9980000  0  6G18G 2G11G19G16G 6
  22012960.232     6878044.018 6   5350996.48821        17.250           0.938
  21403375.748   -14917320.253 7 -11535847.85222        22.250           2.219
  22563042.193    -8726264.315 6  -6731576.69621        17.000           0.969
  20534932.170    -1613682.720 6  -1249037.25422        16.500           1.656
  23115907.092    -6493736.832 5  -4904323.51221        10.250           0.563
  22857489.764    -8081805.714 5  -6119914.68621        10.250           0.344
 91  6  3 18 12 59.9980000  0  6G18G 2G11G19G16G 6
  22019799.506     6913982.066 6   5379000.07121        17.750           0.969
  21395371.693   -14959372.507 7 -11568615.80322        22.000           2.313
  22561037.193    -8736791.730 6  -6739779.86221        16.750           0.906
  20535230.029    -1612124.838 6  -1247823.32922        17.250           1.750
  23114331.193    -6502017.302 5  -4910775.87421        10.250           0.375
  22849306.037    -8124829.298 5  -6153439.53021        10.250           0.406
 91  6  3 18 13 14.9980000  0  6G18G 2G11G19G16G 6
  22026649.240     6949981.688 6   5407051.63421        17.500           1.000
  21387382.639   -15001356.980 7 -11601330.95122        21.000           2.281
  22559063.381    -8747174.833 6  -6747870.57421        17.000           0.938
  20535534.990    -1610519.732 6  -1246572.60622        17.250           1.719
  23112784.490    -6510173.514 5  -4917131.40221        10.750           0.406
  22841116.576    -8167846.569 5  -6186959.43421        10.250           0.531
 91  6  3 18 13 29.9980000  0  6G18G 2G11G19G16G 6
  22033511.256     6986047.336 6   5435154.64121        17.250           0.969
  21379406.084   -15043268.847 7 -11633989.52022        20.750           2.219
  22557114.428    -8757408.820 6  -6755845.09421        17.500           0.969
  20535851.076    -1608862.476 6  -1245281.24522        17.000           1.719
  23111253.826    -6518201.165 5  -4923386.72521        11.250           0.438
  22832934.045    -8210852.693 5  -6220470.67021        10.750           0.531
 91  6  3 18 13 44.9980000  0  6G18G 2G11G19G16G 6
  22040387.850     7022179.584 6   5463309.53921        17.000           1.000
  21371444.022   -15085107.330 7 -11666590.89822        20.750           2.344
  22555194.936    -8767492.988 6  -6763702.86021        17.000           0.813
  20536176.178    -1607152.494 6  -1243948.80122        17.500           1.906
  23109753.967    -6526099.580 5  -4929541.38321        11.250           0.281
  22824753.350    -8253847.036 5  -6253972.74021        11.250           0.406
 91  6  3 18 13 59.9980000  0  6G18G 2G11G19G16G 6
  22047275.006     7058375.685 6   5491514.20421        16.500           0.969
  21363498.342   -15126874.867 7 -11699136.99722        21.750           2.094
  22553303.936    -8777429.715 6  -6771445.74121        16.750           0.906
  20536508.404    -1605392.245 6  -1242577.19022        18.500           1.750
  23108271.201    -6533871.356 5  -4935597.32321        10.500           0.375
  22816573.654    -8296832.186 5  -6287467.63321        10.500           0.531
 91  6  3 18 14 14.9980000  0  6G18G 2G11G19G16G 6
  22054176.600     7094634.248 6   5519767.53321        17.250           1.000
  21355562.920   -15168572.511 7 -11731628.63622        21.750           2.156
  22551440.717    -8787220.328 6  -6779074.76321        17.250           0.875
  20536854.303    -1603582.853 6  -1241167.28222        17.750           1.781
  23106817.240    -6541517.610 5  -4941555.48221        10.250           0.438
  22808391.475    -8339809.227 5  -6320956.20521        10.000           0.500
 91  6  3 18 14 29.9980000  0  6G18G 2G11G19G16G 6
  22061084.397     7130951.175 6   5548066.33921        16.500           1.063
  21347639.811   -15210204.132 7 -11764068.82522        22.000           2.250
  22549603.881    -8796868.688 6  -6786592.94021        17.000           0.875
  20537208.522    -1601728.183 6  -1239722.09222        17.250           1.688
  23105385.162    -6549042.453 5  -4947419.00921        10.250           0.344
  22800214.647    -8382782.178 5  -6354441.60021        10.750           0.406
 91  6  3 18 14 44.9980000  0  6G18G 2G11G19G16G 6
  22068008.928     7167337.919 6   5576419.55021        16.500           1.094
  21339729.123   -15251758.043 7 -11796448.46222        21.250           2.281
  22547798.248    -8806362.998 6  -6793991.07821        17.250           0.813
  20537572.326    -1599816.496 6  -1238232.46822        18.000           1.781
  23103977.420    -6556434.542 5  -4953179.10421         9.750           0.375
  22792039.818    -8425739.366 5  -6387914.69121        10.500           0.469
 91  6  3 18 14 59.9980000  0  6G18G 2G11G19G16G 6
  22074946.514     7203786.941 6   5604821.29921        17.000           1.031
  21331836.834   -15293241.697 7 -11828773.35922        21.500           2.313
  22546019.053    -8815710.572 6  -6801274.87221        17.500           0.844
  20537944.795    -1597855.127 6  -1236704.14422        17.500           1.875
  23102598.654    -6563701.038 5  -4958841.33421        10.750           0.344
  22783866.240    -8468688.008 5  -6421381.13921        10.500           0.469
 91  6  3 18 15 14.9980000  0  6G18G 2G11G19G16G 6
  22081894.779     7240299.664 6   5633272.67121        16.250           0.906
  21323958.451   -15334653.037 7 -11861041.90322        22.250           2.281
  22544269.498    -8824909.634 6  -6808442.95421        17.250           0.875
  20538327.256    -1595842.193 6  -1235135.62922        17.000           1.781
  23101237.061    -6570840.326 5  -4964404.44521        10.000           0.281
  22775695.248    -8511626.356 5  -6454839.56621        11.000           0.438
 91  6  3 18 15 29.9980000  0  6G18G 2G11G19G16G 6
  22088853.842     7276876.857 6   5661774.27221        16.750           1.000
  21316091.787   -15375990.763 7 -11893253.08522        21.750           2.344
  22542547.232    -8833959.176 6  -6815494.53021        17.000           0.844
  20538718.318    -1593776.483 6  -1233525.99722        17.500           1.844
  23099902.490    -6577851.506 5  -4969867.71321         9.500           0.344
  22767528.475    -8554553.311 5  -6488289.11521        11.250           0.531
 91  6  3 18 15 44.9980000  0  6G18G 2G11G19G16G 6
  22095827.857     7313514.944 6   5690323.34521        17.000           1.000
  21308238.662   -15417258.509 7 -11925409.73622        22.500           2.281
  22540852.850    -8842862.630 6  -6822432.24721        17.000           0.750
  20539122.404    -1591661.520 6  -1231877.98222        16.750           1.875
  23098593.225    -6584738.221 5  -4975233.99921         9.250           0.438
  22759359.928    -8597472.417 5  -6521732.55821        11.250           0.594
 91  6  3 18 15 59.9980000  0  6G18G 2G11G19G16G 6
  22102809.436     7350217.067 6   5718922.29721        16.750           1.063
  21300400.475   -15458452.995 7 -11957509.30022        22.500           2.344
  22539188.264    -8851616.568 6  -6829253.47621        17.500           0.813
  20539533.342    -1589493.926 6  -1230188.95822        17.000           1.938
  23097306.748    -6591497.242 5  -4980500.78121         9.250           0.375
  22751195.334    -8640380.375 5  -6555167.30721        11.500           0.563
 91  6  3 18 16 14.9980000  0  6G18G 2G11G19G16G 6
  22109808.123     7386985.872 6   5747573.22121        17.000           1.094
  21292573.936   -15499570.786 7 -11989549.10822        22.000           2.469
  22537549.709    -8860217.878 6  -6835955.77621        16.500           0.781
  20539957.693    -1587270.459 6  -1228456.39822        16.750           1.781
  23096045.350    -6598125.332 5  -4985665.55821         9.750           0.469
  22743036.514    -8683273.937 5  -6588590.82621        11.500           0.625
 91  6  3 18 16 29.9980000  0  6G18G 2G11G19G16G 6
  22116817.615     7423820.992 6   5776275.80221        16.750           1.094
  21284765.154   -15540611.891 7 -12021529.15823        22.500           2.500
  22535942.928    -8868666.501 6  -6842539.08421        16.750           0.844
  20540392.420    -1584991.223 6  -1226680.37522        16.750           1.781
  23094809.303    -6604622.872 5  -4990728.59821        10.500           0.438
  22734874.959    -8726153.136 5  -6622003.17421        11.250           0.719
 91  6  3 18 16 44.9980000  0  6G18G 2G11G19G16G 6
  22123840.318     7460716.406 6   5805025.37221        17.000           1.031
  21276969.490   -15581582.305 7 -12053454.12022        22.250           2.406
  22534361.178    -8876968.430 6  -6849008.10921        16.500           0.875
  20540835.186    -1582662.192 6  -1224865.56122        17.500           1.813
  23093596.865    -6610995.946 5  -4995694.67521        10.000           0.438
  22726717.295    -8769024.070 6  -6655409.07421        12.000           0.656
 91  6  3 18 16 59.9980000  0  6G18G 2G11G19G16G 6
  22130871.889     7497674.035 6   5833823.41921        17.500           1.125
  21269185.279   -15622479.809 7 -12085322.27722        21.500           2.406
  22532811.623    -8885121.567 6  -6855361.18121        16.500           0.688
  20541288.350    -1580281.162 6  -1223010.21822        18.000           1.813
  23092410.670    -6617242.549 5  -5000562.14321        10.250           0.469
  22718560.834    -8811884.546 6  -6688806.83421        12.250           0.719
 91  6  3 18 17 14.9980000  0  6G18G 2G11G19G16G 6
  22137916.928     7534693.124 6   5862669.37221        17.250           1.031
  21261417.428   -15663304.938 7 -12117134.04322        22.000           2.438
  22531286.975    -8893126.424 6  -6861598.70821        16.250           0.844
  20541751.451    -1577848.713 6  -1221114.81222        17.500           1.813
  23091243.678    -6623363.530 5  -5005331.77221        10.500           0.469
  22710406.295    -8854735.135 6  -6722196.87821        12.500           0.594
 91  6  3 18 17 29.9980000  0  6G18G 2G11G19G16G 6
  22144973.701     7571776.375 6   5891565.31421        17.000           1.063
  21253662.857   -15704054.569 7 -12148886.97622        21.750           2.406
  22529792.467    -8900979.827 6  -6867718.21621        16.250           0.938
  20542224.076    -1575361.534 6  -1219176.75922        17.500           1.813
  23090101.287    -6629355.461 5  -5010000.82921         9.000           0.500
  22702256.943    -8897572.681 6  -6755576.75221        12.500           0.656
 91  6  3 18 17 44.9980000  0  6G18G 2G11G19G16G 6
  22152040.295     7608919.400 6   5920507.83821        15.500           1.094
  21245921.482   -15744732.829 7 -12180584.28922        22.000           2.469
  22528328.709    -8908685.901 6  -6873722.92021        17.000           0.813
  20542708.373    -1572823.883 6  -1217199.37822        17.500           1.688
  23088989.943    -6635223.012 5  -5014572.95721         9.500           0.469
  22694105.834    -8940401.331 6  -6788949.68821        13.250           0.688
 91  6  3 18 17 59.9980000  0  6G18G 2G11G19G16G 6
  22159121.068     7646122.075 6   5949496.83421        16.000           1.031
  21238194.287   -15785339.479 7 -12212225.81122        21.750           2.438
  22526888.881    -8916244.534 6  -6879612.75721        16.250           0.906
  20543199.326    -1570235.576 6  -1215182.51922        18.000           1.688
  23087895.350    -6640965.978 5  -5019048.00421         9.250           0.438
  22685958.631    -8983221.008 6  -6822315.64621        12.750           0.656
 91  6  3 18 18 14.9980000  0  6G18G 2G11G19G16G 6
  22166212.912     7683382.257 6   5978530.64321        16.750           1.031
  21230479.951   -15825876.674 7 -12243813.20022        21.500           2.313
  22525477.162    -8923657.935 6  -6885389.40321        16.000           0.844
  20543701.990    -1567598.674 6  -1213127.80122        17.500           1.875
  23086822.592    -6646586.466 5  -5023427.63221         8.750           0.469
  22677810.639    -9026033.827 6  -6855676.26121        12.500           0.688
 91  6  3 18 18 29.9980000  0  6G18G 2G11G19G16G 6
  22173314.756     7720698.386 6   6007608.04921        16.500           1.000
  21222779.686   -15866345.606 7 -12275347.40622        22.000           2.344
  22524095.990    -8930927.430 6  -6891053.93321        16.500           1.031
  20544215.959    -1564914.573 6  -1211036.29622        17.000           1.781
  23085781.397    -6652086.223 5  -5027713.14921         9.500           0.594
  22669665.725    -9068841.077 6  -6889032.52421        12.250           0.625
 91  6  3 18 18 44.9980000  0  6G18G 2G11G19G16G 6
  22180425.787     7758083.805 6   6036739.43821        15.750           1.031
  21215093.076   -15906732.637 7 -12306817.78722        21.500           2.281
  22522741.482    -8938039.318 6  -6896595.64521        16.500           1.094
  20544735.475    -1562169.480 6  -1208897.27822        17.750           1.781
  23084756.162    -6657451.583 5  -5031893.99221         8.750           0.594
  22661519.209    -9111629.174 6  -6922373.85521        12.000           0.625
 91  6  3 18 18 59.9980000  0  6G18G 2G11G19G16G 6
  22187553.084     7795531.702 6   6065919.51721        15.500           0.906
  21207420.865   -15947043.919 7 -12338229.15222        21.750           2.438
  22521415.459    -8944999.770 6  -6902019.35421        15.750           0.938
  20545269.295    -1559369.379 6  -1206715.38722        18.500           1.813
  23083760.826    -6662688.951 5  -5035975.07121         9.250           0.531
  22653382.912    -9154404.193 6  -6955705.00021        12.250           0.688
 91  6  3 18 19 14.9980000  0  6G18G 2G11G19G16G 6
  22194691.279     7833039.159 6   6095146.01921        16.500           0.906
  21199766.897   -15987282.095 7 -12369583.55222        21.750           2.406
  22520120.357    -8951811.530 6  -6907327.20521        16.500           0.938
  20545812.193    -1556517.043 6  -1204492.80722        18.000           1.813
  23082784.287    -6667801.020 5  -5039958.51421         8.500           0.531
  22645241.537    -9197168.880 6  -6989028.11721        12.000           0.719
 91  6  3 18 19 29.9980000  0  6G18G 2G11G19G16G 6
  22201838.857     7870604.289 6   6124417.43921        15.500           1.000
  21192122.982   -16027449.109 7 -12400882.49522        22.250           2.188
  22518854.623    -8958476.623 6  -6912520.76021        17.000           1.063
  20546361.295    -1553614.491 6  -1202231.09022        17.500           1.844
  23081840.037    -6672790.254 5  -5043846.25621         9.750           0.719
  22637104.287    -9239925.240 6  -7022344.72821        12.500           0.688
 91  6  3 18 19 44.9980000  0  6G18G 2G11G19G16G 6
  22209000.428     7908232.213 6   6153737.79621        15.500           0.813
  21184492.623   -16067539.580 7 -12432121.79822        22.500           2.188
  22517613.482    -8964989.767 6  -6917595.92621        17.250           1.063
  20546925.631    -1550656.412 6  -1199926.09722        17.250           1.875
  23080910.826    -6677651.300 5  -5047634.09821         9.500           0.563
  22628975.326    -9282668.015 6  -7055650.77021        13.000           0.594
 91  6  3 18 19 59.9980000  0  6G18G 2G11G19G16G 6
  22216171.154     7945921.480 6   6183105.96921        15.250           0.938
  21176878.311   -16107554.377 7 -12463302.13222        22.500           2.156
  22516398.998    -8971351.904 6  -6922553.40721        15.750           1.094
  20547498.506    -1547643.668 6  -1197578.51222        17.750           1.813
  23080013.756    -6682385.314 5  -5051322.97121         9.500           0.563
  22620844.365    -9325398.195 6  -7088946.98121        13.750           0.563
 91  6  3 18 20 14.9980000  0  6G18G 2G11G19G16G 6
  22223351.740     7983665.408 6   6212516.72021        14.500           0.844
  21169277.264   -16147499.916 7 -12494428.49322        22.500           2.125
  22515217.443    -8977569.425 6  -6927398.21821        16.000           1.125
  20548082.545    -1544582.601 6  -1195193.27122        17.500           1.844
  23079137.537    -6686998.936 5  -5054918.03421        10.000           0.500
  22612712.006    -9368122.168 6  -7122238.35721        13.250           0.594
 91  6  3 18 20 29.9980000  0  6G18G 2G11G19G16G 6
  22230546.795     8021466.987 6   6241972.38821        14.500           0.813
  21161691.975   -16187373.010 7 -12525498.39722        22.500           2.063
  22514060.451    -8983639.131 6  -6932127.86121        16.000           1.188
  20548671.678    -1541470.108 6  -1192767.96722        18.000           1.844
  23078278.607    -6691488.740 5  -5058416.56521         9.250           0.563
  22604584.053    -9410836.638 6  -7155522.32721        13.500           0.594
 91  6  3 18 20 44.9980000  0  6G18G 2G11G19G16G 6
  22237753.631     8059323.629 6   6271470.98121        15.000           0.813
  21154117.193   -16227175.634 7 -12556513.39522        22.250           2.188
  22512938.037    -8989563.210 6  -6936744.01021        16.500           1.188
  20549277.686    -1538308.141 6  -1190304.10022        18.500           1.781
  23077447.123    -6695857.469 5  -5061820.78321         9.750           0.500
  22596454.279    -9453543.730 6  -7188800.54621        12.500           0.594
 91  6  3 18 20 59.9980000  0  6G18G 2G11G19G16G 6
  22244967.256     8097241.879 6   6301017.56721        14.500           0.844
  21146556.209   -16266901.297 7 -12587468.43322        21.750           2.125
  22511837.170    -8995335.128 6  -6941241.59621        16.500           1.188
  20549887.389    -1535090.068 6  -1187796.52522        18.500           1.813
  23076643.326    -6700098.480 5  -5065125.48221        10.500           0.469
  22588332.318    -9496237.008 6  -7222067.99921        13.000           0.781
 91  6  3 18 21 14.9980000  0  6G18G 2G11G19G16G 6
  22252193.162     8135220.247 6   6330611.00221        14.750           0.938
  21139009.201   -16306551.014 7 -12618364.28622        22.000           2.125
  22510768.295    -9000955.984 6  -6945621.46821        16.250           1.188
  20550510.232    -1531817.068 6  -1185246.14822        17.750           1.625
  23075861.967    -6704213.317 5  -5068331.86821        10.750           0.344
  22580210.568    -9538917.525 6  -7255325.51321        13.000           0.719
 91  6  3 18 21 29.9980000  0  6G18G 2G11G19G16G 6
  22259431.764     8173250.934 6   6360245.18721        14.750           0.938
  21131479.326   -16346132.251 7 -12649206.77722        22.000           2.281
  22509726.498    -9006433.450 6  -6949889.61421        16.500           1.156
  20551141.467    -1528496.683 6  -1182658.83922        17.750           1.688
  23075098.912    -6708209.361 5  -5071445.69521        10.250           0.469
  22572089.131    -9581592.896 6  -7288579.02121        12.000           0.656
 91  6  3 18 21 44.9980000  0  6G18G 2G11G19G16G 6
  22266676.100     8211335.118 6   6389921.06821        14.500           1.063
  21123958.389   -16385643.821 7 -12679994.98022        22.250           2.125
  22508710.779    -9011766.253 6  -6954045.03121        16.750           1.281
  20551784.545    -1525127.598 6  -1180033.58822        17.500           1.750
  23074361.701    -6712085.495 5  -5074466.10421         9.750           0.344
  22563970.279    -9624261.720 6  -7321827.42221        12.250           0.563
 91  6  3 18 21 59.9980000  0  6G18G 2G11G19G16G 6
  22273935.662     8249472.045 6   6419638.05421        14.750           0.969
  21116454.787   -16425086.132 7 -12710729.22222        22.250           2.250
  22507724.717    -9016954.763 6  -6958088.01821        16.750           1.219
  20552432.381    -1521710.051 6  -1177370.57322        17.000           1.688
  23073648.311    -6715842.271 5  -5077393.45821         9.750           0.438
  22555852.100    -9666924.511 6  -7355071.12021        12.250           0.656
 91  6  3 18 22 14.9980000  0  6G18G 2G11G19G16G 6
  22281203.147     8287664.237 6   6449398.10621        14.250           0.938
  21108963.951   -16464456.196 7 -12741407.15322        23.000           2.344
  22506765.787    -9021996.133 6  -6962016.34821        17.250           1.250
  20553095.584    -1518241.029 6  -1174667.44922        16.000           1.656
  23072955.912    -6719476.805 5  -5080225.58721        10.500           0.375
  22547732.373    -9709578.239 6  -7388307.76621        12.000           0.594
 91  6  3 18 22 29.9980000  0  6G18G 2G11G19G16G 6
  22288483.217     8325925.088 6   6479211.64221        14.250           0.906
  21101486.732   -16503740.385 7 -12772018.18822        22.500           2.281
  22505836.928    -9026876.882 6  -6965819.52621        17.750           1.219
  20553765.514    -1514707.293 6  -1171913.89822        17.000           1.781
  23072288.834    -6722975.729 5  -5082952.04021        10.500           0.438
  22539623.154    -9752209.437 6  -7421526.86221        12.000           0.688
 91  6  3 18 22 44.9980000  0  6G18G 2G11G19G16G 6
  22295773.654     8364232.007 6   6509061.09521        13.500           0.938
  21094023.147   -16542961.048 7 -12802579.71222        22.750           2.375
  22504932.748    -9031619.317 6  -6969514.92321        18.000           1.125
  20554447.826    -1511130.870 6  -1169127.08722        16.500           1.813
  23071641.982    -6726362.020 5  -5085590.74421        10.250           0.406
  22531511.100    -9794840.516 5  -7454745.84921        11.750           0.594
 91  6  3 18 22 59.9980000  0  6G18G 2G11G19G16G 6
  22303077.467     8402604.541 6   6538961.64821        14.000           0.969
  21086574.318   -16582098.361 7 -12833076.29322        22.250           2.469
  22504060.545    -9036203.635 6  -6973087.11421        17.250           1.063
  20555139.373    -1507492.011 6  -1166291.61722        16.750           1.781
  23071024.147    -6729615.863 5  -5088126.21721         9.750           0.406
  22523401.803    -9837451.582 6  -7487949.23621        12.500           0.625
 91  6  3 18 23 14.9980000  0  6G18G 2G11G19G16G 6
  22310386.795     8441029.452 6   6568903.02821        13.500           0.969
  21079142.295   -16621165.068 7 -12863517.85923        22.500           2.531
  22503216.389    -9040642.658 6  -6976546.08621        17.500           1.000
  20555840.506    -1503803.410 6  -1163417.40422        16.250           1.813
  23070432.092    -6732750.299 5  -5090568.66821        11.250           0.406
  22515294.732    -9880055.484 6  -7521147.04221        13.250           0.563
 91  6  3 18 23 29.9980000  0  6G18G 2G11G19G16G 6
  22317713.139     8479511.221 6   6598888.70721        14.500           0.844
  21071721.279   -16660156.555 7 -12893900.80523        22.250           2.594
  22502400.029    -9044931.852 6  -6979888.31721        17.500           1.188
  20556552.287    -1500060.511 6  -1160500.86722        17.250           1.781
  23069858.311    -6735760.672 5  -5092914.42721        11.250           0.281
  22507192.248    -9922647.509 6  -7554335.59921        13.250           0.688
 91  6  3 18 23 44.9980000  0  6G18G 2G11G19G16G 6
  22325047.631     8518049.235 6   6628918.22521        14.500           0.938
  21064316.834   -16699073.197 7 -12924225.43223        22.500           2.625
  22501610.897    -9049071.694 6  -6983114.16021        17.750           1.094
  20557276.701    -1496263.845 6  -1157542.43222        16.250           1.719
  23069305.232    -6738647.587 5  -5095163.98021        11.000           0.344
  22499085.631    -9965228.105 6  -7587515.24321        12.500           0.781
 91  6  3 18 23 59.9980000  0  6G18G 2G11G19G16G 6
  22332384.920     8556637.257 6   6658986.70721        13.750           0.750
  21056922.061   -16737920.791 7 -12954496.26023        22.750           2.594
  22500851.959    -9053068.095 6  -6986228.22921        17.750           1.156
  20558009.123    -1492419.004 6  -1154546.47222        16.250           1.750
  23068779.389    -6741416.866 6  -5097321.90221        12.000           0.406
  22490983.803   -10007803.188 6  -7620690.60021        12.250           0.750
 91  6  3 18 24 14.9980000  0  6G18G 2G11G19G16G 6
  22339738.287     8595279.164 6   6689097.18421        13.750           0.719
  21049544.592   -16776695.375 7 -12984710.19322        22.750           2.406
  22500116.732    -9056917.178 6  -6989227.51721        17.000           1.094
  20558749.779    -1488522.033 6  -1151509.87922        16.250           1.719
  23068277.045    -6744065.141 6  -5099385.53521        12.250           0.344
  22482885.365   -10050368.740 6  -7653858.51821        12.500           0.781
 91  6  3 18 24 29.9980000  0  6G18G 2G11G19G16G 6
  22347106.209     8633968.821 6   6719244.85721        14.500           0.781
  21042178.865   -16815402.635 7 -13014871.67422        22.250           2.406
  22499411.318    -9060624.614 6  -6992116.42721        17.500           1.156
  20559498.772    -1484578.679 6  -1148437.15022        16.750           1.656
  23067792.303    -6746598.329 5  -5101359.48121        10.750           0.250
  22474787.154   -10092930.534 6  -7687023.51121        12.750           0.656
 91  6  3 18 24 44.9980000  0  6G18G 2G11G19G16G 6
  22354477.256     8672716.515 6   6749437.75421        13.250           0.844
  21034828.084   -16854031.878 7 -13044972.34923        22.250           2.531
  22498736.951    -9064179.862 6  -6994886.74521        18.250           1.250
  20560262.561    -1480578.312 6  -1145319.98822        16.500           1.750
  23067334.506    -6749005.716 5  -5103235.36021        10.000           0.469
  22466689.826   -10135477.944 6  -7720177.29921        12.500           0.688
 91  6  3 18 24 59.9980000  0  6G18G 2G11G19G16G 6
  22361858.467     8711510.607 6   6779666.80121        13.500           0.875
  21027489.139   -16892594.498 7 -13075021.11723        22.250           2.750
  22498085.842    -9067594.459 6  -6997547.47121        17.000           1.094
  20561031.467    -1476532.370 6  -1142167.32322        16.500           1.688
  23066897.826    -6751299.026 5  -5105022.35421        10.500           0.375
  22458593.873   -10178022.402 6  -7753328.79121        12.750           0.594
 91  6  3 18 25 14.9980000  0  6G18G 2G11G19G16G 6
  22369249.303     8750360.991 6   6809939.71421        13.000           0.813
  21020167.303   -16931080.452 7 -13105010.14923        22.750           2.719
  22497468.779    -9070858.311 6  -7000090.72721        18.000           1.031
  20561810.147    -1472430.611 6  -1138971.16022        16.000           1.719
  23066484.904    -6753468.431 5  -5106712.81821        10.750           0.344
  22450498.467   -10220553.754 6  -7786470.05921        12.750           0.563
 91  6  3 18 25 29.9980000  0  6G18G 2G11G19G16G 6
  22376653.662     8789261.203 6   6840251.45621        13.000           0.781
  21012856.920   -16969495.984 7 -13134944.30723        22.500           2.781
  22496871.592    -9073977.660 6  -7002521.40021        17.250           1.188
  20562602.568    -1468279.239 6  -1135736.33622        16.750           1.688
  23066096.623    -6755520.295 5  -5108311.68321        10.750           0.313
  22442407.936   -10263078.174 6  -7819605.94521        12.750           0.563
 91  6  3 18 25 44.9980000  0  6G18G 2G11G19G16G 6
  22384069.295     8828220.280 6   6870609.07521        12.500           0.688
  21005560.107   -17007831.607 7 -13164816.19923        22.250           2.688
  22496307.701    -9076943.335 6  -7004832.31821        17.000           0.969
  20563405.061    -1464068.964 6  -1132455.61422        17.250           1.781
  23065729.084    -6757445.146 5  -5109811.59321        11.250           0.344
  22434317.850   -10305586.326 6  -7852729.13221        12.500           0.563
 91  6  3 18 25 59.9980000  0  6G18G 2G11G19G16G 6
  22391490.436     8867229.373 6   6901005.64921        12.250           0.844
  20998280.928   -17046095.809 7 -13194632.43623        24.000           2.938
  22495771.279    -9079763.808 6  -7007030.09221        16.500           0.938
  20564212.959    -1459808.252 6  -1129135.59322        16.250           1.813
  23065384.568    -6759251.602 5  -5111219.26121        11.500           0.344
  22426230.514   -10348086.731 6  -7885846.31221        13.250           0.625
 91  6  3 18 26 14.9980000  0  6G18G 2G11G19G16G 6
  22398923.803     8906290.862 6   6931443.05521        12.250           0.813
  20991012.326   -17084285.795 7 -13224390.84023        22.750           2.813
  22495263.654    -9082436.385 6  -7009112.62321        16.750           1.000
  20565035.264    -1455494.220 6  -1125774.01722        16.750           1.750
  23065066.037    -6760937.256 5  -5112532.79321        10.500           0.500
  22418145.764   -10390576.664 6  -7918955.30721        13.250           0.656
 91  6  3 18 26 29.9980000  0  6G18G 2G11G19G16G 6
  22406369.342     8945401.742 6   6961918.96621        12.750           0.969
  20983758.389   -17122404.522 7 -13254093.71923        23.000           2.750
  22494782.209    -9084964.024 6  -7011082.22321        16.250           0.969
  20565862.889    -1451129.716 6  -1122373.11622        17.500           1.813
  23064764.311    -6762505.394 5  -5113754.73121        11.000           0.375
  22410062.436   -10433058.998 6  -7952058.38621        13.250           0.688
 91  6  3 18 26 44.9980000  0  6G18G 2G11G19G16G 6
  22413819.350     8984563.549 6   6992434.53321        13.250           0.844
  20976518.232   -17160450.171 7 -13283739.65423        23.250           2.875
  22494329.061    -9087345.005 6  -7012937.52321        16.000           0.781
  20566706.709    -1446712.872 6  -1118931.43622        16.500           1.875
  23064489.818    -6763954.383 5  -5114883.82221        11.250           0.438
  22401981.029   -10475531.866 6  -7985154.09221        13.750           0.656
 91  6  3 18 26 59.9980000  0  6G18G 2G11G19G16G 6
  22421283.334     9023778.814 6   7022991.76921        13.750           0.906
  20969294.170   -17198419.845 7 -13313326.38523        23.500           2.750
  22493903.553    -9089576.608 6  -7014676.43721        15.500           0.906
  20567556.990    -1442241.050 6  -1115446.91122        16.250           1.781
  23064238.272    -6765281.617 5  -5115918.06221        11.500           0.375
  22393901.139   -10517992.579 6  -8018240.32821        13.500           0.563
 91  6  3 18 27 14.9980000  0  6G18G 2G11G19G16G 6
  22428758.764     9063045.835 6   7053589.32921        14.250           0.719
  20962081.764   -17236314.792 7 -13342854.89423        22.750           2.719
  22493507.100    -9091660.151 6  -7016299.97821        15.500           0.813
  20568418.506    -1437715.328 6  -1111920.38322        16.500           1.750
  23064007.686    -6766488.541 5  -5116858.54521        11.750           0.438
  22385822.568   -10560442.380 6  -8051318.05721        14.000           0.688
 91  6  3 18 27 29.9980000  0  6G18G 2G11G19G16G 6
  22436238.772     9102362.051 6   7084225.22921        14.250           0.844
  20954884.186   -17274137.432 7 -13372327.05723        22.250           2.781
  22493137.467    -9093598.129 6  -7017810.09521        15.500           0.813
  20569289.147    -1433138.283 6  -1108353.86722        16.500           1.938
  23063801.217    -6767577.614 5  -5117707.18621        10.250           0.406
  22377746.529   -10602883.640 6  -8084389.13421        14.000           0.594
 91  6  3 18 27 44.9980000  0  6G18G 2G11G19G16G 6
  22443729.561     9141726.682 6   7114898.85921        13.500           0.781
  20947700.334   -17311888.447 7 -13401743.41223        23.000           2.875
  22492796.154    -9095391.156 6  -7019207.26521        14.500           0.750
  20570169.826    -1428510.355 6  -1104747.70622        16.000           1.938
  23063613.912    -6768549.818 5  -5118464.77121        10.750           0.563
  22369671.889   -10645317.113 6  -8117454.14221        14.500           0.781
 91  6  3 18 27 59.9980000  0  6G18G 2G11G19G16G 6
  22451226.772     9181139.061 6   7145609.67721        13.250           0.750
  20940530.889   -17349568.114 7 -13431104.17023        22.500           2.906
  22492485.607    -9097039.744 6  -7020491.87821        15.750           0.844
  20571058.654    -1423831.914 6  -1101102.17922        16.750           1.813
  23063456.686    -6769405.486 5  -5119131.55521        10.500           0.438
  22361598.443   -10687742.941 6  -8150513.20621        14.250           0.656
 91  6  3 18 28 14.9980000  0  6G18G 2G11G19G16G 6
  22458740.490     9220615.786 6   7176370.65721        13.500           0.719
  20933377.287   -17387159.426 7 -13460396.07523        22.750           2.813
  22492200.623    -9098527.098 6  -7021650.85121        15.250           0.844
  20571963.459    -1419086.001 6  -1097404.08122        16.500           1.906
  23063316.920    -6770128.061 5  -5119694.62721        10.000           0.438
  22353528.850   -10730144.275 6  -8183553.17321        14.000           0.719
 91  6  3 18 28 29.9980000  0  6G18G 2G11G19G16G 6
  22466261.951     9260145.572 6   7207172.98521        13.500           0.625
  20926238.795   -17424673.543 7 -13489627.82323        22.250           2.719
  22491944.607    -9099864.386 6  -7022692.90121        15.500           0.938
  20572877.686    -1414283.792 6  -1093662.11222        17.750           1.875
  23063202.397    -6770728.900 5  -5120162.83921        10.500           0.406
  22345459.350   -10772532.334 6  -8216582.80521        13.000           0.688
 91  6  3 18 28 44.9980000  0  6G18G 2G11G19G16G 6
  22473793.311     9299719.314 6   7238009.55921        13.500           0.781
  20919113.537   -17462119.153 7 -13518806.19523        22.000           2.719
  22491718.897    -9101060.327 6  -7023624.80021        16.000           0.813
  20573802.397    -1409433.786 6  -1089882.89522        17.250           1.906
  23063108.795    -6771216.756 5  -5120542.99421        10.500           0.375
  22337393.818   -10814915.597 6  -8249608.70121        12.750           0.625
 91  6  3 18 28 59.9980000  0  6G18G 2G11G19G16G 6
  22481336.928     9339352.718 6   7268892.60121        13.500           0.594
  20912002.889   -17499480.378 7 -13547918.81623        21.500           2.656
  22491522.186    -9102099.082 6  -7024434.21321        16.000           0.969
  20574737.350    -1404520.076 6  -1086054.03722        17.250           1.813
  23063040.389    -6771576.055 5  -5120822.99321        10.250           0.375
  22329334.975   -10857278.122 6  -8282618.42421        12.500           0.594
 91  6  3 18 29 14.9980000  0  6G18G 2G11G19G16G 6
  22488890.381     9379041.795 6   7299819.02221        13.000           0.750
  20904908.865   -17536760.522 7 -13576968.25023        22.500           2.656
  22491353.193    -9102984.138 6  -7025123.87821        16.250           0.844
  20575681.170    -1399546.023 6  -1082178.15922        17.250           1.813
  23062994.022    -6771810.539 5  -5121005.68421        10.000           0.406
  22321279.037   -10899623.579 6  -8315614.83721        13.000           0.656
 91  6  3 18 29 29.9980000  0  6G18G 2G11G19G16G 6
  22496451.779     9418779.471 6   7330783.31921        13.750           0.656
  20897829.248   -17573966.823 7 -13605960.14323        22.000           2.688
  22491210.732    -9103722.817 6  -7025699.47721        16.250           0.750
  20576636.428    -1394518.895 6  -1078260.92922        17.500           1.813
  23062974.006    -6771927.511 5                         9.500
  22313220.857   -10941958.981 6  -8348603.44021        13.750           0.625
 91  6  3 18 29 44.9980000  0  6G18G 2G11G19G16G 6
  22504021.600     9458567.547 6   7361786.91121        12.500           0.625
  20890764.764   -17611096.933 7 -13634892.67223        22.000           2.688
  22491100.029    -9104312.829 6  -7026159.22421        17.250           0.938
  20577604.904    -1389436.062 6  -1074300.29822        16.750           1.844
  23062977.131    -6771924.702 5                        10.000
  22305169.303   -10984281.946 6  -8381582.34321        14.250           0.688
 91  6  3 18 29 59.9980000  0  6G18G 2G11G19G16G 6
  22511603.311     9498403.026 6   7392827.42221        13.000           0.719
  20883710.537   -17648153.967 7 -13663768.25523        21.000           2.719
  22491015.397    -9104757.366 6  -7026505.60621        16.250           0.938
  20578584.732    -1384300.760 6  -1070298.77222        17.250           1.969
  23062995.709    -6771805.310 5                         9.500
  22297114.748   -11026595.700 6  -8414554.07821        14.500           0.719
 91  6  3 18 30 14.9980000  0  6G18G 2G11G19G16G 6
  22519192.522     9538287.023 6   7423905.73321        13.250           0.656
  20876672.498   -17685136.179 7 -13692585.54023        21.250           2.719
  22490957.865    -9105054.871 6  -7026737.43021        16.000           0.906
  20579570.115    -1379111.453 6  -1066255.16522        17.250           1.844
  23063039.170    -6771567.908 5                         8.000
  22289065.451   -11068898.406 6  -8447517.18821        14.750           0.688
 91  6  3 18 30 29.9980000  0  6G18G 2G11G19G16G 6
  22526791.045     9578212.933 6   7455016.71321        13.250           0.688
  20869648.967   -17722049.822 7 -13721349.38723        22.000           2.688
  22490930.686    -9105211.703 6                        17.250
  20580565.701    -1373874.211 6  -1062174.21522        17.250           1.875
  23063107.717    -6771219.115 5                         8.000
  22281016.342   -11111196.387 6  -8480476.61721        14.500           0.719
 91  6  3 18 30 44.9980000  0  6G18G 2G11G19G16G 6
  22534397.842     9618195.095 6   7486171.51721        13.500           0.656
  20862641.107   -17758880.325 7 -13750048.44923        21.750           2.750
  22490929.740    -9105213.512 6                        15.750
  20581575.693    -1368574.535 6  -1058044.61222        17.000           1.875
  23063197.154    -6770744.456 5  -5120175.13621         7.750           0.344
  22272970.318   -11153475.161 6  -8513421.08421        15.000           0.813
 91  6  3 18 30 59.9980000  0  6G18G 2G11G19G16G 6
  22542017.295     9658233.735 6   7517370.32221        13.750           0.625
  20855648.912   -17795627.262 7 -13778682.39823        22.000           2.719
  22490955.459    -9105059.934 6                        15.750
  20582596.490    -1363212.011 6  -1053866.03322        16.000           1.906
  23063314.240    -6770143.873 5  -5119707.14121         8.250           0.438
  22264930.365   -11195734.266 6  -8546350.22421        15.500           0.844
 91  6  3 18 31 14.9980000  0  6G18G 2G11G19G16G 6
  22549647.232     9698324.601 6   7548609.83121        13.750           0.656
  20848669.943   -17832294.650 7 -13807254.37023        21.500           2.750
  22491017.131    -9104754.998 6                        16.750
  20583628.912    -1357790.477 6  -1049641.46722        16.750           2.063
  23063450.006    -6769421.481 5  -5119144.26521         8.750           0.438
  22256891.826   -11237977.552 6  -8579267.04021        15.250           0.719
 91  6  3 18 31 29.9980000  0  6G18G 2G11G19G16G 6
  22557288.029     9738466.567 6   7579889.16521        14.000           0.656
  20841707.412   -17868883.259 7 -13835764.94323        21.000           2.781
  22491104.061    -9104299.389 6  -7026148.72921        16.250           0.875
  20584670.584    -1352310.547 6  -1045371.40622        16.750           2.031
  23063609.225    -6768578.342 5  -5118487.30521         9.250           0.531
  22248853.600   -11280205.789 6  -8612172.13121        15.500           0.750
 91  6  3 18 31 44.9980000  0  6G18G 2G11G19G16G 6
  22564933.357     9778657.573 6   7611206.72121        13.750           0.688
  20834758.678   -17905394.694 7 -13864215.38723        21.750           2.844
  22491218.311    -9103695.073 6  -7025677.81321        16.250           0.844
  20585722.100    -1346774.030 6  -1041057.25022        16.250           1.938
  23063790.912    -6767616.609 5  -5117737.94521         9.250           0.406
  22240822.529   -11322420.867 6  -8645066.96621        15.250           0.844
 91  6  3 18 31 59.9980000  0  6G18G 2G11G19G16G 6
  22572590.607     9818891.102 6   7642557.38021        13.750           0.688
  20827825.490   -17941835.476 7 -13892610.77323        22.000           2.750
  22491359.131    -9102948.659 6  -7025096.19821        15.750           1.000
  20586785.998    -1341187.520 6  -1036704.14122        17.250           1.875
  23063997.397    -6766542.819 5  -5116901.24921         8.500           0.531
  22232791.631   -11364629.136 6  -8677956.50021        15.250           0.875
 91  6  3 18 32 14.9980000  0  6G18G 2G11G19G16G 6
  22580257.553     9859175.888 6   7673947.99021        14.000           0.594
  20820906.420   -17978196.479 7 -13920943.99623        22.500           2.750
  22491529.209    -9102050.983 6  -7024396.70021        15.750           0.938
  20587861.975    -1335541.817 6  -1032304.91122        17.250           1.844
  23064227.865    -6765347.888 5  -5115970.15121         9.000           0.531
  22224761.264   -11406821.328 6  -8710833.49121        14.250           0.813
 91  6  3 18 32 29.9980000  0  6G18G 2G11G19G16G 6
  22587931.764     9899510.359 6   7705377.34021        13.500           0.688
  20814002.936   -18014479.033 7 -13949216.08923        23.750           2.750
  22491726.576    -9101003.510 6  -7023580.48321        15.250           0.938
  20588947.232    -1329838.020 6  -1027860.41122        17.500           1.813
  23064477.834    -6764033.119 5  -5114945.65921         9.500           0.313
  22216731.772   -11448998.841 6  -8743699.05221        13.500           0.781
 91  6  3 18 32 44.9980000  0  6G18G 2G11G19G16G 6
  22595617.826     9939890.428 6   7736842.20821        13.250           0.688
  20807110.764   -18050687.009 7 -13977430.06823        23.250           2.750
  22491957.717    -9099810.225 6  -7022650.64021        16.250           1.000
  20590041.936    -1324080.202 6  -1023373.81222        16.500           1.813
  23064744.592    -6762602.754 5  -5113831.13121         9.000           0.406
  22208708.123   -11491165.524 6  -8776556.17021        13.500           0.781
 91  6  3 18 32 59.9980000  0  6G18G 2G11G19G16G 6
  22603311.068     9980321.127 6   7768346.51021        13.000           0.625
  20800237.756   -18086814.665 7 -14005581.46723        23.250           2.719
  22492214.147    -9098465.526 6  -7021602.82621        17.000           0.938
  20591146.436    -1318262.475 6  -1018840.53122        16.500           1.844
  23065044.232    -6761051.651 5  -5112622.49121        10.000           0.406
  22200684.951   -11533315.741 6  -8809400.46721        12.750           0.719
 91  6  3 18 33 14.9980000  0  6G18G 2G11G19G16G 6
  22611012.967    10020799.897 6   7799888.27421        12.750           0.688
  20793375.920   -18122864.733 7 -14033672.40623        22.750           2.781
  22492498.217    -9096972.329 6  -7020439.28721        17.000           1.031
  20592267.873    -1312387.626 6  -1014262.74222        16.250           1.906
  23065360.709    -6759382.779 5  -5111322.10121        10.000           0.469
  22192669.420   -11575452.204 6  -8842234.04921        13.750           0.719
 91  6  3 18 33 29.9980000  0  6G18G 2G11G19G16G 6
  22618725.600    10061332.904 6   7831472.31421        12.500           0.719
  20786532.717   -18158830.621 7 -14061697.75223        22.750           2.750
  22492810.725    -9095324.142 6  -7019154.97021        17.000           0.844
  20593396.029    -1306448.729 6  -1009635.04622        17.000           1.781
  23065699.779    -6757589.428 5  -5109924.71221         9.750           0.344
  22184655.725   -11617568.241 6  -8875051.71321        14.250           0.750
 91  6  3 18 33 44.9980000  0  6G18G 2G11G19G16G 6
  22626450.232    10101910.806 6   7863091.33621        12.500           0.625
  20779704.022   -18194721.434 7 -14089664.58423        22.750           2.656
  22493152.295    -9093530.361 6  -7017757.20821        17.000           0.906
  20594540.147    -1300455.184 6  -1004964.77022        17.000           1.781
  23066060.951    -6755681.225 5  -5108437.80821         9.250           0.406
  22176642.443   -11659672.987 6  -8907860.55921        14.000           0.688
 91  6  3 18 33 59.9980000  0  6G18G 2G11G19G16G 6
  22634180.389    10142530.755 6   7894743.10621        13.000           0.750
  20772886.498   -18230539.636 7 -14117574.84823        22.500           2.625
  22493522.006    -9091593.389 6                        17.500
  20595685.334    -1294409.392 6  -1000253.77422        16.750           1.875
  23066450.936    -6753660.980 5                         9.750
  22168631.443   -11701768.927 6  -8940662.56321        13.750           0.656
 91  6  3 18 34 14.9980000  0  6G18G 2G11G19G16G 6
  22641916.350    10183197.298 6   7926431.18521        12.500           0.750
  20766087.303   -18266280.281 7 -14145424.68523        24.000           2.563
  22493916.951    -9089508.497 6                        16.750
  20596850.068    -1288306.266 6   -995498.10222        16.250           1.781
  23066858.264    -6751523.510 5                        10.500
  22160624.654   -11743851.090 6  -8973453.83021        13.500           0.719
 91  6  3 18 34 29.9980000  0  6G18G 2G11G19G16G 6
  22649663.365    10223911.313 5   7958156.26121        11.750           0.594
  20759300.115   -18301942.291 7 -14173213.23723        23.750           2.656
  22494339.436    -9087274.619 6                        17.000
  20598021.795    -1282144.948 6   -990697.08822        17.000           1.719
  23067288.107    -6749268.146 5                        10.250
  22152621.232   -11785918.309 6  -9006233.45721        13.750           0.781
 91  6  3 18 34 44.9980000  0  6G18G 2G11G19G16G 6
  22657418.654    10264670.393 6   7989916.44421        12.250           0.688
  20752527.998   -18337527.645 7 -14200942.06323        24.000           2.688
  22494795.272    -9084893.838 6                        17.250
  20599205.506    -1275927.242 6   -985852.13922        16.500           1.781
  23067740.982    -6746897.048 5                        11.000
  22144618.975   -11827972.651 6  -9039003.04221        13.750           0.719
 91  6  3 18 34 59.9980000  0  6G18G 2G11G19G16G 6
  22665188.857    10305472.323 6   8021710.02521        13.250           0.563
  20745768.701   -18373038.360 7 -14228612.72923        23.000           2.594
  22495276.154    -9082368.287 6                        17.500
  20600396.772    -1269654.975 6   -980964.68122        16.250           1.781
  23068211.584    -6744412.530 5                        10.750
  22136617.529   -11870015.992 6  -9071764.04621        13.750           0.813
 91  6  3 18 35 14.9980000  0  6G18G 2G11G19G16G 6
  22672956.553    10346317.160 6   8053537.04721        12.250           0.500
  20739027.709   -18408474.395 7 -14256225.20823        24.000           2.656
  22495782.740    -9079698.113 6                        17.000
  20601604.826    -1263328.271 6   -976034.80122        16.000           1.719
  23068704.561    -6741814.988 5                         9.500
  22128619.100   -11912048.302 6  -9104516.46221        14.500           0.688
 91  6  3 18 35 29.9980000  0  6G18G 2G11G19G16G 6
  22680738.607    10387203.085 6   8085396.05021        12.750           0.563
  20732298.240   -18443837.210 7 -14283780.62723        24.000           2.594
  22496320.248    -9076884.867 6  -7004786.62221        17.000           0.781
  20602817.990    -1256948.507 6   -971063.58122        16.000           1.688
  23069222.264    -6739105.575 5  -5095522.41221        10.250           0.531
  22120621.326   -11954071.021 6  -9137261.39921        13.500           0.781
 91  6  3 18 35 44.9980000  0  6G18G 2G11G19G16G 6
  22688526.982    10428134.977 6   8117290.92521        12.750           0.438
  20725580.693   -18479121.602 7 -14311274.93423        22.250           2.531
  22496884.982    -9073923.539 6  -7002479.07621        18.250           0.750
  20604041.092    -1250510.667 6   -966047.09422        15.500           1.656
  23069756.998    -6736279.790 5  -5093320.51621        11.000           0.375
  22112630.006   -11996078.976 6  -9169994.83121        13.750           0.844
 91  6  3 18 35 59.9980000  0  6G18G 2G11G19G16G 6
  22696326.881    10469109.342 6   8149218.86921        12.500           0.531
  20718882.975   -18514330.778 7 -14338710.63423        23.500           2.625
  22497472.639    -9070817.277 6  -7000058.61221        17.250           0.906
  20605276.311    -1244017.683 6   -960987.64222        16.500           1.813
  23070316.287    -6733340.932 5  -5091030.51521        10.750           0.375
  22104635.584   -12038075.275 6  -9202719.18421        13.750           0.906
 91  6  3 18 36 14.9980000  0  6G18G 2G11G19G16G 6
  22704130.412    10510127.316 6   8181180.79921        12.750           0.469
  20712198.959   -18549463.073 7 -14366086.42523        24.250           2.656
  22498092.225    -9067564.734 6  -6997524.16221        17.000           0.906
  20606524.803    -1237467.870 6   -955883.90822        16.000           1.844
  23070899.553    -6730287.772 5  -5088651.47521        11.000           0.469
  22096647.904   -12080058.318 6  -9235433.21721        13.250           0.938
 91  6  3 18 36 29.9980000  0  6G18G 2G11G19G16G 6
  22711942.522    10551192.933 6   8213179.85121        12.250           0.500
  20705527.162   -18584514.498 7 -14393399.20023        24.250           2.500
  22498737.139    -9064161.976 6  -6994872.65521        15.750           0.719
  20607784.170    -1230857.204 6   -950732.76222        16.500           1.906
  23071504.545    -6727116.556 5  -5086180.40721        10.000           0.438
  22088657.982   -12122024.084 6  -9268133.77421        13.250           0.813
 91  6  3 18 36 44.9980000  0  6G18G 2G11G19G16G 6
  22719769.076    10592301.733 6   8245212.56121        13.000           0.594
  20698871.061   -18619489.015 7 -14420652.05423        23.750           2.594
  22499414.436    -9060613.108 6  -6992107.28621        16.750           0.813
  20609053.990    -1224189.656 6   -945537.27422        16.250           1.781
  23072129.998    -6723831.176 5  -5083620.38621        10.250           0.344
  22080678.537   -12163976.521 6  -9300823.96121        13.250           0.938
 91  6  3 18 36 59.9980000  0  6G18G 2G11G19G16G 6
  22727599.170    10633457.175 6   8277281.59721        12.500           0.500
  20692233.076   -18654382.983 7 -14447842.14323        24.750           2.531
  22500119.342    -9056914.522 6  -6989225.25421        16.500           0.781
  20610330.623    -1217461.430 6   -940294.52222        16.500           1.844
  23072776.256    -6720428.184 5  -5080968.74621        10.250           0.344
  22072697.295   -12205911.869 6  -9333500.81721        13.750           0.844
 91  6  3 18 37 14.9980000  0  6G18G 2G11G19G16G 6
  22735440.240    10674655.118 5   8309383.76421        11.750           0.469
  20685606.897   -18689200.233 7 -14474972.45723        24.750           2.531
  22500851.240    -9053070.314 6  -6986229.75821        17.250           0.719
  20611624.553    -1210676.514 6   -935007.60122        15.750           1.906
  23073445.303    -6716911.983 5  -5078228.86321        10.000           0.344
  22064720.467   -12247834.033 6  -9366167.41021        14.000           0.906
 91  6  3 18 37 29.9980000  0  6G18G 2G11G19G16G 6
  22743287.100    10715894.877 5   8341518.49621        11.250           0.438
  20678996.139   -18723941.291 7 -14502043.40023        25.500           2.594
  22501609.154    -9049081.146 6  -6983121.30521        17.000           0.813
  20612925.717    -1203835.469 6   -929676.93922        15.500           1.781
  23074130.561    -6713283.262 5  -5075401.34021         9.250           0.469
  22056746.357   -12289743.559 6  -9398824.14521        14.000           0.875
 91  6  3 18 37 44.9980000  0  6G18G 2G11G19G16G 6
  22751146.732    10757188.936 5   8373695.56421        11.750           0.531
  20672400.068   -18758593.302 7 -14529044.94023        24.500           2.688
  22502399.748    -9044934.220 6  -6979889.91121        16.500           0.813
  20614237.357    -1196925.215 6   -924292.33422        15.250           1.781
  23074852.584    -6709529.144 5  -5072476.07221         8.750           0.438
  22048771.701   -12331627.458 6  -9431460.92221        13.750           0.906
 91  6  3 18 37 59.9980000  0  6G18G 2G11G19G16G 6
  22759012.881    10798529.255 5   8405908.65421        11.000           0.688
  20665822.772   -18793164.210 7 -14555983.29723        25.000           2.688
  22503218.584    -9040637.435 6  -6976541.77521        16.750           0.875
  20615565.451    -1189953.489 6   -918859.83922        15.500           1.813
  23075582.904    -6705657.914 5  -5069459.54721         8.750           0.344
  22040805.686   -12373493.556 6  -9464083.81721        13.750           0.844
 91  6  3 18 38 14.9980000  0  6G18G 2G11G19G16G 6
  22766886.014    10839911.744 5   8438154.59221        10.000           0.469
  20659260.256   -18827657.524 7 -14582861.19023        25.250           2.750
  22504062.537    -9036194.641 6  -6973079.85221        17.500           0.969
  20616904.764    -1182924.116 6   -913382.42822        15.500           1.906
  23076341.225    -6701673.571 5  -5066354.91021         9.000           0.344
  22032842.412   -12415345.450 6  -9496695.65421        13.500           0.906
 91  6  3 18 38 29.9980000  0  6G18G 2G11G19G16G 6
  22774767.631    10881340.368 5   8470436.48821        10.250           0.563
  20652710.475   -18862069.386 7 -14609675.61123        24.750           2.813
  22504934.803    -9031602.026 6  -6969501.19221        16.250           0.813
  20618253.006    -1175832.978 6   -907856.89222        15.750           1.906
  23077124.592    -6697572.142 5  -5063159.01921         9.250           0.406
  22024884.865   -12457179.113 6  -9529293.27521        13.750           0.938
 91  6  3 18 38 44.9980000  0  6G18G 2G11G19G16G 6
  22782658.381    10922805.145 5   8502746.56021         9.500           0.531
  20646175.811   -18896409.154 7 -14636433.85523        24.750           2.813
  22505835.936    -9026869.235 6  -6965813.29021        16.000           0.875
  20619612.193    -1168689.425 6   -902290.51022        15.750           1.875
  23077927.076    -6693363.488 5  -5059879.60221         9.750           0.344
  22016923.787   -12499004.025 6  -9561884.08121        14.000           0.875
 91  6  3 18 38 59.9980000  0  6G18G 2G11G19G16G 6
  22790558.248    10964309.407 5   8535087.39721         9.750           0.594
  20639656.428   -18930673.080 7 -14663133.00223        25.250           2.938
  22506766.162    -9021992.705 6  -6962013.39521        16.500           0.906
  20620978.951    -1161489.816 6   -896680.45422        16.250           1.844
  23078749.154    -6689044.263 5  -5056513.98421        10.000           0.281
  22008966.467   -12540816.464 6  -9594465.16621        13.750           0.844
 91  6  3 18 39 14.9980000  0  6G18G 2G11G19G16G 6
  22798463.623    11005856.363 5   8567461.48021         9.750           0.500
  20633151.350   -18964858.042 7 -14689770.61923        25.000           2.875
  22507719.631    -9016969.553 6  -6958099.24021        16.000           1.000
  20622363.647    -1154231.064 6   -891024.30822        15.250           1.813
  23079591.701    -6684611.588 5  -5053060.03421         9.750           0.250
  22001013.436   -12582613.255 6  -9627034.05821        14.500           0.875
 91  6  3 18 39 29.9980000  0  6G18G 2G11G19G16G 6
  22806378.881    11047445.048 5   8599868.09621         9.500           0.500
  20626661.639   -18998964.315 7 -14716346.92023        25.000           2.938
  22508702.740    -9011800.118 6  -6954071.10921        15.250           0.875
  20623756.967    -1146913.298 6   -885322.17622        15.500           1.813
  23080455.842    -6680065.867 5  -5049517.95921         9.250           0.375
  21993063.998   -12624394.721 6  -9659590.99221        15.500           0.875
 91  6  3 18 39 44.9980000  0  6G18G 2G11G19G16G 6
  22814299.014    11089065.894 5   8632299.77521        10.500           0.563
  20620183.420   -19033001.178 7 -14742869.13623        25.000           2.938
  22509711.881    -9006493.806 6  -6949936.32021        15.500           0.906
  20625158.193    -1139545.819 6   -879581.30922        15.500           1.781
  23081342.139    -6675416.513 5  -5045895.10721         9.750           0.281
  21985113.881   -12666169.998 6  -9692143.12021        15.250           1.000
 91  6  3 18 39 59.9980000  0  6G18G 2G11G19G16G 6
  22822226.475    11130732.353 5   8664766.99721        10.750           0.563
  20613723.459   -19066955.178 7 -14769326.78023        24.750           2.969
  22510752.951    -9001037.229 6  -6945684.44021        15.500           0.844
  20626572.553    -1132115.063 6   -873791.12622        15.500           1.844
  23082247.553    -6670650.192 5  -5042181.13221         9.250           0.375
  21977168.834   -12707925.563 6  -9724679.88121        15.000           1.000
 91  6  3 18 40 14.9980000  0  6G18G 2G11G19G16G 6
  22830163.818    11172450.506 5   8697274.51521        11.000           0.594
  20607277.943   -19100820.175 7 -14795715.07723        24.500           3.031
  22511823.467    -8995424.268 6  -6941310.70321        16.250           0.813
  20627998.975    -1124614.735 6   -867946.73822        15.750           1.750
  23083177.975    -6665761.036 5  -5038371.43821         9.750           0.281
  21969226.951   -12749655.236 6  -9757196.46421        14.750           0.906
 91  6  3 18 40 29.9980000  0  6G18G 2G11G19G16G 6
  22838112.092    11214210.740 5   8729814.81721        10.750           0.469
  20600848.186   -19134604.990 7 -14822040.89523        24.250           3.000
  22512918.256    -8989664.082 6  -6936822.24621        16.250           0.813
  20629436.779    -1117053.803 6   -862055.13022        16.000           1.750
  23084130.264    -6660758.143 5  -5034473.13421         8.750           0.375
  21961288.850   -12791367.776 6  -9789699.69621        14.000           0.938
 91  6  3 18 40 44.9980000  0  6G18G 2G11G19G16G 6
  22846067.928    11256012.988 5   8762387.84021        11.250           0.625
  20594434.936   -19168309.806 7 -14848304.36723        24.500           2.938
  22514039.084    -8983756.798 6  -6932219.16821        15.000           0.750
  20630888.451    -1109432.311 6   -856116.32522        15.500           1.781
  23085101.256    -6655642.181 5  -5030486.71421         8.750           0.344
  21953353.357   -12833063.315 6  -9822189.68121        14.000           0.938
 91  6  3 18 40 59.9980000  0  6G18G 2G11G19G16G 6
  22854028.584    11297857.392 5   8794993.71921        11.000           0.469
  20588036.397   -19201934.098 7 -14874505.10423        24.000           2.844
  22515193.272    -8977702.215 6  -6927501.30321        15.500           0.688
  20632350.662    -1101749.725 6   -850129.90922        15.750           1.781
  23086097.412    -6650412.847 5  -5026411.95121         9.000           0.219
  21945422.006   -12874741.421 6  -9854666.08321        14.250           0.844
 91  6  3 18 41 14.9980000  0  6G18G 2G11G19G16G 6
  22861999.123    11339738.419 5   8827628.11421        11.000           0.406
  20581652.225   -19235483.225 7 -14900647.26623        24.500           3.000
  22516371.256    -8971505.783 6  -6922672.91621        15.000           0.719
  20633824.451    -1094011.292 6   -844099.98822        15.250           1.750
  23087116.045    -6645075.578 5  -5022253.08421         9.000           0.344
  21937493.248   -12916407.283 6  -9887132.94921        14.250           0.938
 91  6  3 18 41 29.9980000  0  6G18G 2G11G19G16G 6
  22869980.084    11381661.219 5   8860295.09321        11.750           0.344
  20575284.686   -19268951.903 7 -14926726.73623        24.750           2.938
  22517579.272    -8965162.355 6  -6917729.97921        15.000           0.688
  20635308.787    -1086211.655 6   -838022.37622        15.250           1.844
  23088147.279    -6639625.218 5  -5018006.08821         7.750           0.188
  21929571.217   -12958055.543 6  -9919586.10721        15.500           0.938
 91  6  3 18 41 44.9980000  0  6G18G 2G11G19G16G 6
  22877963.928    11423629.236 5   8892997.30221        11.500           0.406
  20568929.576   -19302336.050 7 -14952740.34723        23.500           3.063
  22518814.584    -8958668.141 6  -6912669.56321        15.000           0.719
  20636803.678    -1078347.039 6   -831894.12322        15.750           1.906
  23089207.818    -6634058.416 5  -5013668.39221         8.000           0.344
  21921647.990   -12999682.283 6  -9952022.48621        15.750           0.938
 91  6  3 18 41 59.9980000  0  6G18G 2G11G19G16G 6
  22885956.225    11465638.224 5   8925731.43021        10.750           0.406
  20562592.904   -19335639.611 7 -14978691.15523        24.000           2.938
  22520079.170    -8952027.175 6  -6907494.76921        15.250           0.750
  20638310.561    -1070420.986 6   -825718.00422        16.000           1.938
  23090290.381    -6628379.156 5  -5009243.02521         9.000           0.406
  21913731.232   -13041291.261 6  -9984445.02721        15.750           0.938
 91  6  3 18 42 14.9980000  0  6G18G 2G11G19G16G 6
  22893961.607    11507686.205 5   8958495.95521        10.750           0.438
  20556271.115   -19368864.387 7 -15004580.56823        24.500           3.063
  22521370.467    -8945241.320 6  -6902207.09021        15.500           0.781
  20639833.615    -1062435.495 6   -819495.56122        16.250           1.844
  23091390.904    -6622589.490 5  -5004731.63721         7.750           0.344
  21905815.607   -13082884.232 6 -10016855.09121        15.250           0.875
 91  6  3 18 42 29.9980000  0  6G18G 2G11G19G16G 6
  22901971.373    11549771.110 5   8991289.22821        10.250           0.531
  20549963.834   -19402012.159 7 -15030409.98823        24.500           3.094
  22522687.084    -8938312.544 6  -6896808.04421        15.000           0.813
  20641365.022    -1054392.116 6   -813228.01322        16.500           1.844
  23092515.045    -6616691.471 5  -5000135.80121         8.750           0.219
  21897902.904   -13124462.964 6 -10049254.06121        15.500           1.000
 91  6  3 18 42 44.9980000  0  6G18G 2G11G19G16G 6
  22909985.686    11591897.077 5   9024114.51121        10.000           0.406
  20543670.279   -19435078.634 7 -15056176.04723        24.250           3.000
  22524035.006    -8931236.760 6  -6891294.46021        14.750           0.875
  20642905.654    -1046286.598 6   -806912.04422        16.500           1.906
  23093658.459    -6610680.891 5  -4995452.28321         9.000           0.250
  21889993.256   -13166023.180 6 -10081638.59821        15.500           0.969
 91  6  3 18 42 59.9980000  0  6G18G 2G11G19G16G 6
  22918022.615    11634125.633 5   9057019.73521         9.750           0.344
  20537403.740   -19468001.983 7 -15081830.58223        23.750           2.969
  22525422.506    -8923952.336 6  -6885618.28021        15.500           0.781
  20644470.943    -1038057.103 6   -800499.46722        16.500           1.906
  23094837.115    -6604496.303 5  -4990633.16121         9.000           0.188
  21882102.420   -13207502.989 6 -10113960.48421        16.250           0.969
 91  6  3 18 43 14.9980000  0  6G18G 2G11G19G16G 6
  22926073.678    11676416.939 5   9089973.85021         9.250           0.344
  20531161.381   -19500821.836 7 -15107404.48023        25.000           3.031
  22526840.561    -8916498.976 6  -6879810.47221        15.000           0.875
  20646054.482    -1029743.213 6   -794021.13222        15.750           1.844
  23096042.107    -6598177.503 5  -4985709.45521         9.500           0.281
  21874215.787   -13248941.862 6 -10146250.48321        16.500           0.969
 91  6  3 18 43 29.9980000  0  6G18G 2G11G19G16G 6
  22934123.951    11718742.900 5   9122954.94321         8.000           0.344
  20524930.232   -19533565.904 7 -15132919.31623        25.500           2.969
  22528283.389    -8908904.486 6  -6873892.69021        14.500           0.688
  20647648.951    -1021372.690 6   -787498.66422        15.250           1.938
  23097261.342    -6591752.301 5  -4980702.84721         9.500           0.188
  21866333.803   -13290367.476 6 -10178530.14221        16.500           1.031
 91  6  3 18 43 44.9980000  0  6G18G 2G11G19G16G 6
  22942188.420    11761119.049 5   9155975.14721         8.250           0.500
  20518715.693   -19566218.536 7 -15158362.91223        25.250           2.938
  22529759.912    -8901153.460 6  -6867852.92021        15.250           0.781
  20649253.397    -1012929.687 6   -780919.72422        15.500           1.844
  23098508.584    -6585205.358 5  -4975601.39821         9.750           0.281
  21858453.936   -13331764.203 6 -10210787.29821        16.000           1.094
 91  6  3 18 43 59.9970000  0  6G18G 2G11G19G16G 6
  22950258.462    11803523.829 5   9189017.68021         8.250           0.469
  20512517.228   -19598795.828 7 -15183747.79623        25.500           3.063
  22531259.970    -8893264.802 6  -6861705.90721        14.250           0.750
  20650873.087    -1004433.034 6   -774298.97522        15.750           1.875
  23099773.251    -6578555.880 5  -4970420.04021         9.250           0.344
  21850578.634   -13373147.433 6 -10243033.93421        16.000           0.969
 91  6  3 18 44 14.9970000  0  6G18G 2G11G19G16G 6
  22958338.610    11845973.098 5   9222094.85921         9.000           0.469
  20506331.962   -19631291.601 7 -15209069.16023        25.000           3.125
  22532791.259    -8885227.214 6  -6855442.86521        14.500           0.813
  20652499.423     -995871.204 6   -767627.43422        15.750           1.875
  23101063.993    -6571792.880 5  -4965150.22521         8.750           0.375
  21842707.353   -13414512.273 6 -10275266.25221        15.750           0.969
 91  6  3 18 44 29.9970000  0  6G18G 2G11G19G16G 6
  22966426.571    11888462.557 5   9255203.38221         9.750           0.563
  20500164.173   -19663705.036 7 -15234326.36123        25.250           3.063
  22534344.454    -8877042.697 6  -6849065.32821        13.750           0.844
  20654140.892     -987245.913 6   -760906.45222        16.000           2.000
  23102368.767    -6564918.033 5  -4959793.28521         9.500           0.313
  21834842.032   -13455857.047 6 -10307482.91821        15.750           1.125
 91  6  3 18 44 44.9970000  0  6G18G 2G11G19G16G 6
  22974522.321    11931028.855 5   9288371.76521        10.000           0.469
  20494019.579   -19695999.161 7 -15259490.59323        26.000           3.063
  22535938.915    -8868674.376 6  -6842544.54621        13.750           0.875
  20655802.907     -978520.200 6   -754107.22022        15.250           1.938
  23103704.267    -6557894.794 5  -4954320.65321         8.500           0.344
  21826983.712   -13497144.805 6 -10339655.17021        15.500           1.000
 91  6  3 18 44 59.9970000  0  6G18G 2G11G19G16G 6
  22982639.040    11973694.188 5   9321617.33421         9.750           0.469
  20487901.899   -19728151.860 7 -15284544.62723        26.000           3.094
  22537569.618    -8860100.217 6  -6835863.39821        14.000           0.813
  20657484.985     -969671.611 6   -747212.23522        15.250           1.938
  23105073.149    -6550700.997 5  -4948715.14721         9.000           0.250
  21819141.368   -13538353.296 6 -10371765.64021        15.750           0.875
 91  6  3 18 45 14.9970000  0  6G18G 2G11G19G16G 6
  22990779.329    12016465.477 5   9354945.45421        10.000           0.281
  20481810.204   -19760155.457 7 -15309482.48123        25.750           2.969
  22539245.337    -8851312.792 6  -6829016.06221        14.750           0.844
  20659192.712     -960692.594 6   -740215.61822        15.000           1.906
  23106478.907    -6543329.442 5  -4942971.13421         9.500           0.406
  21811317.298   -13579474.758 6 -10403808.30921        16.000           0.813
 91  6  3 18 45 29.9970000  0  6G18G 2G11G19G16G 6
  22998962.368    12059467.768 5   9388453.58921        10.000           0.375
  20475774.423   -19791884.593 7 -15334206.46123        26.000           3.156
  22540978.524    -8842186.979 6                        13.500
  20660950.767     -951457.949 6                        16.250
  23107935.696    -6535655.019 5  -4936991.09121         9.000           0.375
  21803530.688   -13620383.983 6 -10435685.58621        15.750           0.844
 91  6  3 18 45 44.9970000  0  6G18G 2G11G19G16G 6
  23007150.634    12102507.762 5   9421991.09321        10.000           0.406
  20469751.712   -19823532.768 7 -15358867.36623        25.750           3.063
  22542746.306    -8832916.367 6                        13.750
  20662719.478     -942160.987 6   -725775.44722        15.750           1.719
  23109420.009    -6527871.488 5  -4930926.03321         9.250           0.281
  21795748.376   -13661274.200 6 -10467548.06821        15.500           0.813
 91  6  3 18 45 59.9970000  0  6G18G 2G11G19G16G 6
  23015350.110    12145589.881 5   9455561.43221        10.000           0.375
  20463743.931   -19855094.999 7 -15383461.29523        25.000           3.094
  22544539.806    -8823496.185 6                        14.750
  20664499.813     -932796.618 6   -718478.54822        15.750           1.750
  23110918.329    -6519974.392 5  -4924772.50821         8.500           0.313
  21787973.063   -13702140.638 6 -10499392.01021        15.750           0.813
 91  6  3 18 46 14.9970000  0  6G18G 2G11G19G16G 6
  23023555.540    12188712.226 5   9489163.10421         9.500           0.500
  20457754.642   -19886572.794 7 -15407989.42123        25.500           3.156
  22546360.353    -8813928.104 6                        15.000
  20666295.704     -923366.474 6   -711130.39422        15.750           1.875
  23112448.196    -6511965.045 5  -4918531.49721         8.750           0.406
  21780199.845   -13742984.607 6 -10531218.45221        15.500           0.688
 91  6  3 18 46 29.9970000  0  6G18G 2G11G19G16G 6
  23031769.306    12231873.303 5   9522794.97021         9.000           0.406
  20451780.259   -19917967.443 7 -15432452.76923        25.500           3.125
  22548206.446    -8804213.582 6        -0.40731        15.000           0.719
  20668103.103     -913871.793 6   -703731.96222        16.250           1.844
  23113990.235    -6503845.312 5  -4912204.47121         8.750           0.375
  21772431.829   -13783807.366 6 -10563028.36921        16.000           0.813
 91  6  3 18 46 44.9970000  0  6G18G 2G11G19G16G 6
  23039987.259    12275065.698 5   9556451.21421         8.500           0.375
  20445822.024   -19949286.122 7 -15456856.91723        26.000           3.125
  22550082.134    -8794360.020 6      7677.69021        15.500           0.969
  20669922.884     -904319.647 6   -696288.75422        15.750           1.906
  23115556.017    -6495622.749 5  -4905797.33321         8.750           0.406
  21764667.673   -13824616.034 6 -10594827.31221        16.000           0.844
 91  6  3 18 46 59.9970000  0  6G18G 2G11G19G16G 6
  23048213.915    12318289.127 5   9590131.64821         8.500           0.469
  20439874.165   -19980528.856 7 -15481201.88423        25.000           3.125
  22551986.915    -8784367.496 6     15464.07121        16.250           0.906
  20671749.728     -894709.970 6   -688800.71722        16.250           1.969
  23117139.837    -6487297.591 5  -4899310.25221         9.000           0.406
  21756903.493   -13865410.539 6 -10626615.20821        16.000           0.844
 91  6  3 18 47 14.9970000  0  6G18G 2G11G19G16G 6
  23056446.899    12361541.491 5   9623834.64021         8.750           0.344
  20433943.446   -20011697.491 7 -15505489.10523        25.000           2.969
  22553913.751    -8774238.063 6     23357.12221        16.000           0.875
  20673589.220     -885044.622 6   -681269.29722        15.750           2.063
  23118743.001    -6478871.646 5  -4892744.63121         9.000           0.344
  21749144.251   -13906192.547 6 -10658393.36921        16.250           0.844
 91  6  3 18 47 29.9970000  0  6G18G 2G11G19G16G 6
  23064685.399    12404822.653 5   9657560.05621         8.750           0.250
  20428025.688   -20042792.039 7 -15529718.60923        25.250           2.906
  22555863.048    -8763972.068 6     31356.59521        15.750           0.844
  20675438.173     -875323.645 6   -673694.53322        16.250           1.938
  23120367.376    -6470345.259 5  -4886100.72321         9.000           0.438
  21741385.118   -13946962.166 6 -10690161.87721        15.750           0.875
 91  6  3 18 47 44.9970000  0  6G18G 2G11G19G16G 6
  23072926.837    12448136.211 5   9691310.74521         8.750           0.313
  20422124.751   -20073808.520 7 -15553887.27623        25.500           2.938
  22557844.423    -8753565.529 6     39465.57821        15.750           0.875
  20677301.368     -865542.865 6   -666073.16422        16.500           1.906
  23122011.696    -6461714.838 5  -4879375.74521         9.500           0.438
  21733629.970   -13987715.260 6 -10721917.50421        15.250           0.938
 91  6  3 18 47 59.9970000  0  6G18G 2G11G19G16G 6
  23081178.024    12491484.661 5   9725088.61121         8.250           0.375
  20416238.657   -20104744.071 7 -15577992.87823        26.000           2.844
  22559854.134    -8743015.822 6     47686.11721        16.750           0.750
  20679175.032     -855699.414 6   -658402.96922        16.000           1.938
  23123672.384    -6452977.689 5  -4872567.61121         9.500           0.406
  21725879.751   -14028448.807 6 -10753657.89821        15.750           1.031
 91  6  3 18 48 14.9970000  0  6G18G 2G11G19G16G 6
  23089429.759    12534854.911 5   9758883.43821         8.000           0.313
  20410362.938   -20135611.818 7 -15602045.64823        25.750           2.906
  22561886.142    -8732336.238 6     56007.85321        16.250           0.781
  20681055.899     -845806.255 6   -650694.03222        15.750           1.969
  23125346.720    -6444147.234 5  -4865686.76821         9.250           0.313
  21718129.720   -14069176.018 6 -10785393.35521        16.000           0.969
 91  6  3 18 48 29.9970000  0  6G18G 2G11G19G16G 6
  23097685.321    12578250.751 5   9792698.20221         8.000           0.313
  20404502.665   -20166407.512 7 -15626042.27123        25.000           3.031
  22563942.907    -8721522.885 6     64433.82721        16.250           0.719
  20682947.517     -835859.137 6   -642943.05622        16.250           1.844
  23127054.704    -6435219.696 5  -4858730.31621        10.500           0.375
  21710379.892   -14109892.627 6 -10817120.55121        16.000           0.875
 91  6  3 18 48 44.9970000  0  6G18G 2G11G19G16G 6
  23105950.876    12621681.575 5   9826540.26521         8.500           0.531
  20398657.423   -20197121.432 7 -15649975.16923        24.500           3.031
  22566029.056    -8710566.181 6     72971.51321        16.000           0.844
  20684854.282     -825848.285 6   -635142.40922        15.750           1.844
  23128772.337    -6426185.637 5  -4851690.83721        10.000           0.406
  21702634.790   -14150588.769 6 -10848831.79021        16.250           1.000
 91  6  3 18 48 59.9970000  0  6G18G 2G11G19G16G 6
  23114225.446    12665149.951 5   9860411.58621         8.500           0.406
  20392830.110   -20227750.739 7 -15673842.14623        25.750           2.875
  22568139.181    -8699463.470 6     81622.96821        15.500           0.906
  20686771.126     -815770.838 6   -627289.87322        15.500           1.813
  23130509.657    -6417042.438 5  -4844566.32821         8.750           0.406
  21694896.267   -14191261.554 6 -10880524.84121        15.750           0.875
 91  6  3 18 49 14.9970000  0  6G18G 2G11G19G16G 6
  23122501.399    12708646.854 5   9894305.10821         8.500           0.469
  20387015.056   -20258304.306 7 -15697650.10523        24.750           2.906
  22570281.329    -8688223.631 6     90381.26621        16.250           0.906
  20688701.782     -805635.607 6   -619392.31022        15.500           1.750
  23132266.657    -6407798.894 5  -4837363.62221         9.750           0.313
  21687160.024   -14231919.723 6 -10912206.49421        16.250           0.844
 91  6  3 18 49 29.9970000  0  6G18G 2G11G19G16G 6
  23130780.446    12752170.770 5   9928219.68321         8.000           0.438
  20381216.517   -20288783.208 7 -15721399.88223        25.500           3.094
  22572443.267    -8676848.003 6     99245.37621        15.750           0.938
  20690638.313     -795443.690 6   -611450.57922        15.750           1.781
  23134048.290    -6398456.447 5  -4830083.84721         9.750           0.406
  21679425.563   -14272564.353 6 -10943877.59821        16.000           0.875
 91  6  3 18 49 44.9970000  0  6G18G 2G11G19G16G 6
  23139069.290    12795723.444 5   9962156.67321         8.500           0.438
  20375431.962   -20319185.649 7 -15745090.07423        25.750           2.938
  22574635.157    -8665334.887 6    108216.63321        15.250           0.875
  20692589.767     -785193.217 6   -603463.21822        15.250           1.844
  23135841.103    -6389013.458 5  -4822725.71421         8.750           0.313
  21671695.337   -14313193.436 6 -10975536.58421        16.750           0.813
 91  6  3 18 49 59.9970000  0  6G18G 2G11G19G16G 6
  23147363.853    12839307.106 5   9996117.81221         8.750           0.500
  20369660.024   -20349509.406 7 -15768718.95823        25.500           2.906
  22576855.087    -8653682.222 6    117296.61621        15.750           0.875
  20694554.384     -774881.819 6   -595428.39022        15.500           1.906
  23137657.118    -6379468.184 5  -4815287.88621         9.000           0.281
  21663967.142   -14353804.662 6 -11007181.65921        17.000           0.938
 91  6  3 18 50 14.9970000  0  6G18G 2G11G19G16G 6
  23155664.970    12882924.450 5  10030105.19321         9.000           0.438
  20363905.884   -20379751.042 7 -15792283.85223        26.000           3.031
  22579097.360    -8641886.892 6    126487.77621        15.250           0.750
  20696526.337     -764506.156 6   -587343.48422        15.250           1.844
  23139496.399    -6369817.692 5  -4807768.07321         8.750           0.250
  21656242.024   -14394394.719 6 -11038810.24821        16.750           0.906
 91  6  3 18 50 29.9970000  0  6G18G 2G11G19G16G 6
  23163965.688    12926573.761 5  10064117.50921         8.500           0.344
  20358165.009   -20409911.935 7 -15815785.82923        25.250           2.969
  22581370.149    -8629950.313 6    135788.99421        15.000           0.656
  20698513.985     -754067.356 6   -579209.38022        15.500           1.875
  23141353.470    -6360063.520 5  -4800167.47421         9.750           0.250
  21648523.392   -14434964.750 6 -11070423.22721        17.000           1.000
 91  6  3 18 50 44.9970000  0  6G18G 2G11G19G16G 6
  23172284.603    12970256.280 5  10098155.67321         8.500           0.219
  20352442.532   -20439990.854 7 -15839223.93823        26.250           2.906
  22583663.735    -8617871.585 6    145200.98221        14.000           0.781
  20700511.196     -743564.256 6   -571025.17022        15.500           1.875
  23143230.149    -6350204.534 5  -4792485.20121        10.000           0.375
  21640806.149   -14475513.524 6 -11102019.63121        17.000           1.063
 91  6  3 18 50 59.9970000  0  6G18G 2G11G19G16G 6
  23180604.517    13013965.471 5  10132214.63321         9.250           0.469
  20346734.938   -20469993.940 7 -15862602.94823        27.000           3.000
  22585989.993    -8605656.980 6    154718.84321        14.250           0.688
  20702523.095     -733002.986 6   -562795.63022        14.750           2.000
  23145124.282    -6340247.158 5  -4784726.25721         9.750           0.344
  21633091.712   -14516047.121 6 -11133604.22221        16.750           1.094
 91  6  3 18 51 14.9970000  0  6G18G 2G11G19G16G 6
  23188924.657    13057699.262 5  10166292.74221         9.250           0.469
  20341036.274   -20499923.075 7 -15885924.33123        26.000           2.844
  22588342.759    -8593308.635 6    164340.91021        14.750           0.688
  20704541.860     -722385.437 6   -554522.23722        15.250           1.844
  23147037.837    -6330193.649 5  -4776892.42321         9.750           0.438
  21625381.431   -14556567.312 6 -11165178.36221        16.750           1.031
 91  6  3 18 51 29.9970000  0  6G18G 2G11G19G16G 6
  23197252.806    13101456.755 5  10200389.34021         8.250           0.469
  20335356.204   -20529778.953 7 -15909188.62623        26.500           2.875
  22590717.438    -8580827.399 6    174066.53621        14.500           0.750
  20706570.837     -711712.191 6   -546205.44622        15.750           1.688
  23148963.946    -6320044.870 5  -4768984.33821         8.250           0.313
  21617671.376   -14597074.675 6 -11196742.52321        16.500           1.156
 91  6  3 18 51 44.9970000  0  6G18G 2G11G19G16G 6
  23205581.368    13145237.898 5  10234504.36321         8.250           0.469
  20329688.720   -20559561.205 7 -15932395.56723        26.500           2.906
  22593116.478    -8568213.155 6    183895.79621        14.750           0.781
  20708617.860     -700982.918 6   -537844.99122        15.750           1.875
  23150913.001    -6309800.841 5  -4761002.05021         8.250           0.344
  21609965.681   -14637568.896 6 -11228296.43221        16.250           1.125
 91  6  3 18 51 59.9970000  0  6G18G 2G11G19G16G 6
  23213918.392    13189047.128 5  10268641.24421         8.250           0.531
  20324036.728   -20589265.229 7 -15955541.54223        26.250           2.969
  22595545.634    -8555461.373 6    193832.25321        15.250           0.719
  20710669.321     -690192.909 6   -529437.22022        14.750           1.781
  23152882.251    -6299457.184 5  -4752942.08521         8.500           0.313
  21602264.665   -14678045.167 6 -11259836.34821        16.750           1.094
 91  6  3 18 52 14.9970000  0  6G18G 2G11G19G16G 6
  23222258.884    13232877.995 5  10302795.02421         8.750           0.438
  20318396.165   -20618897.097 7 -15978631.29223        25.750           3.031
  22597995.329    -8542578.350 6    203870.95921        14.250           0.781
  20712732.915     -679348.172 6   -520986.79322        15.750           1.781
  23154872.759    -6289020.392 5  -4744809.58221         9.000           0.313
  21594563.688   -14718509.535 6 -11291366.98621        15.750           1.063
 91  6  3 18 52 29.9970000  0  6G18G 2G11G19G16G 6
  23230603.946    13276733.294 5  10336967.84321         8.500           0.438
  20312772.165   -20648454.012 7 -16001662.63023        26.750           3.156
  22600469.868    -8529561.383 6    214014.03021        14.000           0.781
  20714806.009     -668445.870 6   -512491.51522        14.750           1.844
  23156875.837    -6278487.738 5  -4736602.37021         8.500           0.344
  21586865.868   -14758959.068 6 -11322886.06321        15.250           1.031
 91  6  3 18 52 44.9970000  0  6G18G 2G11G19G16G 6
  23238951.696    13320613.297 5  10371159.87921         7.750           0.469
  20307162.696   -20677935.437 7 -16024635.14923        26.500           3.094
  22602973.532    -8516410.124 6    224261.75221        14.250           0.719
  20716893.103     -657485.308 6   -503950.83722        15.250           1.875
  23158894.587    -6267858.859 5  -4728320.20221         7.500           0.281
  21579172.142   -14799393.032 6 -11354393.01721        15.500           1.000
 91  6  3 18 52 59.9970000  0  6G18G 2G11G19G16G 6
  23247301.595    13364517.832 5  10405371.06121         7.500           0.344
  20301565.938   -20707341.045 7 -16047548.58723        25.500           3.000
  22605501.728    -8503124.540 6    234614.15421        14.000           0.781
  20718988.103     -646466.187 6   -495364.53522        16.250           1.781
  23160937.735    -6257133.790 5  -4719963.07921         7.500           0.250
  21571482.595   -14839811.057 6 -11385887.54721        15.750           1.125
 91  6  3 18 53 14.9970000  0  6G18G 2G11G19G16G 6
  23255665.563    13408448.320 5  10439602.43321         7.750           0.313
  20295985.095   -20736669.290 7 -16070401.74623        25.000           2.844
  22608056.954    -8489703.492 6    245072.11121        15.000           0.688
  20721099.243     -635386.904 6   -486731.34422        15.500           1.813
  23162997.485    -6246311.546 4  -4711530.22321         7.250           0.406
  21563793.696   -14880211.753 6 -11417368.57021        16.250           1.031
 91  6  3 18 53 29.9970000  0  6G18G 2G11G19G16G 6
  23264033.938    13452397.472 5  10473848.40621         7.750           0.313
  20290418.563   -20765927.157 7 -16093200.06023        25.000           2.875
  22610636.618    -8476154.050 6    255630.10421        15.000           0.750
  20723216.704     -624254.413 6   -478056.70922        16.250           1.781
  23165072.071    -6235399.165 4  -4703027.11521         7.000           0.344
  21556107.220   -14920601.917 6 -11448841.38921        16.250           1.063
 91  6  3 18 53 44.9970000  0  6G18G 2G11G19G16G 6
  23272404.610    13496370.823 5  10508113.16121         8.500           0.344
  20284864.720   -20795108.581 7 -16115938.81123        24.750           2.781
  22613238.579    -8462470.331 6    266292.72121        15.000           0.906
  20725343.946     -613062.725 6   -469335.93422        15.250           1.719
  23167168.853    -6224390.894 4  -4694449.31521         7.250           0.313
  21548425.665   -14960975.430 6 -11480301.20921        17.250           1.000
 91  6  3 18 53 59.9970000  0  6G18G 2G11G19G16G 6
  23280774.829    13540372.372 5  10542399.96521         8.500           0.344
  20279326.532   -20824209.611 7 -16138614.91823        24.750           2.906
  22615867.454    -8448648.564 6    277062.91921        14.750           0.688
  20727490.298     -601807.702 6   -460565.80922        15.500           1.688
  23169283.165    -6213283.314 4  -4685794.10821         7.250           0.250
  21540745.728   -15001328.171 6 -11511744.88321        17.000           0.969
 91  6  3 18 54 14.9970000  0  6G18G 2G11G19G16G 6
  23289152.626    13584394.059 5  10576702.38221         8.750           0.375
  20273802.548   -20853238.149 7 -16161234.53423        25.250           2.844
  22618523.798    -8434696.921 6    287934.31421        14.750           0.719
  20729640.579     -590497.117 6                        15.500
  23171415.485    -6202084.253 5                         7.750
  21533069.454   -15041667.902 6 -11543178.40421        16.000           0.969
 91  6  3 18 54 29.9970000  0  6G18G 2G11G19G16G 6
  23297534.853    13628440.264 5  10611023.93421         8.500           0.406
  20268294.149   -20882189.501 7 -16183794.00923        25.500           2.844
  22621207.032    -8420610.868 6    298910.46221        14.750           0.750
  20731801.993     -579126.256 6                        16.250
  23173567.071    -6190789.431 5                         8.000
  21525393.993   -15081989.948 6 -11574598.14721        15.750           1.063
 91  6  3 18 54 44.9970000  0  6G18G 2G11G19G16G 6
  23305921.931    13672512.409 5  10645365.70221         8.500           0.375
  20262800.368   -20911062.100 7 -16206292.11423        26.250           2.781
  22623910.853    -8406388.796 6    309992.57221        14.000           0.719
  20733979.782     -567693.351 6                        16.000
  23175734.540    -6179397.262 4                         7.250
  21517727.540   -15122292.298 6 -11606002.53821        15.750           1.000
 91  6  3 18 54 59.9970000  0  6G18G 2G11G19G16G 6
  23314313.149    13716603.623 5  10679722.35321         9.000           0.313
  20257320.001   -20939862.362 7 -16228733.85323        26.000           2.813
  22626641.212    -8392037.488 6    321175.38721        13.750           0.844
  20736166.282     -556204.845 6                        16.250
  23177919.431    -6167914.536 5                         8.000
  21510059.985   -15162581.576 6 -11637396.74521        16.250           1.031
 91  6  3 18 55 14.9970000  0  6G18G 2G11G19G16G 6
  23322705.134    13760717.868 5  10714096.93921         8.250           0.250
  20251853.384   -20968586.279 7 -16251116.10523        26.250           2.906
  22629397.813    -8377553.073 6    332461.92721        14.500           0.750
  20738362.704     -544656.581 6                        15.750
  23180125.431    -6156337.416 5                         9.000
  21502396.274   -15202853.479 6 -11668777.41521        15.750           1.000
 91  6  3 18 55 29.9970000  0  6G18G 2G11G19G16G 6
  23331100.556    13804858.117 5  10748491.77421         8.250           0.219
  20246403.228   -20997230.531 7 -16273436.27723        26.250           2.844
  22632178.907    -8362932.513 6    343854.56721        14.500           0.656
  20740572.313     -533045.216 6                        16.250
  23182348.454    -6144663.069 5                         8.500
  21494736.595   -15243104.744 6 -11700141.99721        16.000           1.000
 91  6  3 18 55 44.9970000  0  6G18G 2G11G19G16G 6
  23339510.532    13849022.888 5  10782905.77621         9.000           0.156
  20240966.235   -21025796.213 7 -16295695.23223        25.750           2.906
  22634989.556    -8348177.168 6    355352.22521        15.250           0.719
  20742794.923     -521372.116 6   -397888.88322        15.500           1.656
  23184583.907    -6132893.013 5                         9.750
  21487080.673   -15283336.362 6 -11731491.27521        16.500           0.875
 91  6  3 18 55 59.9970000  0  6G18G 2G11G19G16G 6
  23347920.946    13893221.251 5  10817345.90121         7.750           0.375
  20235549.118   -21054273.922 7 -16317885.63523        27.500           3.031
  22637824.063    -8333277.768 6    366962.13021        14.750           0.781
  20745031.204     -509627.652 6   -388737.38122        14.500           1.594
  23186842.790    -6121017.969 5  -4656041.47021         9.000           0.156
  21479430.696   -15323538.904 6 -11762817.89921        16.000           0.938
 91  6  3 18 56 14.9970000  0  6G18G 2G11G19G16G 6
  23356336.853    13937438.760 5  10851800.95121         8.000           0.250
  20230142.603   -21082677.885 7 -16340018.57123        27.500           2.906
  22640685.368    -8318248.750 6    378673.04221        15.000           0.781
  20747274.626     -497825.987 6   -379541.29722        15.500           1.656
  23189120.321    -6109052.592 5  -4646717.86221         9.250           0.313
  21471782.392   -15363726.454 6 -11794132.83621        15.250           0.906
 91  6  3 18 56 29.9970000  0  6G18G 2G11G19G16G 6
  23364751.931    13981673.701 5  10886269.57421         7.750           0.156
  20224750.337   -21111009.462 7 -16362095.10123        27.250           2.969
  22643567.978    -8303091.713 6    390483.70621        14.250           0.781
  20749532.743     -485968.452 6   -370301.68922        15.750           1.625
  23191413.571    -6096998.413 5  -4637325.08921         9.250           0.250
  21464140.001   -15403900.334 6 -11825437.12421        15.750           0.844
 91  6  3 18 56 44.9970000  0  6G18G 2G11G19G16G 6
  23373175.462    14025927.443 5  10920752.84821         8.250           0.250
  20219374.274   -21139267.221 7 -16384114.11823        27.500           3.031
  22646478.204    -8287805.430 6    402395.08021        14.500           0.688
  20751797.884     -474053.525 6   -361017.35022        15.750           1.656
  23193721.407    -6084854.205 5  -4627862.11121         9.250           0.281
  21456499.532   -15444058.964 6 -11856729.53621        16.250           0.906
 91  6  3 18 56 59.9970000  0  6G18G 2G11G19G16G 6
  23381602.017    14070203.132 5  10955253.22721         8.250           0.219
  20214011.743   -21167447.981 7 -16406073.12023        27.500           2.969
  22649410.353    -8272386.782 6    414409.61021        13.750           0.781
  20754078.767     -462077.893 6   -351685.71122        16.250           1.781
  23196055.103    -6072617.241 5  -4618326.88221         9.750           0.188
  21448859.946   -15484198.905 6 -11888007.37121        16.250           0.969
 91  6  3 18 57 14.9970000  0  6G18G 2G11G19G16G 6
  23390030.915    14114498.171 5  10989768.70521         7.750           0.156
  20208662.173   -21195554.103 7 -16427973.98023        26.750           2.844
  22652368.899    -8256838.310 6    426525.27521        13.500           0.750
  20756367.806     -450043.795 6   -342308.52022        16.000           1.813
  23198402.462    -6060289.967 5  -4608721.31021         9.000           0.219
  21441224.079   -15524322.404 6 -11919272.39621        17.000           1.063
 91  6  3 18 57 29.9970000  0  6G18G 2G11G19G16G 6
  23398461.837    14158812.659 5  11024299.32721         7.500           0.281
  20203327.767   -21223585.228 7 -16449816.39623        26.250           2.875
  22655353.884    -8241159.960 6    438742.15821        13.750           0.656
  20758667.845     -437950.853 6   -332885.46922        16.750           1.719
  23200760.259    -6047872.459 5  -4599045.37221         8.500           0.281
  21433591.032   -15564429.088 6 -11950524.31521        17.000           1.063
 91  6  3 18 57 44.9970000  0  6G18G 2G11G19G16G 6
  23406897.970    14203148.349 4  11058846.44221         7.250           0.250
  20198009.235   -21251539.040 7 -16471598.56423        26.500           2.906
  22658362.313    -8225349.556 6    451061.93721        14.250           0.656
  20760982.376     -425796.639 6   -323414.67022        16.000           1.625
  23203142.087    -6035362.399 5  -4589297.30821         8.500           0.188
  21425962.938   -15604516.551 6 -11981761.26821        17.500           1.156
 91  6  3 18 57 59.9970000  0  6G18G 2G11G19G16G 6
  23415341.712    14247503.688 4  11093408.87321         7.250           0.313
  20192704.235   -21279416.673 7 -16493321.37023        26.500           3.031
  22661393.071    -8209408.593 6    463483.44421        13.250           0.750
  20763307.095     -413582.410 6   -313897.11022        16.500           1.563
  23205540.063    -6022761.528 5  -4579478.50521         9.000           0.344
  21418336.899   -15644585.931 6 -12012984.12421        17.000           1.156
 91  6  3 18 58 14.9970000  0  6G18G 2G11G19G16G 6
  23423790.188    14291882.074 5  11127989.29021         7.500           0.250
  20187414.392   -21307214.714 7 -16514982.16423        26.250           3.000
  22664452.009    -8193334.084 6    476009.02321        13.000           0.719
  20765642.048     -401304.722 6   -304330.10922        15.750           1.750
  23207957.524    -6010066.840 5  -4569586.61021         9.500           0.344
  21410718.118   -15684633.831 6 -12044190.23621        17.750           1.219
 91  6  3 18 58 29.9970000  0  6G18G 2G11G19G16G 6
  23432238.509    14336278.894 4  11162584.06121         6.750           0.281
  20182139.313   -21334937.592 7 -16536584.38323        26.500           2.813
  22667536.587    -8177130.424 6    488635.23721        13.250           0.813
  20767989.079     -388967.922 6   -294717.04022        16.250           1.781
  23210388.657    -5997282.685 5  -4559625.00321         9.250           0.281
  21403098.259   -15724664.279 6 -12075382.76621        16.750           1.281
 91  6  3 18 58 44.9970000  0  6G18G 2G11G19G16G 6
  23440685.517    14380685.390 4  11197186.35521         6.500           0.281
  20176875.681   -21362593.843 7 -16558134.67923        26.000           2.813
  22670645.071    -8160806.455 6    501355.19021        13.500           0.781
  20770347.360     -376580.422 6   -285064.45922        15.750           1.844
  23212832.813    -5984417.999 5  -4549600.64521         9.250           0.219
  21395482.509   -15764685.780 6 -12106568.31621        17.250           1.313
 91  6  3 18 58 59.9970000  0  6G18G 2G11G19G16G 6
  23449136.298    14425109.162 4  11231802.11421         6.250           0.313
  20171626.954   -21390175.365 7 -16579626.76123        26.000           2.875
  22673774.079    -8144354.334 6    514175.01321        13.000           0.656
  20772713.423     -364134.064 6   -275366.02522        15.500           1.813
  23215297.884    -5971465.061 5  -4539507.50121         9.500           0.313
  21387870.603   -15804690.186 6 -12137740.53921        17.750           1.313
 91  6  3 18 59 14.9970000  0  6G18G 2G11G19G16G 6
  23457596.899    14469551.921 3  11266432.68121         6.000           0.281
  20166393.517   -21417680.214 7 -16601059.08923        26.000           2.844
  22676930.423    -8127772.325 6    527096.04721        13.250           0.688
  20775096.345     -351626.973 6   -265620.26222        15.250           1.813
  23217786.446    -5958422.493 5  -4529344.51421        10.000           0.281
  21380260.556   -15844675.542 6 -12168897.92621        18.000           1.281
 91  6  3 18 59 29.9970000  0  6G18G 2G11G19G16G 6
  23466054.056    14514010.333 3  11301075.41921         6.000           0.219
  20161173.267   -21445111.728 7 -16622434.27923        26.000           2.781
  22680107.524    -8111064.032 6    540115.48321        12.750           0.625
  20777484.743     -339062.396 6   -255829.70022        15.500           1.781
  23220282.056    -5945293.444 5  -4519114.14421         8.750           0.313
  21372656.196   -15884644.985 6 -12200042.91421        18.750           1.250
 91  6  3 18 59 44.9970000  0  6G18G 2G11G19G16G 6
  23474515.790    14558489.296 3  11335734.18621         5.500           0.313
  20155968.415   -21472464.501 7 -16643748.10923        25.750           2.781
  22683314.712    -8094224.078 6    553237.51421        13.750           0.688
  20779888.884     -326434.854 6   -245990.07522        15.000           1.656
  23222800.696    -5932072.773 5  -4508812.37121         9.000           0.375
  21365053.220   -15924592.903 6 -12231171.13021        18.500           1.344
 91  6  3 18 59 59.9970000  0  6G18G 2G11G19G16G 6
  23482981.665    14602991.922 3  11370411.36721         5.500           0.219
  20150779.603   -21499735.426 7 -16664998.15723        26.000           2.719
  22686545.032    -8077249.518 6    566464.42621        13.750           0.719
  20782305.376     -313741.128 6   -236098.88322        15.500           1.688
  23225333.071    -5918758.041 5  -4498437.32621         8.500           0.375
  21357456.603   -15964516.145 6 -12262280.11521        18.000           1.438
 91  6  3 19  0 14.9970000  0  6G18G 2G11G19G16G 6
  23491451.212    14647515.604 3  11405105.00621         5.750           0.250
  20145604.821   -21526926.952 7 -16686186.34623        25.750           2.781
  22689797.720    -8060143.081 6    579794.09321        13.750           0.781
  20784734.087     -300983.717 6   -226158.06822        15.000           1.719
  23227885.024    -5905351.606 5  -4487990.79921         9.000           0.344
  21349864.267   -16004416.913 6 -12293371.58921        18.250           1.344
 91  6  3 19  0 29.9970000  0  6G18G 2G11G19G16G 6
  23499933.384    14692055.183 4  11439810.98621         7.000           0.219
  20140443.915   -21554043.716 7 -16707316.27023        26.000           2.688
  22693078.759    -8042909.628 6    593222.73421        14.000           0.688
  20787173.532     -288166.898 6   -216170.96122        15.000           1.688
  23230445.962    -5891858.344 5  -4477476.64521         7.750           0.344
  21342274.399   -16044299.791 6 -12324449.13021        17.500           1.438
 91  6  3 19  0 44.9970000  0  6G18G 2G11G19G16G 6
  23508413.103    14736612.395 5  11474530.75721         7.750           0.250
  20135300.478   -21581083.984 7 -16728386.59623        26.750           2.781
  22696382.962    -8025547.666 6    606751.52321        13.750           0.688
  20789623.040     -275289.035 6   -206136.28422        14.500           1.719
  23233032.837    -5878277.144 4  -4466893.94421         7.250           0.250
  21334688.368   -16084162.961 6 -12355511.30821        17.250           1.250
 91  6  3 19  0 59.9970000  0  6G18G 2G11G19G16G 6
  23516890.751    14781181.268 4  11509259.59221         7.000           0.063
  20130168.368   -21608053.268 7 -16749401.60323        27.250           2.781
  22699710.899    -8008062.863 6    620376.00921        13.750           0.563
  20792083.204     -262355.667 6   -196058.36122        16.000           1.719
  23235634.603    -5864613.795 4  -4456247.27121         7.250           0.313
  21327106.079   -16124011.868 6 -12386562.36921        17.000           1.375
 91  6  3 19  1 14.9970000  0  6G18G 2G11G19G16G 6
  23525375.946    14825760.930 4  11543996.80821         7.000           0.125
  20125047.681   -21634952.481 7 -16770362.00823        26.250           2.656
  22703062.392    -7990456.297 6    634095.40121        14.500           0.563
  20794556.907     -249367.557 6   -185937.77622        15.250           1.844
  23238249.493    -5850869.299 5  -4445537.32221         7.750           0.219
  21319526.774   -16163847.144 6 -12417602.80521        17.250           1.219
 91  6  3 19  1 29.9970000  0  6G18G 2G11G19G16G 6
  23533867.790    14870358.194 4  11578747.72721         7.250           0.188
  20119943.704   -21661774.391 7 -16791262.17923        26.500           2.750
  22706436.048    -7972721.063 6    647915.04621        14.000           0.625
  20797039.470     -236317.371 6   -175768.82822        15.250           1.750
  23240882.056    -5837036.525 4  -4434758.59721         7.250           0.281
  21311949.149   -16203661.499 6 -12448626.93721        17.000           1.094
 91  6  3 19  1 44.9970000  0  6G18G 2G11G19G16G 6
  23542354.790    14914966.608 4  11613507.40121         6.500           0.031
  20114853.306   -21688525.174 7 -16812106.93123        26.500           2.750
  22709833.665    -7954863.791 6    661829.78321        13.250           0.656
  20799532.993     -223211.432 6   -165556.43722        15.000           1.813
  23243531.454    -5823122.233 5  -4423916.34821         8.250           0.469
  21304376.040   -16243461.207 6 -12479639.66621        17.750           1.219
 91  6  3 19  1 59.9970000  0  6G18G 2G11G19G16G 6
  23550844.048    14959584.571 4  11648274.46121         7.250           0.156
  20109775.626   -21715206.103 7 -16832897.25023        26.750           2.813
  22713254.696    -7936885.753 6    675838.62521        12.500           0.469
  20802035.243     -210050.810 6   -155301.42622        15.750           1.719
  23246198.274    -5809128.082 5  -4413011.88021         8.750           0.344
  21296804.462   -16283247.214 6 -12510641.71321        17.750           1.219
 91  6  3 19  2 14.9970000  0  6G18G 2G11G19G16G 6
  23559340.376    15004223.660 4  11683057.97121         6.750           0.125
  20104715.157   -21741805.248 7 -16853623.84223        26.750           2.844
  22716700.681    -7918775.315 6    689950.62221        12.500           0.656
  20804553.681     -196823.554 6   -144994.48422        15.250           1.844
  23248870.837    -5795042.378 5  -4402036.03421         8.750           0.375
  21289237.532   -16323007.546 6 -12541623.75921        17.500           1.219
 91  6  3 19  2 29.9970000  0  6G18G 2G11G19G16G 6
  23567835.626    15048874.481 4  11717850.65421         7.000           0.094
  20099666.032   -21768331.995 7 -16874294.02023        27.000           2.906
  22720170.657    -7900542.030 6    704158.35621        13.000           0.656
  20807081.626     -183538.986 6   -134642.90122        15.250           1.656
  23251571.251    -5780874.629 5  -4390996.31221         9.500           0.281
  21281674.134   -16362751.417 6 -12572592.99121        17.000           1.094
 91  6  3 19  2 44.9970000  0  5G 2G11G19G16G 6
  20094634.118   -21794774.541 7 -16894898.57923        26.500           3.031
  22723665.501    -7882174.381 6    718470.79321        13.000           0.563
  20809624.181     -170185.260 6   -124237.43322        14.500           1.625
  23254281.876    -5766613.375 5  -4379883.70721         8.750           0.375
  21274117.485   -16402467.002 6 -12603540.17321        16.500           1.156
 91  6  3 19  2 59.9970000  0  5G 2G11G19G16G 6
  20089617.931   -21821139.864 7 -16915442.97323        27.000           2.969
  22727185.743    -7863679.414 6    732882.43321        13.000           0.688
  20812176.978     -156769.001 6   -113783.23422        14.250           1.750
  23257011.767    -5752265.805 5  -4368703.85121         8.750           0.219
  21266562.696   -16442160.947 6 -12634470.49021        16.250           1.219
 91  6  3 19  3 14.9970000  0  5G 2G11G19G16G 6
  20084615.009   -21847426.203 7 -16935925.81623        27.250           2.844
  22730729.470    -7845055.690 6    747394.39421        12.750           0.531
  20814743.095     -143288.746 6   -103279.16222        15.000           1.656
  23259759.087    -5737830.675 5  -4357455.73621         8.500           0.344
  21259014.563   -16481831.486 6 -12665382.57621        16.250           1.156
 91  6  3 19  3 29.9970000  0  5G 2G11G19G16G 6
  20079627.462   -21873636.639 7 -16956349.51923        27.000           2.969
  22734298.610    -7826306.606 6    762004.03921        13.000           0.594
  20817320.243     -129747.545 6    -92727.59722        15.250           1.719
  23262523.743    -5723311.284 5  -4346141.99721         8.750           0.375
  21251468.290   -16521481.623 6 -12696278.75621        16.500           1.219
 91  6  3 19  3 44.9970000  0  5G 2G11G19G16G 6
  20074653.243   -21899772.088 7 -16976714.78923        26.500           3.094
  22737890.946    -7807433.361 6    776710.45021        14.250           0.563
  20819907.540     -116146.180 6    -82129.15822        15.250           1.750
  23265300.806    -5708708.991 5  -4334763.65221         8.250           0.375
  21243927.118   -16561112.142 6 -12727159.64121        16.750           1.281
 91  6  3 19  3 59.9970000  0  5G 2G11G19G16G 6
  20069694.642   -21925834.121 7 -16997022.84723        26.500           3.031
  22741505.649    -7788437.715 6    791512.22221        13.750           0.563
  20822502.696     -102486.011 6    -71484.89122        15.750           1.813
  23268094.868    -5694025.428 5  -4323321.95921         8.750           0.406
  21236390.056   -16600724.532 6 -12758026.40621        17.500           1.281
 91  6  3 19  4 14.9970000  0  5G 2G11G19G16G 6
  20064748.431   -21951822.700 7 -17017273.67323        26.750           3.094
  22745141.931    -7769319.730 6    806409.32321        14.000           0.531
  20825119.485      -88767.084 6    -60794.83922        15.250           1.656
  23270901.524    -5679260.942 5  -4311817.21721         7.750           0.344
  21228855.774   -16640318.513 6 -12788878.82921        17.500           1.313
 91  6  3 19  4 29.9970000  0  5G 2G11G19G16G 6
  20059818.485   -21977733.499 7 -17037463.88623        27.500           3.031
  22748804.079    -7750075.340 6    821404.93221        13.000           0.469
  20827740.720      -74985.061 6    -50055.63222        15.000           1.750
  23273732.712    -5664411.639 5  -4300246.38721         7.500           0.313
  21221323.618   -16679889.703 6 -12819713.48821        17.500           1.375
 91  6  3 19  4 44.9970000  0  5G 2G11G19G16G 6
  20054902.110   -22003566.813 7 -17057593.71723        26.750           2.906
  22752486.790    -7730705.188 6    836498.52621        13.000           0.563
  20830376.712      -61140.206 6    -39267.45122        16.000           1.594
  23276572.774    -5649478.084 4  -4288609.88621         6.750           0.281
  21213800.001   -16719438.315 6 -12850530.55421        17.750           1.281
 91  6  3 19  4 59.9970000  0  5G 2G11G19G16G 6
  20049998.212   -22029330.550 7 -17077669.34323        26.000           3.063
  22756197.743    -7711217.401 6    851683.80421        13.500           0.656
  20833022.642      -47240.255 6    -28436.34422        16.000           1.500
  23279427.915    -5634468.256 3  -4276913.95321         6.000           0.250
  21206278.313   -16758971.975 6 -12881335.96821        18.500           1.313
 91  6  3 19  5 14.9970000  0  5G 2G11G19G16G 6
  20045111.290   -22055018.402 7 -17097685.83123        26.750           2.938
  22759930.212    -7691605.935 6    866965.44321        13.000           0.594
  20835676.110      -33278.855 6    -17557.36422        15.500           1.563
  23282300.946    -5619376.027 4  -4265153.85621         7.250           0.250
  21198758.267   -16798484.306 6 -12912124.75221        17.750           1.250
 91  6  3 19  5 29.9970000  0  5G 2G11G19G16G 6
  20040236.853   -22080634.331 7 -17117646.27723        27.000           2.969
  22763684.181    -7671874.891 6    882340.26121        13.000           0.531
  20838343.423      -19259.683 6     -6633.35322        16.000           1.563
  23285188.032    -5604205.772 4  -4253332.90421         7.000           0.375
  21191243.337   -16837979.144 6 -12942899.91621        18.000           1.156
 91  6  3 19  5 44.9970000  0  5G 2G11G19G16G 6
  20035377.407   -22106175.780 7 -17137548.68723        27.500           2.844
  22767462.798    -7652022.011 6    897810.00521        12.750           0.531
  20841022.962       -5180.403 6      4337.49522        15.250           1.594
  23288091.220    -5588955.122 4  -4241449.31321         7.000           0.219
  21183730.384   -16877453.778 6 -12973659.34121        17.000           1.125
 91  6  3 19  5 59.9970000  0  5G 2G11G19G16G 6
  20030530.821   -22131642.601 7 -17157392.94623        27.250           2.813
  22771262.509    -7632047.171 6    913374.78221        12.500           0.500
  20843712.837        8959.354 6     15355.46422        15.250           1.656
  23291007.673    -5573624.180 4  -4229503.19221         7.250           0.250
  21176222.142   -16916907.841 6 -13004402.73021        16.750           1.219
 91  6  3 19  6 14.9970000  0  5G 2G11G19G16G 6
  20025697.001   -22157033.029 7 -17177177.67923        26.250           2.844
  22775088.056    -7611948.854 6    929035.78321        12.750           0.531
  20846416.876       23161.402 6     26421.97222        15.250           1.594
  23293944.884    -5558211.763 5  -4217493.57921         8.500           0.313
  21168719.407   -16956339.418 6 -13035128.60421        17.250           1.219
 91  6  3 19  6 29.9970000  0  5G 2G11G19G16G 6
  20020880.876   -22182346.258 7 -17196902.25523        26.500           3.000
  22778937.673    -7591726.771 6    944793.24121        13.000           0.563
  20849130.946       37426.489 6     37537.59922        15.250           1.625
  23296891.017    -5542717.513 5  -4205420.20221         7.500           0.344
  21161219.493   -16995747.817 6 -13065836.41021        17.750           1.188
 91  6  3 19  6 44.9970000  0  5G 2G11G19G16G 6
  20016079.618   -22207580.510 7 -17216565.29323        26.250           2.938
  22782810.478    -7571379.278 6    960648.40221        13.000           0.500
  20851858.946       51756.453 6     48703.77322        15.500           1.594
  23299856.673    -5527139.851 5  -4193281.79021         7.500           0.375
  21153725.274   -17035131.063 6 -13096524.61621        18.000           1.281
 91  6  3 19  6 59.9970000  0  5G 2G11G19G16G 6
  20011291.173   -22232741.613 7 -17236171.33223        26.750           2.969
  22786704.782    -7550912.196 6    976596.74421        13.250           0.531
  20854595.618       66145.619 6     59916.08722        15.500           1.625
  23302835.454    -5511484.694 5  -4181083.03821         7.750           0.375
  21146236.040   -17074494.593 6 -13127197.47921        18.250           1.281
 91  6  3 19  7 14.9970000  0  5G 2G11G19G16G 6
  20006516.282   -22257834.729 7 -17255724.39423        26.750           3.063
  22790620.470    -7530331.230 6    992633.83721        12.500           0.500
  20857345.931       80588.763 6     71170.45422        15.500           1.688
  23305831.610    -5495757.690 5  -4168828.26921         7.750           0.375
  21138748.845   -17113843.598 6 -13157859.00621        18.250           1.406
 91  6  3 19  7 29.9970000  0  5G 2G11G19G16G 6
  20001755.884   -22282852.158 7 -17275218.48123        27.000           2.906
  22794559.024    -7509628.978 6   1008765.43121        12.500           0.531
  20860104.860       95093.650 6     82472.92922        15.000           1.656
  23308838.087    -5479951.409 5  -4156511.75021         7.500           0.438
  21131263.446   -17153170.242 6 -13188503.10921        17.750           1.438
 91  6  3 19  7 44.9970000  0  5G 2G11G19G16G 6
  19997009.970   -22307793.099 7 -17294652.96923        27.250           2.906
  22798522.134    -7488804.642 6   1024992.15721        12.500           0.594
  20862876.618      109661.180 6     93824.22222        14.750           1.531
  23311859.618    -5464065.211 4  -4144132.94321         7.000           0.344
  21123784.235   -17192473.733 6 -13219129.16821        18.000           1.344
 91  6  3 19  7 59.9970000  0  5G 2G11G19G16G 6
  19992277.571   -22332657.634 7 -17314027.91123        27.250           2.938
  22802508.040    -7467858.524 6   1041313.77721        12.750           0.594
  20865657.478      124291.493 6    105224.44322        14.750           1.656
  23314893.587    -5448099.074 4  -4131691.83521         6.250           0.281
  21116309.517   -17231753.586 6 -13249736.81221        17.750           1.281
 91  6  3 19  8 14.9970000  0  5G 2G11G19G16G 6
  19987560.274   -22357450.823 7 -17333347.26023        27.000           2.969
  22806517.103    -7446796.021 6   1057726.07821        12.750           0.438
  20868456.868      138979.671 6    116669.74522        14.750           1.719
  23317954.243    -5432058.668 4  -4119192.85121         6.250           0.281
  21108837.712   -17271014.981 6 -13280330.07621        17.750           1.281
 91  6  3 19  8 29.9970000  0  5G 2G11G19G16G 6
  19982856.407   -22382171.122 7 -17352609.81323        27.250           2.969
  22810546.884    -7425615.926 6   1074230.03221        13.000           0.500
  20871265.696      153727.153 6    128161.24922        14.500           1.563
  23321017.493    -5415943.016 4  -4106635.25121         6.250           0.313
  21101371.353   -17310256.247 6 -13310907.65821        17.250           1.188
 91  6  3 19  8 44.9970000  0  5G 2G11G19G16G 6
  19978165.548   -22406821.052 7 -17371817.53323        27.250           3.000
  22814600.931    -7404321.063 6   1090823.41321        13.000           0.438
  20874080.649      168531.306 6    139696.91922        15.000           1.688
  23324096.915    -5399754.932 4  -4094021.20221         6.250           0.250
  21093905.978   -17349479.789 6 -13341471.43521        17.000           1.344
 91  6  3 19  8 59.9970000  0  4G 2G11G19G 6
  19973487.001   -22431400.477 7 -17390970.31623        27.750           2.969
  22818673.798    -7382911.562 6   1107506.11421        12.500           0.531
  20876906.063      183392.359 6    151276.92122        14.500           1.750
  21086447.610   -17388685.388 6 -13372021.21922        18.000           1.531
 91  6  3 19  9 14.9970000  0  4G 2G11G19G 6
  19968824.048   -22455904.922 7 -17410064.66823        26.250           2.938
  22822769.571    -7361383.052 6   1124281.54021        12.750           0.438
  20879750.079      198315.064 6    162904.96322        16.000           1.656
  21078990.728   -17427868.243 6 -13402553.28422        17.750           1.594
 91  6  3 19  9 29.9970000  0  4G 2G11G19G 6
  19964177.321   -22480329.752 7 -17429096.97923        26.500           2.906
  22826889.556    -7339731.053 6   1141153.20221        12.500           0.469
  20882598.563      213304.064 6    174584.66722        15.500           1.594
  21071539.548   -17467023.565 6 -13433063.88322        17.750           1.656
 91  6  3 19  9 44.9970000  0  4G 2G11G19G 6
  19959541.821   -22504681.863 7 -17448072.62523        26.250           3.031
  22831032.548    -7317962.669 6   1158115.55921        13.000           0.406
  20885463.853      228352.535 6    186310.70922        15.000           1.500
  21064091.790   -17506158.090 6 -13463558.29622        18.250           1.500
 91  6  3 19  9 59.9970000  0  4G 2G11G19G 6
  19954923.321   -22528959.877 7 -17466990.53723        26.250           2.875
  22835199.329    -7296076.986 6   1175169.31421        12.750           0.563
  20888336.587      243461.794 6    198084.12222        15.500           1.500
  21056650.626   -17545270.397 6 -13494035.39221        18.000           1.375
 91  6  3 19 10 14.9970000  0  4G 2G11G19G 6
  19950316.907   -22553161.792 7 -17485849.15323        26.000           2.969
  22839382.993    -7274072.159 6   1192315.89421        12.250           0.500
  20891225.282      258633.912 6    209906.51722        15.250           1.594
  21049209.313   -17584358.339 6 -13524493.50021        17.250           1.406
 91  6  3 19 10 29.9970000  0  4G 2G11G19G 6
  19945725.806   -22577291.333 7 -17504651.37723        25.750           2.844
  22843595.376    -7251952.155 6   1209552.22721        13.000           0.563
  20894121.970      273865.231 6    221775.04221        15.750           1.438
  21041775.696   -17623425.573 6 -13554935.47122        17.750           1.594
 91  6  3 19 10 44.9970000  0  4G 2G11G19G 6
  19941148.618   -22601343.183 7 -17523393.06423        25.000           2.844
  22847824.860    -7229711.777 6   1226882.36521        12.000           0.500
  20897035.431      289161.202 6    233693.94322        15.500           1.594
  21034346.337   -17662466.437 6 -13585356.89121        19.000           1.469
 91  6  3 19 10 59.9970000  0  4G 2G11G19G 6
  19936585.204   -22625319.376 7 -17542075.78823        25.750           2.938
  22852080.259    -7207353.344 5   1244304.49321        11.750           0.375
  20899956.759      304519.799 6    245661.64022        15.250           1.531
  21026922.063   -17701482.899 6 -13615759.29921        19.250           1.469
 91  6  3 19 11 14.9970000  0  4G 2G11G19G 6
  19932037.485   -22649224.542 7 -17560703.16223        25.750           2.813
  22856356.087    -7184881.728 5   1261814.82221        11.000           0.406
  20902891.337      319936.533 6    257674.63822        15.000           1.594
  21019501.603   -17740479.334 6 -13646146.09622        19.000           1.563
 91  6  3 19 11 29.9970000  0  4G 2G11G19G 6
  19927503.024   -22673053.735 7 -17579271.35223        25.250           2.875
  22860653.907    -7162292.471 5   1279416.79921        10.750           0.469
  20905839.001      335416.427 6    269736.85622        16.000           1.594
  21012083.837   -17779450.843 6 -13676513.46722        18.000           1.594
 91  6  3 19 11 44.9970000  0  4G 2G11G19G 6
  19922982.446   -22696803.853 7 -17597777.91323        25.750           2.906
  22864974.095    -7139582.605 5   1297112.77521        11.250           0.406
  20908792.829      350962.504 6    281850.63322        15.000           1.656
  21004673.696   -17818394.023 6 -13706858.75922        17.500           1.625
 91  6  3 19 11 59.9970000  0  4G 2G11G19G 6
  19918476.212   -22720482.430 7 -17616228.73923        25.750           2.750
  22869321.220    -7116759.949 6   1314896.65621        12.250           0.406
  20911762.431      366567.287 6    294010.15422        15.000           1.594
  20997266.782   -17857316.399 6 -13737187.83722        17.750           1.594
 91  6  3 19 12 14.9970000  0  4G 2G11G19G 6
  19913987.188   -22744086.969 7 -17634621.87223        26.750           2.938
  22873685.610    -7093822.128 6   1332770.25821        12.000           0.406
  20914745.946      382233.269 6    306217.37122        14.500           1.563
  20989864.938   -17896215.136 6 -13767498.51522        18.750           1.750
 91  6  3 19 12 29.9970000  0  4G 2G11G19G 6
  19909509.126   -22767612.253 7 -17652953.25023        26.000           2.875
  22878075.774    -7070764.014 6   1350737.59221        12.250           0.438
  20917739.642      397966.059 6    318476.64322        14.750           1.625
  20982469.267   -17935084.714 6 -13797786.46522        19.500           1.688
 91  6  3 19 12 44.9970000  0  4G 2G11G19G 6
  19905048.688   -22791057.050 7 -17671221.90823        26.500           2.844
  22882485.204    -7047584.900 6   1368799.19921        12.250           0.438
  20920747.392      413766.932 6    330788.96122        14.250           1.594
  20975079.040   -17973923.982 6 -13828050.79922        19.500           1.656
 91  6  3 19 12 59.9970000  0  4G 2G11G19G 6
  19900601.345   -22814424.974 7 -17689430.66223        26.000           2.906
  22886915.478    -7024288.626 5   1386952.12221        11.500           0.531
  20923764.267      429632.355 6    343151.58122        14.500           1.563
  20967692.329   -18012736.288 6 -13858294.10922        19.500           1.844
 91  6  3 19 13 14.9970000  0  4G 2G11G19G 6
  19896167.056   -22837722.226 7 -17707584.34723        26.000           2.844
  22891369.642    -7000881.730 5   1405191.23121        11.500           0.438
  20926796.798      445556.018 6    355559.58722        15.500           1.594
  20960312.243   -18051527.795 6 -13888521.22322        19.000           1.656
 91  6  3 19 13 29.9970000  0  4G 2G11G19G 6
  19891748.579   -22860946.202 7 -17725680.93323        26.250           2.813
  22895846.368    -6977361.826 5   1423518.41321        11.500           0.469
  20929836.134      461540.480 6    368014.97322        16.000           1.531
  20952932.563   -18090295.779 6 -13918730.00122        19.000           1.656
 91  6  3 19 13 44.9970000  0  4G 2G11G19G 6
  19887343.563   -22884093.671 7 -17743717.90523        26.250           2.969
  22900344.267    -6953725.944 6   1441935.96021        12.000           0.469
  20932893.829      477589.163 6    380520.39322        15.500           1.500
  20945560.837   -18129036.779 6 -13948917.76022        18.750           1.688
 91  6  3 19 13 59.9970000  0  4G 2G11G19G 6
  19882952.931   -22907169.274 7 -17761698.87623        27.000           2.938
  22904864.845    -6929978.856 6   1460440.15821        12.000           0.375
  20935957.923      493697.462 6    393072.27922        14.750           1.563
  20938191.759   -18167755.238 6 -13979087.95922        18.250           1.594
 91  6  3 19 14 14.9970000  0  4G 2G11G19G 6
  19878574.251   -22930174.603 7 -17779625.08723        26.250           2.813
  22909401.024    -6906122.347 5   1479029.60821        11.250           0.438
  20939033.649      509863.899 6    405669.45922        15.000           1.500
  20930829.212   -18206452.546 6 -14009241.66422        18.500           1.688
 91  6  3 19 14 29.9970000  0  4G 2G11G19G 6
  19874211.290   -22953103.918 7 -17797492.06923        26.000           3.000
  22913964.931    -6882150.911 5   1497708.62421        11.250           0.469
  20942120.298      526094.291 6    418316.46721        15.750           1.438
  20923471.228   -18245122.741 6 -14039374.24922        19.000           1.750
 91  6  3 19 14 44.9970000  0  4G 2G11G19G 6
  19869861.868   -22975960.203 7 -17815302.14223        25.750           3.000
  22918548.892    -6858068.002 5   1516474.50221        11.750           0.375
  20945224.868      542385.518 6    431010.89121        15.000           1.375
  20916117.173   -18283768.650 6 -14069487.90922        19.000           1.719
 91  6  3 19 14 59.9970000  0  4G 2G11G19G 6
  19865524.806   -22998745.851 7 -17833057.17823        25.500           3.000
  22923151.798    -6833876.271 5   1535325.18621        11.750           0.375
  20948334.298      558735.326 6    443750.96021        15.000           1.281
  20908767.915   -18322392.637 6 -14099584.48722        19.000           1.750
 91  6  3 19 15 14.9970000  0  4G 2G11G19G 6
  19861202.829   -23021457.802 7 -17850754.78323        25.750           2.969
  22927775.743    -6809572.812 6   1554262.90721        12.000           0.344
  20951457.079      575146.924 6    456539.17621        15.000           1.281
  20901421.892   -18360991.584 6 -14129661.54122        18.750           1.906
 91  6  3 19 15 29.9970000  0  4G 2G11G19G 6
  19856896.438   -23044102.108 7 -17868399.68323        27.000           2.938
  22932416.759    -6785163.958 5   1573282.79321        10.500           0.375
  20954590.126      591614.138 6    469370.72521        15.000           1.344
  20894080.485   -18399571.234 6 -14159723.56722        19.250           1.875
 91  6  3 19 15 44.9970000  0  4G 2G11G19G 6
  19852601.360   -23066668.760 7 -17885984.07823        27.250           3.000
  22937083.095    -6760640.020 5   1592392.34521        10.250           0.281
  20957736.509      608147.271 6    482253.62921        15.000           1.469
  20886745.009   -18438121.242 6 -14189762.49822        19.250           1.813
 91  6  3 19 15 59.9970000  0  4G 2G11G19G 6
  19848320.384   -23089157.255 7 -17903507.56423        26.500           3.031
  22941777.165    -6736000.732 5   1611591.75821        11.250           0.313
  20960897.993      624746.669 6    495188.19021        15.000           1.406
  20879413.829   -18476641.193 6 -14219778.01522        19.500           1.781
 91  6  3 19 16 14.9970000  0  4G 2G11G19G 6
  19844055.556   -23111570.608 7 -17920972.50023        26.500           3.188
  22946485.282    -6711249.367 5   1630878.51721        10.500           0.406
  20964066.735      641409.466 6    508172.13321        14.750           1.344
  20872089.204   -18515133.849 6 -14249772.25522        19.500           1.750
 91  6  3 19 16 29.9970000  0  4G 2G11G19G 6
  19839802.907   -23133916.045 7 -17938384.51623        26.500           3.250
  22951217.610    -6686393.284 5   1650246.86321        11.500           0.406
  20967245.345      658128.603 6    521199.98621        15.500           1.281
  20864770.368   -18553606.108 6 -14279750.60122        19.750           1.719
 91  6  3 19 16 44.9970000  0  4G 2G11G19G 6
  19835565.634   -23156189.447 7 -17955740.39923        27.500           3.156
  22955969.228    -6661428.781 5   1669699.70421        11.500           0.313
  20970441.181      674908.197 6    534274.94521        14.750           1.438
  20857451.938   -18592053.886 6 -14309709.87922        19.250           1.625
 91  6  3 19 16 59.9970000  0  4G 2G11G19G 6
  19831340.243   -23178394.108 7 -17973042.71423        27.250           3.250
  22960737.313    -6636359.374 5   1689234.29521        11.250           0.438
  20973647.946      691745.032 6    547394.52622        14.750           1.500
  20850138.751   -18630480.241 6 -14339652.46022        19.250           1.656
 91  6  3 19 17 14.9970000  0  4G 2G11G19G 6
  19827128.931   -23200522.492 7 -17990285.59623        27.500           3.281
  22965528.665    -6611177.787 5   1708856.27421        11.000           0.406
  20976859.212      708646.741 6    560564.63621        14.500           1.344
  20842833.079   -18668877.373 6 -14369572.27422        19.250           1.594
 91  6  3 19 17 29.9970000  0  4G 2G11G19G 6
  19822932.931   -23222565.045 7 -18007461.59523        27.250           3.344
  22970341.751    -6585874.765 5   1728572.89221        10.500           0.344
  20980092.587      725622.761 6    573792.67121        15.000           1.469
  20835532.579   -18707235.541 6 -14399461.72222        18.750           1.656
 91  6  3 19 17 44.9970000  0  4G 2G11G19G 6
  19818751.267   -23244543.337 7 -18024587.52823        27.250           3.250
  22975175.657    -6560472.218 5   1748367.05521        10.500           0.281
  20983334.212      742651.660 6    587061.90521        14.750           1.406
  20828236.251   -18745576.429 6 -14429337.69922        19.000           1.594
 91  6  3 19 17 59.9970000  0  4G 2G11G19G 6
  19814583.446   -23266445.412 7 -18041654.06423        27.500           3.375
  22980032.899    -6534958.355 5   1768247.97121        11.000           0.438
  20986583.532      759745.416 6    600381.67521        14.750           1.438
  20820945.985   -18783887.678 6 -14459190.57722        19.500           1.656
 91  6  3 19 18 14.9970000  0  4G 2G11G19G 6
  19810430.353   -23288272.965 7 -18058662.53223        27.250           3.281
  22984910.993    -6509335.072 5   1788214.15321        11.000           0.250
  20989851.540      776902.472 6    613750.75621        14.750           1.438
  20813661.345   -18822170.634 7 -14489021.41822        20.000           1.500
 91  6  3 19 18 29.9960000  0  4G 2G11G19G 6
  19806291.895   -23310024.218 7 -18075611.54223        27.500           3.219
  22989807.051    -6483604.087 5   1808264.24221        11.000           0.344
  20993127.504      794122.159 6    627168.65721        15.250           1.438
  20806385.152   -18860422.502 7 -14518828.03522        20.000           1.500
 91  6  3 19 18 44.9960000  0  4G 2G11G19G 6
  19802164.887   -23331705.953 7 -18092506.38823        27.500           3.125
  22994724.356    -6457766.123 5   1828397.70521        11.250           0.375
  20996415.473      811402.966 6    640634.17821        14.000           1.406
  20799108.762   -18898652.046 7 -14548617.26222        20.500           1.500
 91  6  3 19 18 59.9960000  0  4G 2G11G19G 6
  19798054.262   -23353316.380 7 -18109345.66023        27.750           2.938
  22999662.457    -6431822.782 5   1848613.29021        11.500           0.313
  20999716.316      828744.036 6    654146.64921        13.250           1.438
  20791837.988   -18936856.102 7 -14578386.61721        20.000           1.469
 91  6  3 19 19 14.9960000  0  4G 2G11G19G 6
  19793953.684   -23374860.864 7 -18126133.55923        27.750           3.000
  23004615.809    -6405779.592 5   1868906.64521        11.000           0.375
  21003025.191      846140.242 6    667702.08421        13.750           1.406
  20784572.379   -18975039.777 7 -14608140.10521        20.250           1.438
 91  6  3 19 19 29.9960000  0  4G 2G11G19G 6
  19789867.707   -23396326.496 7 -18142860.01123        27.500           2.938
  23009593.348    -6379624.087 5   1889287.55621        11.000           0.281
  21006348.356      863604.288 6    681310.38421        14.250           1.406
  20777311.504   -19013190.231 6 -14637867.70422        19.750           1.688
 91  6  3 19 19 44.9960000  0  4G 2G11G19G 6
  19785795.738   -23417719.269 7 -18159529.68923        26.500           3.031
  23014591.918    -6353362.465 5   1909751.12221        11.000           0.281
  21009683.879      881130.369 6    694967.03321        14.500           1.469
  20770056.496   -19051313.055 6 -14667573.76322        19.500           1.656
 91  6  3 19 19 59.9960000  0  4G 2G11G19G 6
  19781738.316   -23439042.086 7 -18176144.86223        26.250           3.000
  23019607.434    -6326998.017 5   1930294.83221        10.750           0.281
  21013028.918      898715.388 6    708669.60521        14.000           1.469
  20762807.082   -19089411.324 6 -14697260.69922        19.750           1.719
 91  6  3 19 20 14.9960000  0  4G 2G11G19G 6
  19777696.340   -23460290.925 7 -18192702.37723        26.500           3.094
  23024647.590    -6300526.790 5   1950921.72921        11.250           0.375
  21016390.262      916363.701 6    722421.49821        14.250           1.313
  20755562.996   -19127480.613 6 -14726925.04222        19.750           1.719
 91  6  3 19 20 29.9960000  0  4G 2G11G19G 6
  19773666.856   -23481465.939 7 -18209202.37923        26.000           3.031
  23029703.191    -6273949.265 5   1971631.45421        10.750           0.281
  21019758.152      934075.310 6    736222.70321        14.500           1.250
  20748324.551   -19165520.667 7 -14756566.61722        20.000           1.625
 91  6  3 19 20 44.9960000  0  4G 2G11G19G 6
  19769650.152   -23502572.233 7 -18225648.82823        25.750           2.906
  23034779.965    -6247270.817 5   1992419.84721        10.500           0.313
  21023141.973      951845.008 6    750069.18221        14.500           1.313
  20741089.434   -19203536.542 7 -14786189.35122        20.000           1.844
 91  6  3 19 20 59.9960000  0  4G 2G11G19G 6
  19765647.684   -23523611.927 7 -18242043.36123        26.000           2.781
  23039875.387    -6220493.891 5   2013284.96021        10.500           0.250
  21026534.137      969670.717 6    763959.31021        13.750           1.188
  20733859.512   -19241530.232 6 -14815794.79122        19.750           1.656
 91  6  3 19 21 14.9960000  0  4G 2G11G19G 6
  19761652.770   -23544587.807 7 -18258388.20323        25.000           2.813
  23044989.496    -6193621.650 5   2034224.36121        10.500           0.188
  21029936.371      987549.610 6    777890.88621        14.500           1.219
  20726633.684   -19279504.358 6 -14845384.99122        19.500           1.625
 91  6  3 19 21 29.9960000  0  4G 2G11G19G 6
  19757677.254   -23565487.552 7 -18274673.70223        25.750           2.875
  23050123.965    -6166641.768 5   2055247.62721        11.000           0.313
  21033351.004     1005494.321 6    791873.74121        14.750           1.313
  20719414.902   -19317446.251 7 -14874950.07422        20.250           1.781
 91  6  3 19 21 44.9960000  0  4G 2G11G19G 6
  19753713.254   -23586316.340 7 -18290903.91523        25.500           2.813
  23055276.613    -6139559.832 5   2076350.39721        10.500           0.375
  21036776.231     1023499.648 6    805903.82521        14.500           1.125
  20712200.527   -19355361.073 7 -14904494.05422        20.500           1.750
 91  6  3 19 21 59.9960000  0  4G 2G11G19G 6
  19749762.387   -23607078.448 7 -18307082.16523        25.000           2.813
  23060448.691    -6112380.498 5   2097529.06521        10.250           0.281
  21040213.152     1041561.134 6    819977.68021        14.750           1.219
  20704989.324   -19393252.895 7 -14934020.10722        21.000           1.688
 91  6  3 19 22 14.9960000  0  4G 2G11G19G 6
  19745827.168   -23627764.327 7 -18323201.01323        25.750           2.844
  23065639.395    -6085094.406 5   2118790.92921        10.250           0.344
  21043665.832     1059688.563 6    834102.90421        14.750           1.344
  20697782.512   -19431112.037 7 -14963520.72722        20.500           1.781
 91  6  3 19 22 29.9960000  0  4G 2G11G19G 6
  19741902.543   -23648384.019 7 -18339268.29123        26.000           2.906
  23070847.793    -6057711.939 5   2140127.90221         9.750           0.375
  21047123.410     1077871.988 6    848271.76521        14.750           1.281
  20690582.418   -19468948.257 6 -14993003.45822        19.750           1.719
 91  6  3 19 22 44.9960000  0  4G 2G11G19G 6
  19737992.598   -23668930.513 7 -18355278.53223        26.000           2.906
  23076081.066    -6030226.158 5   2161545.35521        10.250           0.313
  21050596.184     1096118.624 6    862489.88121        14.000           1.375
  20683389.184   -19506754.188 6 -15022462.60022        19.500           1.656
 91  6  3 19 22 59.9960000  0  4G 2G11G19G 6
  19734096.699   -23689408.002 7 -18371235.00123        26.750           2.875
  23081331.645    -6002641.772 5   2183039.67321        10.750           0.313
  21054077.941     1114423.978 6    876753.75021        15.000           1.469
  20676199.652   -19544534.179 6 -15051901.53522        18.250           1.750
 91  6  3 19 23 14.9960000  0  4G 2G11G19G 6
  19730213.871   -23709813.095 7 -18387135.06023        26.250           3.063
  23086596.543    -5974955.374 5   2204613.45621         9.750           0.344
  21057574.481     1132791.655 6    891066.18621        14.250           1.250
  20669015.145   -19582284.409 6 -15081317.26822        18.500           1.719
 91  6  3 19 23 29.9960000  0  4G 2G11G19G 6
  19726343.043   -23730151.670 7 -18402983.28623        26.000           2.969
  23091888.207    -5947173.196 5   2226261.87821        10.500           0.313
  21061079.981     1151216.029 6    905422.80921        14.500           1.188
  20661837.168   -19620010.525 6 -15110714.20522        18.750           1.688
 91  6  3 19 23 44.9960000  0  4G 2G11G19G 6
  19722487.824   -23750418.504 7 -18418775.61423        26.000           2.938
  23097194.770    -5919290.441 5   2247988.68221        10.750           0.344
  21064598.199     1169702.212 6    919827.58621        13.750           1.188
  20654663.348   -19657707.235 6 -15140088.24022        19.000           1.781
 91  6  3 19 23 59.9960000  0  4G 2G11G19G 6
  19718643.356   -23770609.942 7 -18434509.18223        26.000           2.844
  23102520.535    -5891303.498 5   2269796.64421        10.500           0.406
  21068126.746     1188254.090 6    934283.56821        14.250           1.344
  20647496.387   -19695370.593 6 -15169436.28922        19.500           1.719
 91  6  3 19 24 14.9960000  0  4G 2G11G19G 6
  19714815.965   -23790725.126 7 -18450183.34023        26.500           2.969
  23107862.106    -5863211.881 5   2291686.21121        10.000           0.250
  21071673.082     1206872.499 6    948791.38721        14.500           1.313
  20640334.965   -19732999.639 6 -15198757.60622        19.000           1.625
 91  6  3 19 24 29.9960000  0  4G 2G11G19G 6
  19711001.598   -23810770.550 7 -18465803.13923        26.750           2.969
  23113230.035    -5835022.547 5   2313651.90121        10.500           0.313
  21075225.902     1225550.842 6    963345.89421        14.500           1.344
  20633181.082   -19770600.519 6 -15228056.96522        19.000           1.750
 91  6  3 19 24 44.9960000  0  4G 2G11G19G 6
  19707201.316   -23830741.940 7 -18481365.24323        27.250           2.938
  23118612.996    -5806731.308 5   2335696.99321         9.750           0.281
  21078792.363     1244293.519 6    977950.54621        14.250           1.375
  20626030.473   -19808168.805 6 -15257330.93322        19.000           1.688
 91  6  3 19 24 59.9960000  0  4G 2G11G19G 6
  19703414.629   -23850645.656 7 -18496874.61623        27.250           3.031
  23124012.988    -5778344.934 5   2357816.22821         9.500           0.219
  21082370.824     1263094.045 6    992600.26521        14.500           1.313
  20618888.051   -19845710.863 6 -15286584.45922        19.000           1.719
 91  6  3 19 25 14.9960000  0  4G 2G11G19G 6
  19699639.238   -23870479.273 7 -18512329.36423        26.500           3.000
  23129432.340    -5749861.218 5   2380011.29021         9.750           0.250
  21085959.402     1281954.859 6   1007296.96821        14.000           1.406
  20611748.020   -19883223.963 6 -15315815.41722        19.250           1.750
 91  6  3 19 25 29.9960000  0  4G 2G11G19G 6
  19695878.863   -23890240.960 7 -18527728.06423        26.500           3.063
  23134873.285    -5721278.556 5   2402283.48521         9.750           0.281
  21089559.285     1300877.978 6   1022042.22021        13.250           1.406
  20604617.270   -19920706.031 6 -15345022.19622        19.750           1.688
 91  6  3 19 25 44.9960000  0  4G 2G11G19G 6
  19692132.496   -23909925.785 7 -18543066.87223        26.000           2.813
  23140331.043    -5692592.295 5   2424636.39121         9.750           0.281
  21093173.824     1319868.512 6   1036839.99821        13.250           1.469
  20597491.762   -19958151.993 7 -15374200.83922        20.500           1.656
 91  6  3 19 25 59.9960000  0  4G 2G11G19G 6
  19688401.074   -23929539.354 7 -18558350.15723        26.750           2.938
  23145810.566    -5663808.296 5   2447065.43421        10.500           0.313
  21096796.723     1338921.042 6   1051686.08521        14.000           1.438
  20590371.738   -19995567.044 7 -15403355.39322        20.000           1.844
 91  6  3 19 26 14.9960000  0  4G 2G11G19G 6
  19684682.965   -23949079.710 7 -18573576.39723        26.250           2.781
  23151307.184    -5634924.965 5   2469571.87821        10.250           0.344
  21100436.168     1358037.485 6   1066581.97121        13.000           1.406
  20583257.738   -20032949.157 7 -15432484.28222        21.000           1.781
 91  6  3 19 26 29.9960000  0  4G 2G11G19G 6
  19680976.754   -23968545.842 7 -18588744.79523        26.250           2.906
  23156819.277    -5605941.496 5   2492156.38421         9.500           0.375
  21104086.520     1377219.006 6   1081528.57221        13.250           1.406
  20576151.621   -20070297.206 7 -15461586.63322        20.000           1.906
 91  6  3 19 26 44.9960000  0  4G 2G11G19G 6
  19677285.957   -23987942.109 7 -18603858.74923        26.000           2.938
  23162352.301    -5576862.543 5   2514815.26621         9.250           0.250
  21107750.621     1396461.174 6   1096522.43921        13.750           1.344
  20569047.910   -20107615.116 7 -15490665.49522        20.000           1.906
 91  6  3 19 26 59.9960000  0  4G 2G11G19G 6
  19673608.145   -24007268.466 7 -18618918.22923        25.750           3.063
  23167905.559    -5547688.420 5   2537548.32321         9.750           0.188
  21111422.035     1415763.884 6   1111563.45121        14.750           1.156
  20561951.918   -20144902.958 6 -15519720.93022        19.750           1.969
 91  6  3 19 27 14.9960000  0  4G 2G11G19G 6
  19669945.582   -24026520.898 7 -18633920.11423        25.750           3.094
  23173476.738    -5518415.483 5   2560358.37921         9.500           0.344
  21115108.395     1435131.153 6   1126654.80621        14.500           1.250
  20554865.723   -20182156.368 7 -15548749.53422        20.250           1.844
 91  6  3 19 27 29.9960000  0  4G 2G11G19G 6
  19666297.020   -24045698.602 7 -18648863.76823        26.750           3.000
  23179065.465    -5489042.988 5   2583246.00021         9.500           0.406
  21118805.254     1454564.093 6   1141797.31821        14.250           1.250
  20547783.629   -20219374.267 7 -15577750.46522        20.500           1.906
 91  6  3 19 27 44.9960000  0  4G 2G11G19G 6
  19662658.957   -24064814.810 7 -18663759.50223        27.250           2.938
  23184670.738    -5459584.545 5   2606200.58321         9.250           0.281
  21122513.856     1474049.355 6   1156980.59121        13.500           1.188
  20540702.574   -20256569.753 7 -15606733.93722        20.500           1.875
 91  6  3 19 27 59.9960000  0  4G 2G11G19G 6
  19659034.137   -24083866.157 7 -18678604.69623        26.750           3.094
  23190294.559    -5430036.885 5   2629224.69921         9.500           0.281
  21126231.918     1493590.635 6   1172207.52721        14.000           1.281
  20533630.746   -20293739.218 7 -15635697.13722        20.500           1.844
 91  6  3 19 28 14.9960000  0  4G 2G11G19G 6
  19655421.270   -24102846.119 7 -18693394.26123        26.750           2.906
  23195934.715    -5400393.967 5   2652323.04221         9.250           0.375
  21129961.965     1513194.297 6   1187483.05221        13.250           1.313
  20526565.223   -20330875.800 7 -15664634.69722        21.000           1.875
 91  6  3 19 28 29.9960000  0  4G 2G11G19G 6
  19651823.348   -24121748.588 7 -18708123.44923        25.750           2.938
  23201596.613    -5370649.898 5   2675500.21221         9.500           0.313
  21133707.871     1532866.591 6   1202812.08521        13.500           1.219
  20519505.301   -20367973.411 7 -15693541.89322        21.250           1.875
 91  6  3 19 28 44.9960000  0  4G 2G11G19G 6
  19648241.371   -24140577.383 7 -18722795.22723        26.250           2.938
  23207274.809    -5340808.830 5   2698752.95821         8.750           0.406
  21137463.051     1552603.715 6   1218191.61021        13.500           1.156
  20512452.981   -20405035.574 7 -15722421.47722        21.500           1.906
 91  6  3 19 28 59.9960000  0  4G 2G11G19G 6
  19644672.324   -24159337.562 7 -18737413.53723        26.000           2.938
  23212971.574    -5310876.107 5   2722077.12121         9.250           0.406
  21141227.137     1572400.678 6   1233617.77221        13.750           1.094
  20505406.020   -20442067.138 7 -15751277.21122        21.500           1.938
 91  6  3 19 29 14.9960000  0  4G 2G11G19G 6
  19641116.566   -24178025.653 7 -18751975.67523        26.500           2.906
  23218686.481    -5280848.462 5   2745475.27121         9.250           0.344
  21145009.723     1592261.112 6   1249093.40421        13.250           1.063
  20498362.520   -20479064.335 7 -15780106.16122        21.000           1.875
 91  6  3 19 29 29.9960000  0  4G 2G11G19G 6
  19637574.473   -24196635.994 7 -18766477.23423        26.250           2.969
  23224419.051    -5250720.573 5   2768951.48421         9.250           0.375
  21148803.090     1612190.751 6   1264622.94521        12.750           1.125
  20491330.738   -20516021.385 7 -15808903.83222        21.250           1.969
 91  6  3 19 29 44.9960000  0  4G 2G11G19G 6
  19634044.762   -24215180.949 7 -18780927.83723        26.000           2.906
  23230167.801    -5220505.037 5   2792496.02921         8.750           0.344
  21152604.121     1632177.261 6   1280196.79921        13.000           1.219
  20484305.801   -20552950.385 7 -15837679.64522        21.750           1.813
 91  6  3 19 29 59.9960000  0  4G 2G11G19G 6
  19630528.074   -24233660.755 7 -18795327.67823        26.750           2.813
  23235933.012    -5190202.467 5   2816108.37521         8.500           0.344
  21156418.574     1652220.168 6   1295814.59921        12.750           1.250
  20477281.121   -20589851.486 7 -15866433.72922        20.750           2.031
 91  6  3 19 30 14.9960000  0  4G 2G11G19G 6
  19627025.160   -24252067.638 7 -18809670.68423        27.000           2.813
  23241717.645    -5159805.222 5   2839794.48221         8.750           0.375
  21160245.434     1672327.505 6   1311482.59821        12.750           1.156
  20470265.723   -20626716.568 7 -15895159.72922        20.750           2.031
 91  6  3 19 30 29.9960000  0  4G 2G11G19G 6
  19623535.277   -24270404.769 7 -18823959.34623        27.250           2.750
  23247521.465    -5129316.801 5   2863551.67021         9.000           0.344
  21164082.949     1692496.116 6   1327198.36321        13.250           1.156
  20463257.754   -20663548.559 7 -15923859.95522        20.750           2.125
 91  6  3 19 30 44.9960000  0  4G 2G11G19G 6
  19620060.754   -24288674.558 7 -18838195.53523        27.500           2.750
  23253338.941    -5098739.961 5   2887377.75121         9.000           0.281
  21167931.832     1712723.650 6   1342960.03121        12.500           1.156
  20456254.621   -20700349.811 7 -15952536.22322        21.000           2.156
 91  6  3 19 30 59.9960000  0  4G 2G11G19G 6
  19616596.559   -24306877.968 7 -18852380.00723        27.250           2.656
  23259173.621    -5068075.905 5   2911271.79121         8.750           0.313
  21171792.598     1733009.285 6   1358766.97121        13.250           1.094
  20449256.981   -20737120.883 7 -15981188.98322        20.750           2.188
 91  6  3 19 31 14.9960000  0  4G 2G11G19G 6
  19613144.434   -24325016.043 7 -18866513.56623        27.250           2.781
  23265028.777    -5037325.988 5   2935232.73821        10.000           0.313
  21175664.871     1753351.968 6   1374618.34721        13.000           1.125
  20442265.137   -20773862.618 7 -16009818.89022        20.750           2.250
 91  6  3 19 31 29.9960000  0  4G 2G11G19G 6
  19609705.371   -24343086.122 7 -18880594.14323        26.750           2.750
  23270894.059    -5006487.799 5   2959262.44921         9.250           0.375
  21179545.895     1773754.380 6   1390516.28421        12.250           1.188
  20435278.785   -20810572.162 7 -16038423.71022        20.500           2.188
 91  6  3 19 31 44.9960000  0  4G 2G11G19G 6
  19606279.879   -24361088.696 7 -18894622.10923        27.000           2.750
  23276778.801    -4975562.170 5   2983360.30321         9.250           0.375
  21183440.793     1794216.151 6   1406460.47121        13.000           0.938
  20428299.254   -20847249.894 7 -16067003.74222        20.250           2.063
 91  6  3 19 31 59.9960000  0  4G 2G11G19G 6
  19602868.801   -24379017.291 7 -18908592.43523        27.750           2.844
  23282683.293    -4944542.862 5   3007531.14621         9.000           0.188
  21187345.035     1814743.803 6   1422455.99521        12.250           1.063
  20421328.293   -20883889.018 7 -16095553.68722        20.250           2.281
 91  6  3 19 32 14.9960000  0  4G 2G11G19G 6
  19599469.559   -24396876.826 8 -18922508.94823        28.500           2.906
  23288603.629    -4913435.150 5   3031770.89821         9.500           0.313
  21191262.887     1835332.261 5   1438498.89421        11.750           1.000
  20414364.324   -20920494.293 7 -16124077.25822        20.250           2.063
 91  6  3 19 32 29.9960000  0  4G 2G11G19G 6
  19596082.691   -24414673.312 7 -18936376.34223        27.500           2.938
  23294536.504    -4882245.335 5   3056074.61121        10.000           0.344
  21195192.434     1855975.635 5   1454584.56821        11.750           1.063
  20407404.340   -20957071.574 7 -16152579.00322        20.750           1.938
 91  6  3 19 32 44.9960000  0  4G 2G11G19G 6
  19592710.801   -24432391.557 7 -18950182.76223        27.250           2.813
  23300490.918    -4850958.579 5   3080453.84721         9.000           0.219
  21199135.027     1876689.257 6   1470725.00121        12.000           1.031
  20400449.777   -20993605.441 7 -16181046.93822        21.000           2.000
 91  6  3 19 32 59.9960000  0  4G 2G11G19G 6
  19589350.473   -24450054.311 7 -18963945.93323        27.250           2.750
  23306459.434    -4819597.631 5   3104890.91821         8.750           0.250
  21203083.379     1897450.499 6   1486902.53521        12.250           0.969
  20393501.434   -21030118.217 7 -16209498.41922        20.750           2.063
 91  6  3 19 33 14.9960000  0  4G 2G11G19G 6
  19585999.902   -24467656.193 7 -18977661.68523        27.000           2.781
  23312441.770    -4788157.667 5   3129389.57321         9.000           0.250
  21207044.285     1918264.525 5   1503121.20521        11.750           0.906
  20386559.277   -21066604.634 7 -16237929.36922        21.000           2.188
 91  6  3 19 33 29.9960000  0  4G 2G11G19G 6
  19582661.949   -24485190.871 7 -18991325.05923        26.750           2.750
  23318440.199    -4756632.427 5   3153954.64321         8.250           0.313
  21211020.645     1939137.874 5   1519386.09621        11.250           1.000
  20379623.340   -21103057.865 7 -16266334.46122        21.000           2.031
 91  6  3 19 33 44.9960000  0  4G 2G11G19G 6
  19579340.496   -24502652.611 7 -19004931.59723        26.750           2.750
  23324457.465    -4725016.602 5   3178590.32221         8.250           0.344
  21215002.535     1960076.311 5   1535701.69821        11.750           1.031
  20372692.496   -21139471.928 7 -16294709.03122        20.750           2.094
 91  6  3 19 33 59.9960000  0  4G 2G11G19G 6
  19576030.348   -24520045.170 7 -19018484.23123        27.250           2.688
  23330488.012    -4693314.117 5   3203293.51221         7.500           0.281
  21218998.629     1981076.156 6   1552065.15921        12.000           1.000
  20365769.496   -21175850.437 7 -16323055.89922        20.500           2.156
 91  6  3 19 34 14.9960000  0  4G 2G11G19G 6
  19572733.684   -24537370.306 7 -19031984.32223        27.250           2.844
  23336536.793    -4661527.041 5   3228062.64121         8.250           0.375
  21223005.324     2002135.684 6   1568475.12221        12.000           1.000
  20358853.293   -21212195.029 7 -16351376.32722        20.250           2.188
 91  6  3 19 34 29.9960000  0  4G 2G11G19G 6
  19569451.481   -24554630.564 7 -19045433.86523        26.750           2.750
  23342600.668    -4629658.165 4   3252895.49221         7.250           0.281
  21227023.793     2023252.495 6   1584929.72321        12.000           1.125
  20351945.051   -21248507.710 7 -16379671.88822        21.250           2.094
 91  6  3 19 34 44.9960000  0  4G 2G11G19G 6
  19566177.699   -24571823.488 7 -19058830.94323        27.500           2.719
  23348681.145    -4597705.467 4   3277793.64221         7.250           0.375
  21231055.348     2044428.990 6   1601430.82921        12.000           1.094
  20345041.840   -21284786.052 7 -16407940.70922        21.500           2.094
 91  6  3 19 34 59.9960000  0  4G 2G11G19G 6
  19562920.637   -24588946.483 7 -19072173.52523        27.500           2.875
  23354778.840    -4565666.750 5   3302758.84321         8.250           0.438
  21235096.090     2065667.821 6   1617980.51221        12.250           1.188
  20338143.324   -21321027.223 7 -16436180.55922        20.750           2.219
 91  6  3 19 35 14.9960000  0  4G 2G11G19G 6
  19559674.535   -24605998.554 7 -19085460.84323        26.250           2.781
  23360891.363    -4533541.175 5   3327791.74221         7.500           0.219
  21239150.426     2086970.050 6   1634579.59321        12.500           1.094
  20331255.246   -21357229.978 7 -16464390.46522        21.000           2.250
 91  6  3 19 35 29.9960000  0  4G 2G11G19G 6
  19556441.746   -24622984.767 7 -19098696.84223        26.500           2.844
  23367016.949    -4501333.984 5   3352888.20621         8.000           0.375
  21243213.887     2108330.722 6   1651224.20621        12.500           0.969
  20324372.332   -21393399.006 7 -16492574.08322        20.750           2.250
 91  6  3 19 35 44.9960000  0  4G 2G11G19G 6
  19553221.598   -24639904.003 7 -19111880.66123        26.250           2.844
  23373164.199    -4469044.423 5   3378048.86621         7.750           0.375
  21247290.379     2129750.982 6   1667915.26421        12.500           1.094
  20317495.254   -21429533.183 7 -16520730.57122        20.750           2.219
 91  6  3 19 35 59.9960000  0  4G 2G11G19G 6
  19550015.262   -24656755.651 7 -19125011.80323        26.250           2.875
  23379325.051    -4436672.170 5   3403273.95921         8.500           0.250
  21251378.785     2151231.504 6   1684653.27821        12.750           1.125
  20310626.887   -21465631.516 7 -16548859.11822        21.000           2.156
 91  6  3 19 36 14.9960000  0  4G 2G11G19G 6
  19546822.106   -24673540.760 7 -19138091.10123        26.250           3.000
  23385502.856    -4404218.423 5   3428562.56721         9.000           0.313
  21255477.738     2172771.241 6   1701437.43121        12.500           1.125
  20303763.910   -21501694.823 7 -16576960.37822        21.000           2.063
 91  6  3 19 36 29.9960000  0  3G 2G19G 6
  19543640.121   -24690258.249 7 -19151117.71523        26.250           2.844
  21259587.402     2194371.315 6   1718268.58921        13.250           1.031
  20296907.676   -21537721.768 7 -16605033.31422        21.000           2.313
 91  6  3 19 36 44.9960000  0  3G 2G19G 6
  19540471.098   -24706908.566 7 -19164091.98723        26.250           3.063
  21263711.668     2216031.294 6   1735146.43921        13.000           1.094
  20290059.348   -21573712.692 7 -16633078.16622        20.750           2.219
 91  6  3 19 36 59.9960000  0  3G 2G19G 6
  19537315.340   -24723499.607 7 -19177020.06323        26.250           2.969
  21267839.754     2237743.348 6   1752064.87721        13.250           1.156
  20283213.535   -21609675.156 7 -16661100.83722        20.250           2.188
 91  6  3 19 37 14.9960000  0  3G 2G19G 6
  19534169.707   -24740022.986 7 -19189895.42023        26.750           3.063
  21271984.176     2259515.782 6   1769030.33621        12.250           1.125
  20276379.457   -21645600.615 7 -16689094.68222        20.500           2.313
